Darstellungsparameter: Aktuell verwendete Einstellungen:
Skalierung der Graphiken ... ?
xyx+y,   Skalierungsfaktor:      Skalierung: Modus: x, Faktor: 1
Darstellungszeitraum ... ?
Vom - - bis: - -   Zeitraum: 04.06.2009 - 03.09.2009
Min/Max/Avg-Anzeige ... ?
Zeige MMA aktuell
Zeige MMA Monat
Zeige MMA alles
Zeige --A aktuell
Zeige --A Monat
Zeige --A alles
Keine MMA-Anzeige
MMA:
Minimum Maximum Average (ber die Originaldaten)
MMA-Basis: 23.02.2003 - 04.09.2009
Quicknavigation für Darstellung... ?
Tage:      1T, 2T, 3T, 5T -1T -2T -3T -5T +1T +2T +3T +5T
Wochen: 1W, 2W, 3W -1W -2W -3W +1W +2W +3W
Monate: 1M, 3M, 6M -1M -3M -6M +1M +3M +6M
Jahre:    1J, 3J, 5J, 10J -1J -3J -5J -10J +1J +3J +5J +10J
Nutze für die Darstellung ... ?
Originaldaten oder Mittelwerte auf ...
Stundenbasis Tagesbasis Wochenbasis
Monatsbasis Jahresbasis      Datenbasis: Original-Daten
Darstellen als:
Statistik (Auto) Statistik J:M      Darstellung:
Zur Graphik,    zurück zur Übersicht aller Sensoren.
 
Tabellarische Datenbersicht: ?
 
Sensor: Nr:Datum:Temp:Abs-Feuchte:Windchill:Wind:
Aussen-T/F 1 04-06-2009 00:05:36 13.7 C 5.21 g/m*3 13.7 C 0 km/h
2 04-06-2009 00:17:36 13.7 C 5.33 g/m*3 13.7 C 0 km/h
3 04-06-2009 00:29:36 13.4 C 5.23 g/m*3 13.4 C 0 km/h
4 04-06-2009 00:41:36 13.1 C 5.14 g/m*3 13.1 C 0 km/h
5 04-06-2009 00:53:36 13 C 5.22 g/m*3 13 C 0 km/h
6 04-06-2009 01:05:36 12.7 C 5.34 g/m*3 12.7 C 0 km/h
7 04-06-2009 01:17:36 12.6 C 5.42 g/m*3 12.6 C 0 km/h
8 04-06-2009 01:29:36 12.7 C 5.45 g/m*3 12.7 C 0 km/h
9 04-06-2009 01:41:36 12.6 C 5.42 g/m*3 12.6 C 0 km/h
10 04-06-2009 01:53:36 12.5 C 5.5 g/m*3 12.5 C 0 km/h
11 04-06-2009 02:05:36 12.5 C 4.95 g/m*3 12.5 C 0 km/h
12 04-06-2009 02:17:36 12.4 C 4.7 g/m*3 12.4 C 0 km/h
13 04-06-2009 02:29:36 12 C 4.48 g/m*3 12 C 0 km/h
14 04-06-2009 02:41:36 11.9 C 4.45 g/m*3 11.9 C 0 km/h
15 04-06-2009 02:53:36 11.7 C 4.18 g/m*3 11.7 C 0 km/h
16 04-06-2009 03:05:36 11.5 C 4.13 g/m*3 11.5 C 0 km/h
17 04-06-2009 03:17:37 11.2 C 3.95 g/m*3 11.2 C 0 km/h
18 04-06-2009 03:29:37 11 C 4 g/m*3 11 C 0 km/h
19 04-06-2009 03:41:37 10.8 C 4.15 g/m*3 10.8 C 0 km/h
20 04-06-2009 03:53:37 10.9 C 4.28 g/m*3 10.9 C 0 km/h
21 04-06-2009 04:05:37 10.8 C 4.15 g/m*3 10.8 C 0 km/h
22 04-06-2009 04:17:37 10.7 C 4.22 g/m*3 10.7 C 0 km/h
23 04-06-2009 04:29:37 10.6 C 4.29 g/m*3 10.6 C 0 km/h
24 04-06-2009 04:41:37 10.6 C 4.39 g/m*3 10.6 C 0 km/h
25 04-06-2009 04:53:37 10.7 C 4.62 g/m*3 10.7 C 0 km/h
Sensor: Nr:Datum:Temp:Abs-Feuchte:Windchill:Wind:
Aussen-T/F 26 04-06-2009 05:05:37 10.5 C 4.85 g/m*3 10.5 C 0 km/h
27 04-06-2009 05:17:37 10.5 C 4.95 g/m*3 10.5 C 0 km/h
28 04-06-2009 05:29:37 10.6 C 5.08 g/m*3 10.6 C 0 km/h
29 04-06-2009 05:41:37 10.7 C 5.11 g/m*3 10.7 C 0 km/h
30 04-06-2009 05:53:37 10.7 C 5.01 g/m*3 10.7 C 0 km/h
31 04-06-2009 06:05:37 10.7 C 5.11 g/m*3 10.7 C 0 km/h
32 04-06-2009 06:17:37 10.7 C 5.01 g/m*3 10.7 C 0 km/h
33 04-06-2009 06:29:37 10.5 C 4.75 g/m*3 10.5 C 0 km/h
34 04-06-2009 06:41:37 10.6 C 4.78 g/m*3 10.6 C 0 km/h
35 04-06-2009 06:53:35 10.7 C 4.91 g/m*3 10.7 C 0 km/h
36 04-06-2009 07:05:35 10.7 C 4.91 g/m*3 10.7 C 0 km/h
37 04-06-2009 07:17:35 11 C 4.8 g/m*3 11 C 0 km/h
38 04-06-2009 07:29:35 10.8 C 5.04 g/m*3 10.8 C 0 km/h
39 04-06-2009 07:41:35 10.8 C 5.34 g/m*3 10.8 C 0 km/h
40 04-06-2009 07:53:35 11 C 5.31 g/m*3 11 C 0 km/h
41 04-06-2009 08:05:34 11.6 C 5.4 g/m*3 11.6 C 0 km/h
42 04-06-2009 08:17:34 11.8 C 5.37 g/m*3 11.8 C 0 km/h
43 04-06-2009 08:29:34 11.9 C 5.3 g/m*3 11.9 C 0 km/h
44 04-06-2009 08:41:34 12.2 C 5.18 g/m*3 12.2 C 0 km/h
45 04-06-2009 08:53:34 12.5 C 5.17 g/m*3 12.5 C 0 km/h
46 04-06-2009 09:05:33 13 C 4.88 g/m*3 13 C 0 km/h
47 04-06-2009 09:17:34 12.8 C 4.59 g/m*3 12.8 C 0 km/h
48 04-06-2009 09:29:34 12.3 C 4.13 g/m*3 12.3 C 0 km/h
49 04-06-2009 09:41:34 12.7 C 4.23 g/m*3 12.7 C 0 km/h
50 04-06-2009 09:53:33 12.9 C 4.51 g/m*3 12.9 C 0 km/h
Sensor: Nr:Datum:Temp:Abs-Feuchte:Windchill:Wind:
Aussen-T/F 51 04-06-2009 10:05:34 13 C 4.2 g/m*3 13 C 0 km/h
52 04-06-2009 10:17:33 13.1 C 4.45 g/m*3 13.1 C 0 km/h
53 04-06-2009 10:29:33 14.1 C 4.49 g/m*3 14.1 C 0 km/h
54 04-06-2009 10:41:33 13.5 C 4.33 g/m*3 13.5 C 0 km/h
55 04-06-2009 10:53:33 13.2 C 4.36 g/m*3 13.2 C 0 km/h
56 04-06-2009 11:05:33 14 C 4.46 g/m*3 14 C 0 km/h
57 04-06-2009 11:17:32 14.7 C 4.53 g/m*3 14.7 C 0 km/h
58 04-06-2009 11:29:32 13.3 C 4.04 g/m*3 13.3 C 0 km/h
59 04-06-2009 11:41:32 13.1 C 3.99 g/m*3 13.1 C 0 km/h
60 04-06-2009 11:53:32 13.5 C 4.33 g/m*3 13.5 C 0 km/h
61 04-06-2009 12:05:32 14.7 C 4.53 g/m*3 14.7 C 0 km/h
62 04-06-2009 12:17:32 14.5 C 4.35 g/m*3 14.5 C 0 km/h
63 04-06-2009 12:29:32 14.6 C 4.25 g/m*3 14.6 C 0 km/h
64 04-06-2009 12:41:32 14.4 C 3.96 g/m*3 14.4 C 0 km/h
65 04-06-2009 12:53:32 14.7 C 4.28 g/m*3 14.7 C 0 km/h
66 04-06-2009 13:05:31 14.7 C 4.41 g/m*3 14.7 C 0 km/h
67 04-06-2009 13:17:32 15.7 C 4.01 g/m*3 15.7 C 0 km/h
68 04-06-2009 13:29:32 15.6 C 3.72 g/m*3 15.6 C 0 km/h
69 04-06-2009 13:41:31 14.9 C 3.95 g/m*3 14.9 C 0 km/h
70 04-06-2009 13:53:31 14.4 C 3.96 g/m*3 14.4 C 0 km/h
71 04-06-2009 14:05:31 15.1 C 4.13 g/m*3 15.1 C 0 km/h
72 04-06-2009 14:17:31 16.2 C 4.14 g/m*3 16.2 C 0 km/h
73 04-06-2009 14:29:31 15.3 C 3.79 g/m*3 15.3 C 0 km/h
74 04-06-2009 14:41:31 14.8 C 3.67 g/m*3 14.8 C 0 km/h
75 04-06-2009 14:53:30 15.8 C 3.9 g/m*3 15.8 C 0 km/h
Sensor: Nr:Datum:Temp:Abs-Feuchte:Windchill:Wind:
Aussen-T/F 76 04-06-2009 15:05:30 16.3 C 4.16 g/m*3 16.3 C 0 km/h
77 04-06-2009 15:17:30 17.5 C 3.88 g/m*3 17.5 C 0 km/h
78 04-06-2009 15:29:30 16.1 C 3.56 g/m*3 16.1 C 0 km/h
79 04-06-2009 15:41:30 15.9 C 3.79 g/m*3 15.9 C 0 km/h
80 04-06-2009 15:53:30 16.4 C 3.77 g/m*3 16.4 C 0 km/h
81 04-06-2009 16:05:30 16.3 C 3.75 g/m*3 16.3 C 0 km/h
82 04-06-2009 16:17:30 16.2 C 3.59 g/m*3 16.2 C 0 km/h
83 04-06-2009 16:29:30 17.2 C 3.66 g/m*3 17.2 C 0 km/h
84 04-06-2009 16:41:30 16.5 C 3.51 g/m*3 16.5 C 0 km/h
85 04-06-2009 16:53:29 16.2 C 3.72 g/m*3 16.2 C 0 km/h
86 04-06-2009 17:05:29 16.1 C 3.84 g/m*3 16.1 C 0 km/h
87 04-06-2009 17:17:29 16.4 C 3.91 g/m*3 16.4 C 0 km/h
88 04-06-2009 17:29:29 15.6 C 3.86 g/m*3 15.6 C 0 km/h
89 04-06-2009 17:41:29 15.6 C 3.99 g/m*3 15.6 C 0 km/h
90 04-06-2009 17:53:28 16.2 C 4.14 g/m*3 16.2 C 0 km/h
91 04-06-2009 18:05:29 16 C 4.09 g/m*3 16 C 0 km/h
92 04-06-2009 18:17:29 15.8 C 4.17 g/m*3 15.8 C 0 km/h
93 04-06-2009 18:29:29 16.1 C 4.25 g/m*3 16.1 C 0 km/h
94 04-06-2009 18:41:29 15.4 C 4.07 g/m*3 15.4 C 0 km/h
95 04-06-2009 18:53:28 15.7 C 4.28 g/m*3 15.7 C 0 km/h
96 04-06-2009 19:05:28 15.3 C 4.18 g/m*3 15.3 C 0 km/h
97 04-06-2009 19:17:28 15.4 C 4.2 g/m*3 15.4 C 0 km/h
98 04-06-2009 19:29:28 15.4 C 4.34 g/m*3 15.4 C 0 km/h
99 04-06-2009 19:41:28 14.7 C 4.41 g/m*3 14.7 C 0 km/h
100 04-06-2009 19:53:28 15.1 C 4.52 g/m*3 15.1 C 0 km/h
Sensor: Nr:Datum:Temp:Abs-Feuchte:Windchill:Wind:
Aussen-T/F 101 04-06-2009 20:05:28 14.9 C 4.59 g/m*3 14.9 C 0 km/h
102 04-06-2009 20:17:27 14.9 C 4.59 g/m*3 14.9 C 0 km/h
103 04-06-2009 20:29:27 14.7 C 4.66 g/m*3 14.7 C 0 km/h
104 04-06-2009 20:41:27 14.5 C 4.73 g/m*3 14.5 C 0 km/h
105 04-06-2009 20:53:27 14.1 C 4.61 g/m*3 14.1 C 0 km/h
106 04-06-2009 21:05:27 14 C 4.7 g/m*3 14 C 0 km/h
107 04-06-2009 21:17:27 13.8 C 4.77 g/m*3 13.8 C 0 km/h
108 04-06-2009 21:29:27 13.7 C 4.86 g/m*3 13.7 C 0 km/h
109 04-06-2009 21:41:27 13.5 C 4.91 g/m*3 13.5 C 0 km/h
110 04-06-2009 21:53:27 13.5 C 5.03 g/m*3 13.5 C 0 km/h
111 04-06-2009 22:06:22 13.3 C 4.97 g/m*3 13.3 C 0 km/h
112 04-06-2009 22:18:22 13.2 C 4.94 g/m*3 13.2 C 0 km/h
113 04-06-2009 22:30:22 13 C 4.99 g/m*3 13 C 0 km/h
114 04-06-2009 22:42:22 13 C 4.88 g/m*3 13 C 0 km/h
115 04-06-2009 22:54:22 12.9 C 4.96 g/m*3 12.9 C 0 km/h
116 04-06-2009 23:06:22 12.7 C 5.01 g/m*3 12.7 C 0 km/h
117 04-06-2009 23:18:22 12.4 C 4.92 g/m*3 12.4 C 0 km/h
118 04-06-2009 23:30:22 12.2 C 4.86 g/m*3 12.2 C 0 km/h
119 04-06-2009 23:42:22 12.1 C 4.93 g/m*3 12.1 C 0 km/h
120 04-06-2009 23:54:22 12 C 5.01 g/m*3 12 C 0 km/h
121 05-06-2009 00:06:22 11.7 C 5.12 g/m*3 11.7 C 0 km/h
122 05-06-2009 00:18:22 11.7 C 5.12 g/m*3 11.7 C 0 km/h
123 05-06-2009 00:30:22 11.6 C 5.09 g/m*3 11.6 C 0 km/h
124 05-06-2009 00:42:22 11.4 C 4.82 g/m*3 11.4 C 0 km/h
125 05-06-2009 00:54:22 11.2 C 4.76 g/m*3 11.2 C 0 km/h
Sensor: Nr:Datum:Temp:Abs-Feuchte:Windchill:Wind:
Aussen-T/F 126 05-06-2009 01:06:22 11.2 C 4.66 g/m*3 11.2 C 0 km/h
127 05-06-2009 01:18:22 11.1 C 4.63 g/m*3 11.1 C 0 km/h
128 05-06-2009 01:30:22 11 C 4.6 g/m*3 11 C 0 km/h
129 05-06-2009 01:42:22 10.9 C 4.67 g/m*3 10.9 C 0 km/h
130 05-06-2009 01:54:23 10.8 C 4.65 g/m*3 10.8 C 0 km/h
131 05-06-2009 02:06:23 10.7 C 4.71 g/m*3 10.7 C 0 km/h
132 05-06-2009 02:18:23 10.4 C 4.72 g/m*3 10.4 C 0 km/h
133 05-06-2009 02:30:23 10 C 4.7 g/m*3 10 C 0 km/h
134 05-06-2009 02:42:23 9.6 C 4.76 g/m*3 9.6 C 0 km/h
135 05-06-2009 02:54:23 9.2 C 4.91 g/m*3 9.2 C 0 km/h
136 05-06-2009 03:06:23 9.2 C 5 g/m*3 9.2 C 0 km/h
137 05-06-2009 03:18:23 9.3 C 5.03 g/m*3 9.3 C 0 km/h
138 05-06-2009 03:30:23 9.2 C 5 g/m*3 9.2 C 0 km/h
139 05-06-2009 03:42:23 9 C 5.11 g/m*3 9 C 0 km/h
140 05-06-2009 03:54:23 8.6 C 5.16 g/m*3 8.6 C 0 km/h
141 05-06-2009 04:06:23 8.6 C 5.16 g/m*3 8.6 C 0 km/h
142 05-06-2009 04:18:23 8.6 C 5.24 g/m*3 8.6 C 0 km/h
143 05-06-2009 04:30:23 8.5 C 5.21 g/m*3 8.5 C 0 km/h
144 05-06-2009 04:42:23 8.5 C 5.29 g/m*3 8.5 C 0 km/h
145 05-06-2009 04:54:23 8.5 C 5.38 g/m*3 8.5 C 0 km/h
146 05-06-2009 05:06:23 8.4 C 5.34 g/m*3 8.4 C 0 km/h
147 05-06-2009 05:18:23 8.1 C 5.33 g/m*3 8.1 C 0 km/h
148 05-06-2009 05:30:23 8.2 C 5.44 g/m*3 8.2 C 0 km/h
149 05-06-2009 05:42:23 8.4 C 5.6 g/m*3 8.4 C 0 km/h
150 05-06-2009 05:54:24 8.5 C 5.64 g/m*3 8.5 C 0 km/h
Sensor: Nr:Datum:Temp:Abs-Feuchte:Windchill:Wind:
Aussen-T/F 151 05-06-2009 06:06:24 8.5 C 5.72 g/m*3 8.5 C 0 km/h
152 05-06-2009 06:18:24 8.5 C 5.64 g/m*3 8.5 C 0 km/h
153 05-06-2009 06:30:24 8.5 C 5.72 g/m*3 8.5 C 0 km/h
154 05-06-2009 06:42:24 8.5 C 5.72 g/m*3 8.5 C 0 km/h
155 05-06-2009 06:54:24 8.7 C 5.79 g/m*3 8.7 C 0 km/h
156 05-06-2009 07:06:28 8.8 C 5.83 g/m*3 8.8 C 0 km/h
157 05-06-2009 07:18:27 8.9 C 5.78 g/m*3 8.9 C 0 km/h
158 05-06-2009 07:30:28 9.2 C 5.63 g/m*3 9.2 C 0 km/h
159 05-06-2009 07:42:28 10 C 5.64 g/m*3 10 C 0 km/h
160 05-06-2009 07:54:27 10.2 C 5.52 g/m*3 10.2 C 0 km/h
161 05-06-2009 08:06:27 10.5 C 5.63 g/m*3 10.5 C 0 km/h
162 05-06-2009 08:18:27 10.8 C 5.63 g/m*3 10.8 C 0 km/h
163 05-06-2009 08:30:27 10.6 C 5.56 g/m*3 10.6 C 0 km/h
164 05-06-2009 08:42:27 10.2 C 5.61 g/m*3 10.2 C 0 km/h
165 05-06-2009 08:54:26 10.4 C 5.78 g/m*3 10.4 C 0 km/h
166 05-06-2009 09:06:27 11.5 C 5.78 g/m*3 11.5 C 0 km/h
167 05-06-2009 09:18:26 12.3 C 5.43 g/m*3 12.3 C 0 km/h
168 05-06-2009 09:30:26 12.7 C 5.12 g/m*3 12.7 C 0 km/h
169 05-06-2009 09:42:26 11.8 C 4.95 g/m*3 11.8 C 0 km/h
170 05-06-2009 09:54:26 12.1 C 5.25 g/m*3 12.1 C 0 km/h
171 05-06-2009 10:06:26 12.7 C 5.12 g/m*3 12.7 C 0 km/h
172 05-06-2009 10:18:25 13.1 C 5.02 g/m*3 13.1 C 0 km/h
173 05-06-2009 10:30:26 12.3 C 4.67 g/m*3 12.3 C 0 km/h
174 05-06-2009 10:42:26 13.3 C 4.97 g/m*3 13.3 C 0 km/h
175 05-06-2009 10:54:26 12.6 C 4.54 g/m*3 12.6 C 0 km/h
Sensor: Nr:Datum:Temp:Abs-Feuchte:Windchill:Wind:
Aussen-T/F 176 05-06-2009 11:06:25 12.3 C 4.56 g/m*3 12.3 C 0 km/h
177 05-06-2009 11:18:26 13 C 4.76 g/m*3 13 C 0 km/h
178 05-06-2009 11:30:25 13.4 C 4.65 g/m*3 13.4 C 0 km/h
179 05-06-2009 11:42:25 14 C 4.34 g/m*3 14 C 0 km/h
180 05-06-2009 11:54:25 14.3 C 4.18 g/m*3 14.3 C 0 km/h
181 05-06-2009 12:06:24 14.6 C 4.38 g/m*3 14.6 C 0 km/h
182 05-06-2009 12:18:25 15.3 C 4.44 g/m*3 15.3 C 0 km/h
183 05-06-2009 12:30:25 15.6 C 4.26 g/m*3 15.6 C 0 km/h
184 05-06-2009 12:42:25 16.1 C 4.25 g/m*3 16.1 C 0 km/h
185 05-06-2009 12:54:24 16.6 C 4.38 g/m*3 16.6 C 0 km/h
186 05-06-2009 13:06:25 18.5 C 4.43 g/m*3 18.5 C 0 km/h
187 05-06-2009 13:18:24 17.7 C 4.22 g/m*3 17.7 C 0 km/h
188 05-06-2009 13:30:24 17.2 C 4.25 g/m*3 17.2 C 0 km/h
189 05-06-2009 13:42:25 16.6 C 4.1 g/m*3 16.6 C 0 km/h
190 05-06-2009 13:54:24 16.2 C 4 g/m*3 16.2 C 0 km/h
191 05-06-2009 14:06:24 16.5 C 4.07 g/m*3 16.5 C 0 km/h
192 05-06-2009 14:18:23 16.8 C 4.15 g/m*3 16.8 C 0 km/h
193 05-06-2009 14:30:23 16.6 C 3.96 g/m*3 16.6 C 0 km/h
194 05-06-2009 14:42:23 16.2 C 3.86 g/m*3 16.2 C 0 km/h
195 05-06-2009 14:54:23 16.4 C 4.19 g/m*3 16.4 C 0 km/h
196 05-06-2009 15:06:23 16.8 C 4.15 g/m*3 16.8 C 0 km/h
197 05-06-2009 15:18:23 16.4 C 3.77 g/m*3 16.4 C 0 km/h
198 05-06-2009 15:30:23 16 C 3.95 g/m*3 16 C 0 km/h
199 05-06-2009 15:42:23 15.9 C 3.93 g/m*3 15.9 C 0 km/h
200 05-06-2009 15:54:23 15.6 C 3.72 g/m*3 15.6 C 0 km/h
Sensor: Nr:Datum:Temp:Abs-Feuchte:Windchill:Wind:
Aussen-T/F 201 05-06-2009 16:06:22 16.8 C 3.86 g/m*3 16.8 C 0 km/h
202 05-06-2009 16:18:22 17.6 C 4.05 g/m*3 17.6 C 0 km/h
203 05-06-2009 16:30:23 18.4 C 4.09 g/m*3 18.4 C 0 km/h
204 05-06-2009 16:42:23 18.9 C 4.05 g/m*3 18.9 C 0 km/h
205 05-06-2009 16:54:22 20.1 C 4 g/m*3 20.1 C 0 km/h
206 05-06-2009 17:06:21 20 C 3.46 g/m*3 20 C 0 km/h
207 05-06-2009 17:18:22 18.4 C 3.3 g/m*3 18.4 C 0 km/h
208 05-06-2009 17:30:22 20.4 C 3.71 g/m*3 20.4 C 0 km/h
209 05-06-2009 17:42:22 20.7 C 3.6 g/m*3 20.7 C 0 km/h
210 05-06-2009 17:54:21 22 C 3.88 g/m*3 22 C 0 km/h
211 05-06-2009 18:06:22 22.9 C 4.09 g/m*3 22.9 C 0 km/h
212 05-06-2009 18:18:21 22.9 C 4.09 g/m*3 22.9 C 0 km/h
213 05-06-2009 18:30:21 22.1 C 3.9 g/m*3 22.1 C 0 km/h
214 05-06-2009 18:42:21 21 C 3.66 g/m*3 21 C 0 km/h
215 05-06-2009 18:54:21 20.7 C 3.6 g/m*3 20.7 C 0 km/h
216 05-06-2009 19:06:21 21 C 3.66 g/m*3 21 C 0 km/h
217 05-06-2009 19:18:20 20.2 C 3.5 g/m*3 20.2 C 0 km/h
218 05-06-2009 19:30:20 18.5 C 3.48 g/m*3 18.5 C 0 km/h
219 05-06-2009 19:42:20 17.7 C 3.92 g/m*3 17.7 C 0 km/h
220 05-06-2009 19:54:20 17.9 C 3.97 g/m*3 17.9 C 0 km/h
221 05-06-2009 20:06:20 17.7 C 4.07 g/m*3 17.7 C 0 km/h
222 05-06-2009 20:18:20 17.2 C 4.25 g/m*3 17.2 C 0 km/h
223 05-06-2009 20:30:20 16.9 C 4.6 g/m*3 16.9 C 0 km/h
224 05-06-2009 20:42:20 16 C 4.63 g/m*3 16 C 0 km/h
225 05-06-2009 20:54:20 15 C 4.62 g/m*3 15 C 0 km/h
Sensor: Nr:Datum:Temp:Abs-Feuchte:Windchill:Wind:
Aussen-T/F 226 05-06-2009 21:06:20 14.2 C 4.76 g/m*3 14.2 C 0 km/h
227 05-06-2009 21:18:20 13.4 C 4.77 g/m*3 13.4 C 0 km/h
228 05-06-2009 21:30:19 13 C 4.65 g/m*3 13 C 0 km/h
229 05-06-2009 21:42:19 12.7 C 4.9 g/m*3 12.7 C 0 km/h
230 05-06-2009 21:54:20 12.2 C 4.86 g/m*3 12.2 C 0 km/h
231 05-06-2009 22:06:19 11.9 C 4.87 g/m*3 11.9 C 0 km/h
232 05-06-2009 22:18:19 11.8 C 5.05 g/m*3 11.8 C 0 km/h
233 05-06-2009 22:31:19 11.4 C 5.03 g/m*3 11.4 C 0 km/h
234 05-06-2009 22:43:19 11.1 C 5.04 g/m*3 11.1 C 0 km/h
235 05-06-2009 22:55:19 11 C 5.1 g/m*3 11 C 0 km/h
236 05-06-2009 23:07:19 10.8 C 5.14 g/m*3 10.8 C 0 km/h
237 05-06-2009 23:19:19 10.5 C 5.14 g/m*3 10.5 C 0 km/h
238 05-06-2009 23:31:19 10.4 C 5.2 g/m*3 10.4 C 0 km/h
239 05-06-2009 23:43:19 10.1 C 5.2 g/m*3 10.1 C 0 km/h
240 05-06-2009 23:55:20 10 C 5.17 g/m*3 10 C 0 km/h
241 06-06-2009 00:07:20 9.8 C 5.29 g/m*3 9.8 C 0 km/h
242 06-06-2009 00:19:20 9.7 C 5.35 g/m*3 9.7 C 0 km/h
243 06-06-2009 00:31:20 9.5 C 5.37 g/m*3 9.5 C 0 km/h
244 06-06-2009 00:43:20 9.1 C 5.32 g/m*3 9.1 C 0 km/h
245 06-06-2009 00:55:20 8.9 C 5.43 g/m*3 8.9 C 0 km/h
246 06-06-2009 01:07:20 8.8 C 5.4 g/m*3 8.8 C 0 km/h
247 06-06-2009 01:19:20 8.6 C 5.33 g/m*3 8.6 C 0 km/h
248 06-06-2009 01:31:20 8.6 C 5.41 g/m*3 8.6 C 0 km/h
249 06-06-2009 01:43:20 8.5 C 5.55 g/m*3 8.5 C 0 km/h
250 06-06-2009 01:55:20 8.3 C 5.48 g/m*3 8.3 C 0 km/h
Sensor: Nr:Datum:Temp:Abs-Feuchte:Windchill:Wind:
Aussen-T/F 251 06-06-2009 02:07:20 8.2 C 5.53 g/m*3 8.2 C 0 km/h
252 06-06-2009 02:19:20 8.1 C 5.49 g/m*3 8.1 C 0 km/h
253 06-06-2009 02:31:20 8.1 C 5.57 g/m*3 8.1 C 0 km/h
254 06-06-2009 02:43:20 8.1 C 5.66 g/m*3 8.1 C 0 km/h
255 06-06-2009 02:55:20 8.1 C 5.66 g/m*3 8.1 C 0 km/h
256 06-06-2009 03:07:20 8 C 5.79 g/m*3 8 C 0 km/h
257 06-06-2009 03:19:20 7.8 C 5.79 g/m*3 7.8 C 0 km/h
258 06-06-2009 03:31:20 7.6 C 5.8 g/m*3 7.6 C 0 km/h
259 06-06-2009 03:43:20 7.5 C 5.84 g/m*3 7.5 C 0 km/h
260 06-06-2009 03:55:20 7.4 C 5.81 g/m*3 7.4 C 0 km/h
261 06-06-2009 04:07:21 7.4 C 5.81 g/m*3 7.4 C 0 km/h
262 06-06-2009 04:19:21 7.4 C 5.81 g/m*3 7.4 C 0 km/h
263 06-06-2009 04:31:21 7.3 C 5.85 g/m*3 7.3 C 0 km/h
264 06-06-2009 04:43:21 7.1 C 5.77 g/m*3 7.1 C 0 km/h
265 06-06-2009 04:55:21 7.2 C 5.89 g/m*3 7.2 C 0 km/h
266 06-06-2009 05:07:21 7.4 C 5.96 g/m*3 7.4 C 0 km/h
267 06-06-2009 05:19:21 7.6 C 6.04 g/m*3 7.6 C 0 km/h
268 06-06-2009 05:31:21 7.8 C 6.04 g/m*3 7.8 C 0 km/h
269 06-06-2009 05:43:21 8 C 6.04 g/m*3 8 C 0 km/h
270 06-06-2009 05:55:21 8.1 C 6.07 g/m*3 8.1 C 0 km/h
271 06-06-2009 06:07:21 8.2 C 6.11 g/m*3 8.2 C 0 km/h
272 06-06-2009 06:19:21 8.4 C 6.19 g/m*3 8.4 C 0 km/h
273 06-06-2009 06:31:21 8.7 C 6.23 g/m*3 8.7 C 0 km/h
274 06-06-2009 06:43:21 8.7 C 6.05 g/m*3 8.7 C 0 km/h
275 06-06-2009 06:55:21 8.9 C 6.13 g/m*3 8.9 C 0 km/h
Sensor: Nr:Datum:Temp:Abs-Feuchte:Windchill:Wind:
Aussen-T/F 276 06-06-2009 07:07:21 8.9 C 6.13 g/m*3 8.9 C 0 km/h
277 06-06-2009 07:19:21 8.9 C 6.13 g/m*3 8.9 C 0 km/h
278 06-06-2009 07:31:21 8.6 C 6.27 g/m*3 8.6 C 0 km/h
279 06-06-2009 07:43:21 8.6 C 6.44 g/m*3 8.6 C 0 km/h
280 06-06-2009 07:55:21 8.6 C 6.62 g/m*3 8.6 C 0 km/h
281 06-06-2009 08:07:22 8.6 C 6.79 g/m*3 8.6 C 0 km/h
282 06-06-2009 08:19:22 8.6 C 6.96 g/m*3 8.6 C 0 km/h
283 06-06-2009 08:31:22 8.3 C 7.08 g/m*3 8.3 C 0 km/h
284 06-06-2009 08:43:22 8.3 C 7.33 g/m*3 8.3 C 0 km/h
285 06-06-2009 08:55:22 8.2 C 7.37 g/m*3 8.2 C 0 km/h
286 06-06-2009 09:07:19 8.5 C 7.6 g/m*3 8.5 C 0 km/h
287 06-06-2009 09:19:19 8.4 C 7.63 g/m*3 8.4 C 0 km/h
288 06-06-2009 09:31:20 8.7 C 7.78 g/m*3 8.7 C 0 km/h
289 06-06-2009 09:43:20 8.7 C 7.87 g/m*3 8.7 C 0 km/h
290 06-06-2009 09:55:19 8.9 C 7.97 g/m*3 8.9 C 0 km/h
291 06-06-2009 10:07:19 9.1 C 7.99 g/m*3 9.1 C 0 km/h
292 06-06-2009 10:19:19 9.1 C 7.99 g/m*3 9.1 C 0 km/h
293 06-06-2009 10:31:19 8.9 C 7.97 g/m*3 8.9 C 0 km/h
294 06-06-2009 10:43:19 9 C 7.93 g/m*3 9 C 0 km/h
295 06-06-2009 10:55:18 9 C 7.93 g/m*3 9 C 0 km/h
296 06-06-2009 11:07:19 9 C 7.93 g/m*3 9 C 0 km/h
297 06-06-2009 11:19:18 9 C 7.93 g/m*3 9 C 0 km/h
298 06-06-2009 11:31:18 9.2 C 8.13 g/m*3 9.2 C 0 km/h
299 06-06-2009 11:43:18 9.2 C 8.13 g/m*3 9.2 C 0 km/h
300 06-06-2009 11:55:18 9 C 8.02 g/m*3 9 C 0 km/h
Sensor: Nr:Datum:Temp:Abs-Feuchte:Windchill:Wind:
Aussen-T/F 301 06-06-2009 12:07:17 9.2 C 8.13 g/m*3 9.2 C 0 km/h
302 06-06-2009 12:19:18 9.4 C 8.32 g/m*3 9.4 C 0 km/h
303 06-06-2009 12:31:18 9.3 C 8.27 g/m*3 9.3 C 0 km/h
304 06-06-2009 12:43:18 9.3 C 8.27 g/m*3 9.3 C 0 km/h
305 06-06-2009 12:55:17 9.5 C 8.37 g/m*3 9.5 C 0 km/h
306 06-06-2009 13:07:18 9.6 C 8.43 g/m*3 9.6 C 0 km/h
307 06-06-2009 13:19:17 9.7 C 8.48 g/m*3 9.7 C 0 km/h
308 06-06-2009 13:31:17 9.7 C 8.57 g/m*3 9.7 C 0 km/h
309 06-06-2009 13:43:17 9.7 C 8.57 g/m*3 9.7 C 0 km/h
310 06-06-2009 13:55:17 9.6 C 8.52 g/m*3 9.6 C 0 km/h
311 06-06-2009 14:07:17 9.8 C 8.63 g/m*3 9.8 C 0 km/h
312 06-06-2009 14:19:16 9.8 C 8.63 g/m*3 9.8 C 0 km/h
313 06-06-2009 14:31:16 9.8 C 8.63 g/m*3 9.8 C 0 km/h
314 06-06-2009 14:43:16 9.6 C 8.43 g/m*3 9.6 C 0 km/h
315 06-06-2009 14:55:16 9.5 C 8.37 g/m*3 9.5 C 0 km/h
316 06-06-2009 15:07:16 9.5 C 8.37 g/m*3 9.5 C 0 km/h
317 06-06-2009 15:19:15 9.4 C 8.32 g/m*3 9.4 C 0 km/h
318 06-06-2009 15:31:16 9.5 C 8.37 g/m*3 9.5 C 0 km/h
319 06-06-2009 15:43:16 9.7 C 8.57 g/m*3 9.7 C 0 km/h
320 06-06-2009 15:55:15 9.8 C 8.63 g/m*3 9.8 C 0 km/h
321 06-06-2009 16:07:15 10.1 C 8.7 g/m*3 10.1 C 0 km/h
322 06-06-2009 16:19:16 10.1 C 8.7 g/m*3 10.1 C 0 km/h
323 06-06-2009 16:31:15 9.9 C 8.68 g/m*3 9.9 C 0 km/h
324 06-06-2009 16:43:15 10 C 8.64 g/m*3 10 C 0 km/h
325 06-06-2009 16:55:15 9.9 C 8.68 g/m*3 9.9 C 0 km/h
Sensor: Nr:Datum:Temp:Abs-Feuchte:Windchill:Wind:
Aussen-T/F 326 06-06-2009 17:07:15 9.9 C 8.59 g/m*3 9.9 C 0 km/h
327 06-06-2009 17:19:15 9.9 C 8.59 g/m*3 9.9 C 0 km/h
328 06-06-2009 17:31:14 10.1 C 8.61 g/m*3 10.1 C 0 km/h
329 06-06-2009 17:43:14 10.3 C 8.71 g/m*3 10.3 C 0 km/h
330 06-06-2009 17:55:15 10.4 C 8.67 g/m*3 10.4 C 0 km/h
331 06-06-2009 18:07:14 10.5 C 8.73 g/m*3 10.5 C 0 km/h
332 06-06-2009 18:19:14 10.9 C 8.95 g/m*3 10.9 C 0 km/h
333 06-06-2009 18:31:02 10.7 C 8.64 g/m*3 10.7 C 0 km/h
334 06-06-2009 18:43:02 10.8 C 8.7 g/m*3 10.8 C 0 km/h
335 06-06-2009 18:55:01 10.7 C 8.45 g/m*3 10.7 C 0 km/h
336 06-06-2009 19:07:02 10.8 C 8.5 g/m*3 10.8 C 0 km/h
337 06-06-2009 19:19:01 10.9 C 8.45 g/m*3 10.9 C 0 km/h
338 06-06-2009 19:31:01 11.1 C 8.56 g/m*3 11.1 C 0 km/h
339 06-06-2009 19:43:01 11 C 8.51 g/m*3 11 C 0 km/h
340 06-06-2009 19:55:01 10.9 C 8.65 g/m*3 10.9 C 0 km/h
341 06-06-2009 20:07:01 10.5 C 8.34 g/m*3 10.5 C 0 km/h
342 06-06-2009 20:19:00 10.4 C 8.29 g/m*3 10.4 C 0 km/h
343 06-06-2009 20:31:00 10.4 C 8.38 g/m*3 10.4 C 0 km/h
344 06-06-2009 20:43:00 10.4 C 8.38 g/m*3 10.4 C 0 km/h
345 06-06-2009 20:55:00 10.3 C 8.33 g/m*3 10.3 C 0 km/h
346 06-06-2009 21:07:00 10.3 C 8.43 g/m*3 10.3 C 0 km/h
347 06-06-2009 21:18:59 10.2 C 8.37 g/m*3 10.2 C 0 km/h
348 06-06-2009 21:31:00 10.2 C 8.37 g/m*3 10.2 C 0 km/h
349 06-06-2009 21:43:00 10.1 C 8.32 g/m*3 10.1 C 0 km/h
350 06-06-2009 21:55:59 9.8 C 8.26 g/m*3 9.8 C 0 km/h
Sensor: Nr:Datum:Temp:Abs-Feuchte:Windchill:Wind:
Aussen-T/F 351 06-06-2009 22:07:59 9.5 C 8.1 g/m*3 9.5 C 0 km/h
352 06-06-2009 22:19:00 9.4 C 8.14 g/m*3 9.4 C 0 km/h
353 06-06-2009 22:31:59 9.4 C 8.23 g/m*3 9.4 C 0 km/h
354 06-06-2009 22:43:59 9.5 C 8.28 g/m*3 9.5 C 0 km/h
355 06-06-2009 22:55:59 9.6 C 8.43 g/m*3 9.6 C 0 km/h
356 06-06-2009 23:07:59 9.5 C 8.37 g/m*3 9.5 C 0 km/h
357 06-06-2009 23:19:59 9.5 C 8.37 g/m*3 9.5 C 0 km/h
358 06-06-2009 23:31:58 9.2 C 8.13 g/m*3 9.2 C 0 km/h
359 06-06-2009 23:43:58 8.8 C 8.01 g/m*3 8.8 C 0 km/h
360 06-06-2009 23:55:59 8.5 C 7.85 g/m*3 8.5 C 0 km/h
361 07-06-2009 00:07:59 8.5 C 7.85 g/m*3 8.5 C 0 km/h
362 07-06-2009 00:19:59 8.3 C 7.75 g/m*3 8.3 C 0 km/h
363 07-06-2009 00:31:58 8.1 C 7.66 g/m*3 8.1 C 0 km/h
364 07-06-2009 00:43:58 7.9 C 7.64 g/m*3 7.9 C 0 km/h
365 07-06-2009 00:55:58 8 C 7.61 g/m*3 8 C 0 km/h
366 07-06-2009 01:07:57 8 C 7.69 g/m*3 8 C 0 km/h
367 07-06-2009 01:19:58 8 C 7.69 g/m*3 8 C 0 km/h
368 07-06-2009 01:31:58 7.9 C 7.72 g/m*3 7.9 C 0 km/h
369 07-06-2009 01:43:58 7.9 C 7.72 g/m*3 7.9 C 0 km/h
370 07-06-2009 01:55:57 8.1 C 7.74 g/m*3 8.1 C 0 km/h
371 07-06-2009 02:07:58 8.2 C 7.87 g/m*3 8.2 C 0 km/h
372 07-06-2009 02:19:57 8.4 C 7.97 g/m*3 8.4 C 0 km/h
373 07-06-2009 02:31:57 8.4 C 7.97 g/m*3 8.4 C 0 km/h
374 07-06-2009 02:43:57 8.4 C 7.97 g/m*3 8.4 C 0 km/h
375 07-06-2009 02:56:59 8.4 C 7.97 g/m*3 8.4 C 0 km/h
Sensor: Nr:Datum:Temp:Abs-Feuchte:Windchill:Wind:
Aussen-T/F 376 07-06-2009 03:08:59 8.5 C 8.11 g/m*3 8.5 C 0 km/h
377 07-06-2009 03:20:59 8.5 C 8.11 g/m*3 8.5 C 0 km/h
378 07-06-2009 03:32:58 8.5 C 8.11 g/m*3 8.5 C 0 km/h
379 07-06-2009 03:44:58 8.4 C 8.06 g/m*3 8.4 C 0 km/h
380 07-06-2009 03:56:58 8.4 C 8.06 g/m*3 8.4 C 0 km/h
381 07-06-2009 04:08:58 8.5 C 8.11 g/m*3 8.5 C 0 km/h
382 07-06-2009 04:20:58 8.5 C 8.11 g/m*3 8.5 C 0 km/h
383 07-06-2009 04:32:58 8.5 C 8.11 g/m*3 8.5 C 0 km/h
384 07-06-2009 04:44:57 8.5 C 8.11 g/m*3 8.5 C 0 km/h
385 07-06-2009 04:56:57 8.5 C 8.11 g/m*3 8.5 C 0 km/h
386 07-06-2009 05:08:58 8.6 C 8.16 g/m*3 8.6 C 0 km/h
387 07-06-2009 05:20:58 8.6 C 8.16 g/m*3 8.6 C 0 km/h
388 07-06-2009 05:32:57 8.6 C 8.16 g/m*3 8.6 C 0 km/h
389 07-06-2009 05:44:57 8.7 C 8.22 g/m*3 8.7 C 0 km/h
390 07-06-2009 05:56:57 8.8 C 8.27 g/m*3 8.8 C 0 km/h
391 07-06-2009 06:08:57 8.9 C 8.32 g/m*3 8.9 C 0 km/h
392 07-06-2009 06:20:57 9.1 C 8.34 g/m*3 9.1 C 0 km/h
393 07-06-2009 06:32:57 9.3 C 8.45 g/m*3 9.3 C 0 km/h
394 07-06-2009 06:44:57 9.5 C 8.56 g/m*3 9.5 C 0 km/h
395 07-06-2009 06:56:57 9.5 C 8.56 g/m*3 9.5 C 0 km/h
396 07-06-2009 07:08:57 9.6 C 8.61 g/m*3 9.6 C 0 km/h
397 07-06-2009 07:20:56 10 C 8.74 g/m*3 10 C 0 km/h
398 07-06-2009 07:32:57 10.2 C 8.76 g/m*3 10.2 C 0 km/h
399 07-06-2009 07:44:01 10.3 C 8.43 g/m*3 10.3 C 0 km/h
400 07-06-2009 07:56:01 10.7 C 8.45 g/m*3 10.7 C 0 km/h
Sensor: Nr:Datum:Temp:Abs-Feuchte:Windchill:Wind:
Aussen-T/F 401 07-06-2009 08:08:01 11 C 8.01 g/m*3 11 C 0 km/h
402 07-06-2009 08:20:01 11.4 C 8.01 g/m*3 11.4 C 0 km/h
403 07-06-2009 08:32:01 11.7 C 7.84 g/m*3 11.7 C 0 km/h
404 07-06-2009 08:44:01 11.9 C 7.52 g/m*3 11.9 C 0 km/h
405 07-06-2009 08:56:01 12.4 C 7.32 g/m*3 12.4 C 0 km/h
406 07-06-2009 09:08:01 13.1 C 7.42 g/m*3 13.1 C 0 km/h
407 07-06-2009 09:20:01 13.6 C 7.3 g/m*3 13.6 C 0 km/h
408 07-06-2009 09:32:00 14 C 7.48 g/m*3 14 C 0 km/h
409 07-06-2009 09:44:00 14.1 C 7.52 g/m*3 14.1 C 0 km/h
410 07-06-2009 09:56:00 14.3 C 7.62 g/m*3 14.3 C 0 km/h
411 07-06-2009 10:08:00 14.4 C 7.42 g/m*3 14.4 C 0 km/h
412 07-06-2009 10:20:59 14.9 C 7.77 g/m*3 14.9 C 0 km/h
413 07-06-2009 10:32:00 15.5 C 7.93 g/m*3 15.5 C 0 km/h
414 07-06-2009 10:44:00 15.9 C 7.72 g/m*3 15.9 C 0 km/h
415 07-06-2009 10:56:59 16.4 C 7.54 g/m*3 16.4 C 0 km/h
416 07-06-2009 11:08:59 16.9 C 7.91 g/m*3 16.9 C 0 km/h
417 07-06-2009 11:20:00 17.2 C 7.91 g/m*3 17.2 C 0 km/h
418 07-06-2009 11:32:59 17 C 7.81 g/m*3 17 C 0 km/h
419 07-06-2009 11:44:59 16.1 C 7.81 g/m*3 16.1 C 0 km/h
420 07-06-2009 11:56:59 17.5 C 7.9 g/m*3 17.5 C 0 km/h
421 07-06-2009 12:08:59 17.1 C 7.42 g/m*3 17.1 C 0 km/h
422 07-06-2009 12:20:59 17.7 C 7.69 g/m*3 17.7 C 0 km/h
423 07-06-2009 12:32:59 17.3 C 7.81 g/m*3 17.3 C 0 km/h
424 07-06-2009 12:44:58 17.1 C 8.3 g/m*3 17.1 C 0 km/h
425 07-06-2009 12:56:58 16.8 C 8.86 g/m*3 16.8 C 0 km/h
Sensor: Nr:Datum:Temp:Abs-Feuchte:Windchill:Wind:
Aussen-T/F 426 07-06-2009 13:08:59 16.6 C 8.48 g/m*3 16.6 C 0 km/h
427 07-06-2009 13:20:59 16.4 C 8.79 g/m*3 16.4 C 0 km/h
428 07-06-2009 13:32:59 17.4 C 8.89 g/m*3 17.4 C 0 km/h
429 07-06-2009 13:44:58 19.3 C 8.13 g/m*3 19.3 C 0 km/h
430 07-06-2009 13:56:58 19.2 C 7.91 g/m*3 19.2 C 0 km/h
431 07-06-2009 14:08:57 19.4 C 8.34 g/m*3 19.4 C 0 km/h
432 07-06-2009 14:20:58 18.9 C 8.26 g/m*3 18.9 C 0 km/h
433 07-06-2009 14:32:58 18.9 C 8.42 g/m*3 18.9 C 0 km/h
434 07-06-2009 14:44:57 18.7 C 8.65 g/m*3 18.7 C 0 km/h
435 07-06-2009 14:56:57 19.1 C 8.69 g/m*3 19.1 C 0 km/h
436 07-06-2009 15:08:58 19.1 C 8.36 g/m*3 19.1 C 0 km/h
437 07-06-2009 15:20:57 17.3 C 8.99 g/m*3 17.3 C 0 km/h
438 07-06-2009 15:32:58 16 C 10.22 g/m*3 16 C 0 km/h
439 07-06-2009 15:44:57 15.5 C 10.31 g/m*3 15.5 C 0 km/h
440 07-06-2009 15:56:57 15.1 C 10.45 g/m*3 15.1 C 0 km/h
441 07-06-2009 16:08:57 14.8 C 10.64 g/m*3 14.8 C 0 km/h
442 07-06-2009 16:20:56 15.6 C 11.57 g/m*3 15.6 C 0 km/h
443 07-06-2009 16:32:57 16 C 11.72 g/m*3 16 C 0 km/h
444 07-06-2009 16:44:56 16.3 C 11.52 g/m*3 16.3 C 0 km/h
445 07-06-2009 16:56:56 17.2 C 11.57 g/m*3 17.2 C 0 km/h
446 07-06-2009 17:08:56 17.6 C 10.8 g/m*3 17.6 C 0 km/h
447 07-06-2009 17:20:56 18.9 C 10.85 g/m*3 18.9 C 0 km/h
448 07-06-2009 17:32:56 19.5 C 10.07 g/m*3 19.5 C 0 km/h
449 07-06-2009 17:44:56 18.4 C 9.75 g/m*3 18.4 C 0 km/h
450 07-06-2009 17:56:56 18.3 C 9.85 g/m*3 18.3 C 0 km/h
Sensor: Nr:Datum:Temp:Abs-Feuchte:Windchill:Wind:
Aussen-T/F 451 07-06-2009 18:08:55 18.8 C 9.34 g/m*3 18.8 C 0 km/h
452 07-06-2009 18:20:56 17.3 C 7.51 g/m*3 17.3 C 0 km/h
453 07-06-2009 18:32:55 17 C 8.54 g/m*3 17 C 0 km/h
454 07-06-2009 18:44:55 18 C 8.29 g/m*3 18 C 0 km/h
455 07-06-2009 18:56:55 19.2 C 7.75 g/m*3 19.2 C 0 km/h
456 07-06-2009 19:08:55 20.4 C 7.61 g/m*3 20.4 C 0 km/h
457 07-06-2009 19:20:55 20.4 C 7.25 g/m*3 20.4 C 0 km/h
458 07-06-2009 19:32:55 20.3 C 7.03 g/m*3 20.3 C 0 km/h
459 07-06-2009 19:44:55 19.8 C 7.34 g/m*3 19.8 C 0 km/h
460 07-06-2009 19:56:55 20.3 C 7.39 g/m*3 20.3 C 0 km/h
461 07-06-2009 20:08:54 20.3 C 7.39 g/m*3 20.3 C 0 km/h
462 07-06-2009 20:20:55 20 C 7.09 g/m*3 20 C 0 km/h
463 07-06-2009 20:32:54 18.7 C 6.88 g/m*3 18.7 C 0 km/h
464 07-06-2009 20:44:54 17.6 C 7.05 g/m*3 17.6 C 0 km/h
465 07-06-2009 20:56:55 16.6 C 7.06 g/m*3 16.6 C 0 km/h
466 07-06-2009 21:08:53 16.1 C 6.99 g/m*3 16.1 C 0 km/h
467 07-06-2009 21:20:54 15.8 C 7.54 g/m*3 15.8 C 0 km/h
468 07-06-2009 21:32:54 15.2 C 7.79 g/m*3 15.2 C 0 km/h
469 07-06-2009 21:44:53 14.7 C 7.93 g/m*3 14.7 C 0 km/h
470 07-06-2009 21:56:53 14.1 C 7.77 g/m*3 14.1 C 0 km/h
471 07-06-2009 22:09:55 13.5 C 7.37 g/m*3 13.5 C 0 km/h
472 07-06-2009 22:21:55 13 C 7.03 g/m*3 13 C 0 km/h
473 07-06-2009 22:33:55 12.7 C 7.01 g/m*3 12.7 C 0 km/h
474 07-06-2009 22:45:55 12.5 C 6.93 g/m*3 12.5 C 0 km/h
475 07-06-2009 22:57:55 12.3 C 6.84 g/m*3 12.3 C 0 km/h
Sensor: Nr:Datum:Temp:Abs-Feuchte:Windchill:Wind:
Aussen-T/F 476 07-06-2009 23:09:55 12 C 6.71 g/m*3 12 C 0 km/h
477 07-06-2009 23:21:55 11.8 C 6.84 g/m*3 11.8 C 0 km/h
478 07-06-2009 23:33:55 11.6 C 6.96 g/m*3 11.6 C 0 km/h
479 07-06-2009 23:45:55 11.5 C 7.02 g/m*3 11.5 C 0 km/h
480 07-06-2009 23:57:55 11.3 C 7.04 g/m*3 11.3 C 0 km/h
481 08-06-2009 00:09:55 11.2 C 7.1 g/m*3 11.2 C 0 km/h
482 08-06-2009 00:21:55 11.3 C 7.14 g/m*3 11.3 C 0 km/h
483 08-06-2009 00:33:55 10.8 C 7.12 g/m*3 10.8 C 0 km/h
484 08-06-2009 00:45:55 10.6 C 7.22 g/m*3 10.6 C 0 km/h
485 08-06-2009 00:57:56 10.7 C 7.17 g/m*3 10.7 C 0 km/h
486 08-06-2009 01:09:56 10.7 C 7.07 g/m*3 10.7 C 0 km/h
487 08-06-2009 01:21:56 10.4 C 7.04 g/m*3 10.4 C 0 km/h
488 08-06-2009 01:33:56 10.1 C 7.09 g/m*3 10.1 C 0 km/h
489 08-06-2009 01:45:56 10.2 C 6.95 g/m*3 10.2 C 0 km/h
490 08-06-2009 01:57:56 10.6 C 6.83 g/m*3 10.6 C 0 km/h
491 08-06-2009 02:09:56 11.4 C 6.57 g/m*3 11.4 C 0 km/h
492 08-06-2009 02:21:56 11.7 C 6.69 g/m*3 11.7 C 0 km/h
493 08-06-2009 02:33:56 11.6 C 6.76 g/m*3 11.6 C 0 km/h
494 08-06-2009 02:45:56 11.6 C 6.76 g/m*3 11.6 C 0 km/h
495 08-06-2009 02:57:56 11.8 C 6.84 g/m*3 11.8 C 0 km/h
496 08-06-2009 03:09:56 11 C 7.41 g/m*3 11 C 0 km/h
497 08-06-2009 03:21:56 10.9 C 7.76 g/m*3 10.9 C 0 km/h
498 08-06-2009 03:33:56 11.2 C 7.8 g/m*3 11.2 C 0 km/h
499 08-06-2009 03:45:56 11.1 C 7.66 g/m*3 11.1 C 0 km/h
500 08-06-2009 03:57:56 11 C 7.61 g/m*3 11 C 0 km/h
Sensor: Nr:Datum:Temp:Abs-Feuchte:Windchill:Wind:
Aussen-T/F 501 08-06-2009 04:09:56 11.1 C 7.76 g/m*3 11.1 C 0 km/h
502 08-06-2009 04:21:56 11.1 C 7.76 g/m*3 11.1 C 0 km/h
503 08-06-2009 04:33:56 11.1 C 7.76 g/m*3 11.1 C 0 km/h
504 08-06-2009 04:45:56 11.1 C 7.76 g/m*3 11.1 C 0 km/h
505 08-06-2009 04:57:57 11.1 C 7.86 g/m*3 11.1 C 0 km/h
506 08-06-2009 05:09:57 11.2 C 7.91 g/m*3 11.2 C 0 km/h
507 08-06-2009 05:21:57 11.2 C 7.8 g/m*3 11.2 C 0 km/h
508 08-06-2009 05:33:57 11.2 C 7.91 g/m*3 11.2 C 0 km/h
509 08-06-2009 05:45:57 11.3 C 7.96 g/m*3 11.3 C 0 km/h
510 08-06-2009 05:57:57 11.5 C 7.75 g/m*3 11.5 C 0 km/h
511 08-06-2009 06:09:57 11.5 C 7.85 g/m*3 11.5 C 0 km/h
512 08-06-2009 06:21:57 11.5 C 7.85 g/m*3 11.5 C 0 km/h
513 08-06-2009 06:33:57 11.5 C 7.85 g/m*3 11.5 C 0 km/h
514 08-06-2009 06:45:55 11.5 C 8.06 g/m*3 11.5 C 0 km/h
515 08-06-2009 06:57:55 11.5 C 7.95 g/m*3 11.5 C 0 km/h
516 08-06-2009 07:09:54 11.8 C 8 g/m*3 11.8 C 0 km/h
517 08-06-2009 07:21:54 12 C 7.99 g/m*3 12 C 0 km/h
518 08-06-2009 07:33:54 12.3 C 8.25 g/m*3 12.3 C 0 km/h
519 08-06-2009 07:45:54 12.2 C 7.99 g/m*3 12.2 C 0 km/h
520 08-06-2009 07:57:54 12.3 C 7.82 g/m*3 12.3 C 0 km/h
521 08-06-2009 08:09:53 12.5 C 7.7 g/m*3 12.5 C 0 km/h
522 08-06-2009 08:21:54 12.7 C 7.57 g/m*3 12.7 C 0 km/h
523 08-06-2009 08:33:54 12.9 C 7.33 g/m*3 12.9 C 0 km/h
524 08-06-2009 08:45:53 13.2 C 7.46 g/m*3 13.2 C 0 km/h
525 08-06-2009 08:57:53 13.5 C 7.37 g/m*3 13.5 C 0 km/h
Sensor: Nr:Datum:Temp:Abs-Feuchte:Windchill:Wind:
Aussen-T/F 526 08-06-2009 09:09:53 13.8 C 7.15 g/m*3 13.8 C 0 km/h
527 08-06-2009 09:21:53 14.1 C 7.04 g/m*3 14.1 C 0 km/h
528 08-06-2009 09:33:53 14.6 C 6.88 g/m*3 14.6 C 0 km/h
529 08-06-2009 09:45:53 14.8 C 6.84 g/m*3 14.8 C 0 km/h
530 08-06-2009 09:57:53 15 C 6.67 g/m*3 15 C 0 km/h
531 08-06-2009 10:09:53 15.6 C 6.78 g/m*3 15.6 C 0 km/h
532 08-06-2009 10:21:52 15.9 C 6.37 g/m*3 15.9 C 0 km/h
533 08-06-2009 10:33:52 16.4 C 6.42 g/m*3 16.4 C 0 km/h
534 08-06-2009 10:45:52 16.5 C 6.18 g/m*3 16.5 C 0 km/h
535 08-06-2009 10:57:52 16.6 C 6.07 g/m*3 16.6 C 0 km/h
536 08-06-2009 11:09:52 17.7 C 6.49 g/m*3 17.7 C 0 km/h
537 08-06-2009 11:21:51 17.3 C 5.75 g/m*3 17.3 C 0 km/h
538 08-06-2009 11:33:52 17 C 6.08 g/m*3 17 C 0 km/h
539 08-06-2009 11:45:51 17.6 C 6.15 g/m*3 17.6 C 0 km/h
540 08-06-2009 11:57:51 18.1 C 6.03 g/m*3 18.1 C 0 km/h
541 08-06-2009 12:09:52 17.6 C 6 g/m*3 17.6 C 0 km/h
542 08-06-2009 12:21:51 20 C 6.22 g/m*3 20 C 0 km/h
543 08-06-2009 12:33:51 18.6 C 5.89 g/m*3 18.6 C 0 km/h
544 08-06-2009 12:45:51 20.2 C 6.12 g/m*3 20.2 C 0 km/h
545 08-06-2009 12:57:51 19.6 C 5.74 g/m*3 19.6 C 0 km/h
546 08-06-2009 13:09:51 21.6 C 4.74 g/m*3 21.6 C 0 km/h
547 08-06-2009 13:21:50 21.5 C 5.47 g/m*3 21.5 C 0 km/h
548 08-06-2009 13:33:51 20.9 C 5.1 g/m*3 20.9 C 0 km/h
549 08-06-2009 13:45:51 20.3 C 5.28 g/m*3 20.3 C 0 km/h
550 08-06-2009 13:57:51 21.4 C 5.06 g/m*3 21.4 C 0 km/h
Sensor: Nr:Datum:Temp:Abs-Feuchte:Windchill:Wind:
Aussen-T/F 551 08-06-2009 14:09:50 21.7 C 4.39 g/m*3 21.7 C 0 km/h
552 08-06-2009 14:21:50 21.5 C 4.71 g/m*3 21.5 C 0 km/h
553 08-06-2009 14:33:50 21.9 C 5.02 g/m*3 21.9 C 0 km/h
554 08-06-2009 14:45:50 21.7 C 4.96 g/m*3 21.7 C 0 km/h
555 08-06-2009 14:57:50 22.1 C 4.88 g/m*3 22.1 C 0 km/h
556 08-06-2009 15:09:49 22.9 C 5.11 g/m*3 22.9 C 0 km/h
557 08-06-2009 15:21:50 23 C 4.32 g/m*3 23 C 0 km/h
558 08-06-2009 15:33:50 22.7 C 4.24 g/m*3 22.7 C 0 km/h
559 08-06-2009 15:45:49 23.8 C 4.73 g/m*3 23.8 C 0 km/h
560 08-06-2009 15:57:49 23.3 C 4.39 g/m*3 23.3 C 0 km/h
561 08-06-2009 16:09:50 23.7 C 4.49 g/m*3 23.7 C 0 km/h
562 08-06-2009 16:21:49 24.7 C 4.53 g/m*3 24.7 C 0 km/h
563 08-06-2009 16:33:49 23.5 C 4.65 g/m*3 23.5 C 0 km/h
564 08-06-2009 16:45:49 23.2 C 4.57 g/m*3 23.2 C 0 km/h
565 08-06-2009 16:57:49 23.9 C 4.76 g/m*3 23.9 C 0 km/h
566 08-06-2009 17:09:49 23.8 C 4.73 g/m*3 23.8 C 0 km/h
567 08-06-2009 17:21:48 24.4 C 4.9 g/m*3 24.4 C 0 km/h
568 08-06-2009 17:33:48 24.3 C 5.09 g/m*3 24.3 C 0 km/h
569 08-06-2009 17:45:48 25.1 C 4.86 g/m*3 25.1 C 0 km/h
570 08-06-2009 17:57:48 24.1 C 4.81 g/m*3 24.1 C 0 km/h
571 08-06-2009 18:09:48 23.9 C 5.41 g/m*3 23.9 C 0 km/h
572 08-06-2009 18:21:48 23.7 C 5.99 g/m*3 23.7 C 0 km/h
573 08-06-2009 18:33:48 23.5 C 6.77 g/m*3 23.5 C 0 km/h
574 08-06-2009 18:45:48 22.8 C 7.32 g/m*3 22.8 C 0 km/h
575 08-06-2009 18:57:48 22.1 C 7.42 g/m*3 22.1 C 0 km/h
Sensor: Nr:Datum:Temp:Abs-Feuchte:Windchill:Wind:
Aussen-T/F 576 08-06-2009 19:09:47 21.6 C 7.59 g/m*3 21.6 C 0 km/h
577 08-06-2009 19:21:48 21 C 7.14 g/m*3 21 C 0 km/h
578 08-06-2009 19:33:47 20.8 C 7.6 g/m*3 20.8 C 0 km/h
579 08-06-2009 19:45:47 20.6 C 7.52 g/m*3 20.6 C 0 km/h
580 08-06-2009 19:57:48 20.4 C 7.61 g/m*3 20.4 C 0 km/h
581 08-06-2009 20:09:47 20.1 C 7.82 g/m*3 20.1 C 0 km/h
582 08-06-2009 20:21:47 19.8 C 8.03 g/m*3 19.8 C 0 km/h
583 08-06-2009 20:33:47 19.3 C 7.96 g/m*3 19.3 C 0 km/h
584 08-06-2009 20:45:47 18.8 C 8.05 g/m*3 18.8 C 0 km/h
585 08-06-2009 20:57:47 18.5 C 7.91 g/m*3 18.5 C 0 km/h
586 08-06-2009 21:09:47 18.2 C 7.77 g/m*3 18.2 C 0 km/h
587 08-06-2009 21:21:46 17.9 C 7.79 g/m*3 17.9 C 0 km/h
588 08-06-2009 21:33:46 17.6 C 8.1 g/m*3 17.6 C 0 km/h
589 08-06-2009 21:45:46 16.7 C 8.67 g/m*3 16.7 C 0 km/h
590 08-06-2009 21:57:46 16.6 C 8.9 g/m*3 16.6 C 0 km/h
591 08-06-2009 22:09:46 16.4 C 8.79 g/m*3 16.4 C 0 km/h
592 08-06-2009 22:21:46 16.6 C 8.76 g/m*3 16.6 C 0 km/h
593 08-06-2009 22:33:45 16.5 C 8.57 g/m*3 16.5 C 0 km/h
594 08-06-2009 22:46:46 16.4 C 8.51 g/m*3 16.4 C 0 km/h
595 08-06-2009 22:58:46 16.3 C 8.46 g/m*3 16.3 C 0 km/h
596 08-06-2009 23:10:46 16.4 C 8.51 g/m*3 16.4 C 0 km/h
597 08-06-2009 23:22:46 16.4 C 8.37 g/m*3 16.4 C 0 km/h
598 08-06-2009 23:34:46 16.5 C 8.43 g/m*3 16.5 C 0 km/h
599 08-06-2009 23:46:46 16.3 C 8.88 g/m*3 16.3 C 0 km/h
600 08-06-2009 23:58:46 16 C 8.99 g/m*3 16 C 0 km/h
Sensor: Nr:Datum:Temp:Abs-Feuchte:Windchill:Wind:
Aussen-T/F 601 09-06-2009 00:10:46 15.8 C 9.42 g/m*3 15.8 C 0 km/h
602 09-06-2009 00:22:46 15.4 C 9.59 g/m*3 15.4 C 0 km/h
603 09-06-2009 00:34:46 15.4 C 9.99 g/m*3 15.4 C 0 km/h
604 09-06-2009 00:46:46 15 C 10 g/m*3 15 C 0 km/h
605 09-06-2009 00:58:46 14.8 C 10.01 g/m*3 14.8 C 0 km/h
606 09-06-2009 01:10:46 14.6 C 10.14 g/m*3 14.6 C 0 km/h
607 09-06-2009 01:22:47 14.5 C 10.07 g/m*3 14.5 C 0 km/h
608 09-06-2009 01:34:47 14.6 C 10.26 g/m*3 14.6 C 0 km/h
609 09-06-2009 01:46:47 14.5 C 10.32 g/m*3 14.5 C 0 km/h
610 09-06-2009 01:58:47 14.6 C 10.26 g/m*3 14.6 C 0 km/h
611 09-06-2009 02:10:47 14.6 C 10.14 g/m*3 14.6 C 0 km/h
612 09-06-2009 02:22:47 14.7 C 10.2 g/m*3 14.7 C 0 km/h
613 09-06-2009 02:34:47 14.6 C 10.01 g/m*3 14.6 C 0 km/h
614 09-06-2009 02:46:47 14.3 C 9.95 g/m*3 14.3 C 0 km/h
615 09-06-2009 02:58:47 14.3 C 9.95 g/m*3 14.3 C 0 km/h
616 09-06-2009 03:10:47 14.4 C 10.01 g/m*3 14.4 C 0 km/h
617 09-06-2009 03:22:47 14.5 C 10.07 g/m*3 14.5 C 0 km/h
618 09-06-2009 03:34:47 14.5 C 10.07 g/m*3 14.5 C 0 km/h
619 09-06-2009 03:46:47 14.4 C 9.89 g/m*3 14.4 C 0 km/h
620 09-06-2009 03:58:47 14.4 C 9.89 g/m*3 14.4 C 0 km/h
621 09-06-2009 04:10:47 14.4 C 9.89 g/m*3 14.4 C 0 km/h
622 09-06-2009 04:22:47 14.4 C 10.01 g/m*3 14.4 C 0 km/h
623 09-06-2009 04:34:47 14.5 C 9.95 g/m*3 14.5 C 0 km/h
624 09-06-2009 04:46:47 14.6 C 9.89 g/m*3 14.6 C 0 km/h
625 09-06-2009 04:58:47 14.6 C 9.89 g/m*3 14.6 C 0 km/h
Sensor: Nr:Datum:Temp:Abs-Feuchte:Windchill:Wind:
Aussen-T/F 626 09-06-2009 05:10:48 14.5 C 9.83 g/m*3 14.5 C 0 km/h
627 09-06-2009 05:22:48 14.2 C 9.89 g/m*3 14.2 C 0 km/h
628 09-06-2009 05:34:48 14.1 C 10.07 g/m*3 14.1 C 0 km/h
629 09-06-2009 05:46:48 14 C 10.13 g/m*3 14 C 0 km/h
630 09-06-2009 05:58:48 14.1 C 10.32 g/m*3 14.1 C 0 km/h
631 09-06-2009 06:10:48 14 C 10.37 g/m*3 14 C 0 km/h
632 09-06-2009 06:22:48 14.1 C 10.56 g/m*3 14.1 C 0 km/h
633 09-06-2009 06:34:48 14.1 C 10.56 g/m*3 14.1 C 0 km/h
634 09-06-2009 06:46:48 14.1 C 10.56 g/m*3 14.1 C 0 km/h
635 09-06-2009 06:58:48 14.2 C 10.62 g/m*3 14.2 C 0 km/h
636 09-06-2009 07:10:48 14.3 C 10.44 g/m*3 14.3 C 0 km/h
637 09-06-2009 07:22:46 14.6 C 10.51 g/m*3 14.6 C 0 km/h
638 09-06-2009 07:34:01 14.8 C 10.64 g/m*3 14.8 C 0 km/h
639 09-06-2009 07:46:01 15 C 10.64 g/m*3 15 C 0 km/h
640 09-06-2009 07:58:01 15 C 10.26 g/m*3 15 C 0 km/h
641 09-06-2009 08:10:01 15.2 C 9.48 g/m*3 15.2 C 0 km/h
642 09-06-2009 08:22:01 15.2 C 9.22 g/m*3 15.2 C 0 km/h
643 09-06-2009 08:34:01 15.2 C 9.09 g/m*3 15.2 C 0 km/h
644 09-06-2009 08:46:01 15.3 C 9.53 g/m*3 15.3 C 0 km/h
645 09-06-2009 08:58:01 15.4 C 9.59 g/m*3 15.4 C 0 km/h
646 09-06-2009 09:10:00 15.4 C 9.59 g/m*3 15.4 C 0 km/h
647 09-06-2009 09:22:01 15.5 C 9.65 g/m*3 15.5 C 0 km/h
648 09-06-2009 09:34:00 15.9 C 9.48 g/m*3 15.9 C 0 km/h
649 09-06-2009 09:46:00 16.5 C 9.55 g/m*3 16.5 C 0 km/h
650 09-06-2009 09:58:01 16.8 C 8.86 g/m*3 16.8 C 0 km/h
Sensor: Nr:Datum:Temp:Abs-Feuchte:Windchill:Wind:
Aussen-T/F 651 09-06-2009 10:10:00 16.8 C 8.72 g/m*3 16.8 C 0 km/h
652 09-06-2009 10:22:00 16.9 C 8.63 g/m*3 16.9 C 0 km/h
653 09-06-2009 10:34:00 17.7 C 8.9 g/m*3 17.7 C 0 km/h
654 09-06-2009 10:45:59 18.1 C 8.34 g/m*3 18.1 C 0 km/h
655 09-06-2009 10:57:59 18.6 C 8.12 g/m*3 18.6 C 0 km/h
656 09-06-2009 11:10:00 18.5 C 7.91 g/m*3 18.5 C 0 km/h
657 09-06-2009 11:22:59 19.4 C 7.67 g/m*3 19.4 C 0 km/h
658 09-06-2009 11:34:59 20.1 C 7.47 g/m*3 20.1 C 0 km/h
659 09-06-2009 11:46:59 19.9 C 7.39 g/m*3 19.9 C 0 km/h
660 09-06-2009 11:58:59 20.8 C 7.06 g/m*3 20.8 C 0 km/h
661 09-06-2009 12:10:59 21.5 C 6.98 g/m*3 21.5 C 0 km/h
662 09-06-2009 12:22:59 21.9 C 7.14 g/m*3 21.9 C 0 km/h
663 09-06-2009 12:34:58 21.1 C 7 g/m*3 21.1 C 0 km/h
664 09-06-2009 12:46:59 22.5 C 6.99 g/m*3 22.5 C 0 km/h
665 09-06-2009 12:58:59 22.9 C 6.34 g/m*3 22.9 C 0 km/h
666 09-06-2009 13:10:58 23.3 C 6.48 g/m*3 23.3 C 0 km/h
667 09-06-2009 13:22:58 21.5 C 6.98 g/m*3 21.5 C 0 km/h
668 09-06-2009 13:34:58 21.5 C 6.79 g/m*3 21.5 C 0 km/h
669 09-06-2009 13:46:58 23.7 C 6.42 g/m*3 23.7 C 0 km/h
670 09-06-2009 13:58:59 22.3 C 6.52 g/m*3 22.3 C 0 km/h
671 09-06-2009 14:10:57 23.6 C 6.59 g/m*3 23.6 C 0 km/h
672 09-06-2009 14:22:57 24.2 C 6.6 g/m*3 24.2 C 0 km/h
673 09-06-2009 14:34:58 24.9 C 6.64 g/m*3 24.9 C 0 km/h
674 09-06-2009 14:46:01 23.8 C 6.67 g/m*3 23.8 C 0 km/h
675 09-06-2009 14:58:01 21.6 C 7.78 g/m*3 21.6 C 0 km/h
Sensor: Nr:Datum:Temp:Abs-Feuchte:Windchill:Wind:
Aussen-T/F 676 09-06-2009 15:10:01 19.3 C 8.63 g/m*3 19.3 C 0 km/h
677 09-06-2009 15:22:01 19.9 C 11.51 g/m*3 19.9 C 0 km/h
678 09-06-2009 15:34:01 21.9 C 10.81 g/m*3 21.9 C 0 km/h
679 09-06-2009 15:46:01 23.2 C 9.36 g/m*3 23.2 C 0 km/h
680 09-06-2009 15:58:01 21.7 C 10.49 g/m*3 21.7 C 0 km/h
681 09-06-2009 16:10:01 22.3 C 9.08 g/m*3 22.3 C 0 km/h
682 09-06-2009 16:22:00 23.9 C 8.22 g/m*3 23.9 C 0 km/h
683 09-06-2009 16:34:00 24.5 C 7.16 g/m*3 24.5 C 0 km/h
684 09-06-2009 16:46:00 24.8 C 6.83 g/m*3 24.8 C 0 km/h
685 09-06-2009 16:58:00 24.9 C 7.1 g/m*3 24.9 C 0 km/h
686 09-06-2009 17:10:00 26.1 C 7.1 g/m*3 26.1 C 0 km/h
687 09-06-2009 17:22:59 25.5 C 7.34 g/m*3 25.5 C 0 km/h
688 09-06-2009 17:34:00 25.3 C 7.02 g/m*3 25.3 C 0 km/h
689 09-06-2009 17:46:00 25.4 C 7.06 g/m*3 25.4 C 0 km/h
690 09-06-2009 17:58:00 24.4 C 7.12 g/m*3 24.4 C 0 km/h
691 09-06-2009 18:10:59 23.3 C 7.53 g/m*3 23.3 C 0 km/h
692 09-06-2009 18:22:00 21.9 C 7.72 g/m*3 21.9 C 0 km/h
693 09-06-2009 18:34:59 20 C 7.09 g/m*3 20 C 0 km/h
694 09-06-2009 18:46:59 19.2 C 7.42 g/m*3 19.2 C 0 km/h
695 09-06-2009 18:58:59 20.5 C 7.83 g/m*3 20.5 C 0 km/h
696 09-06-2009 19:10:59 20.4 C 7.61 g/m*3 20.4 C 0 km/h
697 09-06-2009 19:22:59 19.9 C 7.9 g/m*3 19.9 C 0 km/h
698 09-06-2009 19:34:59 19.7 C 8.15 g/m*3 19.7 C 0 km/h
699 09-06-2009 19:46:58 17.5 C 8.95 g/m*3 17.5 C 0 km/h
700 09-06-2009 19:58:58 16.5 C 10.11 g/m*3 16.5 C 0 km/h
Sensor: Nr:Datum:Temp:Abs-Feuchte:Windchill:Wind:
Aussen-T/F 701 09-06-2009 20:10:59 17.9 C 10.08 g/m*3 17.9 C 0 km/h
702 09-06-2009 20:22:58 18.9 C 9.4 g/m*3 18.9 C 0 km/h
703 09-06-2009 20:34:58 19.7 C 9 g/m*3 19.7 C 0 km/h
704 09-06-2009 20:46:58 19.3 C 8.96 g/m*3 19.3 C 0 km/h
705 09-06-2009 20:58:58 18.8 C 8.54 g/m*3 18.8 C 0 km/h
706 09-06-2009 21:10:58 18.4 C 8.81 g/m*3 18.4 C 0 km/h
707 09-06-2009 21:22:57 17.9 C 9.47 g/m*3 17.9 C 0 km/h
708 09-06-2009 21:34:58 17.2 C 8.93 g/m*3 17.2 C 0 km/h
709 09-06-2009 21:46:57 16.7 C 9.1 g/m*3 16.7 C 0 km/h
710 09-06-2009 21:58:57 16.3 C 9.16 g/m*3 16.3 C 0 km/h
711 09-06-2009 22:10:57 16 C 9.26 g/m*3 16 C 0 km/h
712 09-06-2009 22:23:58 15.7 C 9.37 g/m*3 15.7 C 0 km/h
713 09-06-2009 22:35:58 15.6 C 9.44 g/m*3 15.6 C 0 km/h
714 09-06-2009 22:47:58 15.8 C 9.29 g/m*3 15.8 C 0 km/h
715 09-06-2009 22:59:58 15.6 C 9.18 g/m*3 15.6 C 0 km/h
716 09-06-2009 23:11:58 15.4 C 9.33 g/m*3 15.4 C 0 km/h
717 09-06-2009 23:23:58 15.2 C 9.35 g/m*3 15.2 C 0 km/h
718 09-06-2009 23:35:58 15 C 9.23 g/m*3 15 C 0 km/h
719 09-06-2009 23:47:58 14.5 C 9.2 g/m*3 14.5 C 0 km/h
720 09-06-2009 23:59:58 14.4 C 9.27 g/m*3 14.4 C 0 km/h
721 10-06-2009 00:11:58 14.4 C 9.39 g/m*3 14.4 C 0 km/h
722 10-06-2009 00:23:58 14 C 9.05 g/m*3 14 C 0 km/h
723 10-06-2009 00:35:59 14 C 9.17 g/m*3 14 C 0 km/h
724 10-06-2009 00:47:59 13.8 C 9.29 g/m*3 13.8 C 0 km/h
725 10-06-2009 00:59:59 13.8 C 9.29 g/m*3 13.8 C 0 km/h
Sensor: Nr:Datum:Temp:Abs-Feuchte:Windchill:Wind:
Aussen-T/F 726 10-06-2009 01:11:59 14 C 9.29 g/m*3 14 C 0 km/h
727 10-06-2009 01:23:59 14.4 C 9.39 g/m*3 14.4 C 0 km/h
728 10-06-2009 01:35:59 14.9 C 9.3 g/m*3 14.9 C 0 km/h
729 10-06-2009 01:47:59 15.4 C 8.93 g/m*3 15.4 C 0 km/h
730 10-06-2009 01:59:59 15.6 C 8.91 g/m*3 15.6 C 0 km/h
731 10-06-2009 02:11:59 15.4 C 8.8 g/m*3 15.4 C 0 km/h
732 10-06-2009 02:23:59 15.4 C 8.8 g/m*3 15.4 C 0 km/h
733 10-06-2009 02:35:59 15.5 C 8.86 g/m*3 15.5 C 0 km/h
734 10-06-2009 02:47:59 15.4 C 8.8 g/m*3 15.4 C 0 km/h
735 10-06-2009 02:59:59 15.1 C 8.77 g/m*3 15.1 C 0 km/h
736 10-06-2009 03:11:59 14.9 C 9.05 g/m*3 14.9 C 0 km/h
737 10-06-2009 03:23:59 15 C 8.98 g/m*3 15 C 0 km/h
738 10-06-2009 03:35:59 14.8 C 8.99 g/m*3 14.8 C 0 km/h
739 10-06-2009 03:47:59 14.8 C 9.12 g/m*3 14.8 C 0 km/h
740 10-06-2009 03:58:59 14.7 C 9.07 g/m*3 14.7 C 0 km/h
741 10-06-2009 04:10:59 14.5 C 8.95 g/m*3 14.5 C 0 km/h
742 10-06-2009 04:22:59 14.4 C 9.02 g/m*3 14.4 C 0 km/h
743 10-06-2009 04:35:00 14.4 C 9.02 g/m*3 14.4 C 0 km/h
744 10-06-2009 04:47:00 14.6 C 9.13 g/m*3 14.6 C 0 km/h
745 10-06-2009 04:59:00 14.4 C 9.02 g/m*3 14.4 C 0 km/h
746 10-06-2009 05:11:00 14.4 C 9.15 g/m*3 14.4 C 0 km/h
747 10-06-2009 05:23:00 14.4 C 9.27 g/m*3 14.4 C 0 km/h
748 10-06-2009 05:35:00 14.4 C 9.27 g/m*3 14.4 C 0 km/h
749 10-06-2009 05:47:00 14.4 C 9.27 g/m*3 14.4 C 0 km/h
750 10-06-2009 05:59:00 14.5 C 9.2 g/m*3 14.5 C 0 km/h
Sensor: Nr:Datum:Temp:Abs-Feuchte:Windchill:Wind:
Aussen-T/F 751 10-06-2009 06:11:00 14.4 C 9.15 g/m*3 14.4 C 0 km/h
752 10-06-2009 06:23:00 14.5 C 9.2 g/m*3 14.5 C 0 km/h
753 10-06-2009 06:35:00 14.8 C 9.37 g/m*3 14.8 C 0 km/h
754 10-06-2009 06:47:00 14.9 C 9.3 g/m*3 14.9 C 0 km/h
755 10-06-2009 06:59:00 15.1 C 9.16 g/m*3 15.1 C 0 km/h
756 10-06-2009 07:11:59 15.2 C 9.09 g/m*3 15.2 C 0 km/h
757 10-06-2009 07:23:58 15.4 C 9.2 g/m*3 15.4 C 0 km/h
758 10-06-2009 07:35:58 15.6 C 9.18 g/m*3 15.6 C 0 km/h
759 10-06-2009 07:47:58 15.8 C 9.29 g/m*3 15.8 C 0 km/h
760 10-06-2009 07:59:58 16.1 C 9.18 g/m*3 16.1 C 0 km/h
761 10-06-2009 08:11:58 16.2 C 8.96 g/m*3 16.2 C 0 km/h
762 10-06-2009 08:23:57 16.5 C 9.13 g/m*3 16.5 C 0 km/h
763 10-06-2009 08:35:58 16.7 C 9.1 g/m*3 16.7 C 0 km/h
764 10-06-2009 08:47:57 16.8 C 9.15 g/m*3 16.8 C 0 km/h
765 10-06-2009 08:59:57 16.7 C 9.1 g/m*3 16.7 C 0 km/h
766 10-06-2009 09:11:57 17.1 C 8.88 g/m*3 17.1 C 0 km/h
767 10-06-2009 09:23:58 16.9 C 8.92 g/m*3 16.9 C 0 km/h
768 10-06-2009 09:35:57 16.5 C 9.13 g/m*3 16.5 C 0 km/h
769 10-06-2009 09:47:57 15.6 C 9.58 g/m*3 15.6 C 0 km/h
770 10-06-2009 09:59:57 15.2 C 9.73 g/m*3 15.2 C 0 km/h
771 10-06-2009 10:11:56 14.9 C 10.07 g/m*3 14.9 C 0 km/h
772 10-06-2009 10:23:57 14.6 C 10.01 g/m*3 14.6 C 0 km/h
773 10-06-2009 10:35:56 15 C 10.39 g/m*3 15 C 0 km/h
774 10-06-2009 10:47:56 15.3 C 10.45 g/m*3 15.3 C 0 km/h
775 10-06-2009 10:59:57 15.7 C 10.3 g/m*3 15.7 C 0 km/h
Sensor: Nr:Datum:Temp:Abs-Feuchte:Windchill:Wind:
Aussen-T/F 776 10-06-2009 11:11:56 16.2 C 10.2 g/m*3 16.2 C 0 km/h
777 10-06-2009 11:23:56 16.9 C 10.36 g/m*3 16.9 C 0 km/h
778 10-06-2009 11:35:56 17.3 C 10.02 g/m*3 17.3 C 0 km/h
779 10-06-2009 11:47:56 18.3 C 9.85 g/m*3 18.3 C 0 km/h
780 10-06-2009 11:59:56 18.4 C 9.75 g/m*3 18.4 C 0 km/h
781 10-06-2009 12:11:56 19 C 9.45 g/m*3 19 C 0 km/h
782 10-06-2009 12:23:55 19.9 C 8.93 g/m*3 19.9 C 0 km/h
783 10-06-2009 12:35:55 20.1 C 8.17 g/m*3 20.1 C 0 km/h
784 10-06-2009 12:47:55 20.3 C 7.91 g/m*3 20.3 C 0 km/h
785 10-06-2009 12:59:55 19.4 C 7.84 g/m*3 19.4 C 0 km/h
786 10-06-2009 13:11:55 19.5 C 8.22 g/m*3 19.5 C 0 km/h
787 10-06-2009 13:23:55 22.8 C 7.72 g/m*3 22.8 C 0 km/h
788 10-06-2009 13:35:55 23.4 C 7.36 g/m*3 23.4 C 0 km/h
789 10-06-2009 13:47:55 21.6 C 6.45 g/m*3 21.6 C 0 km/h
790 10-06-2009 13:59:55 22.7 C 6.67 g/m*3 22.7 C 0 km/h
791 10-06-2009 14:11:54 22.1 C 6.64 g/m*3 22.1 C 0 km/h
792 10-06-2009 14:23:54 22 C 6.21 g/m*3 22 C 0 km/h
793 10-06-2009 14:35:54 22 C 6.6 g/m*3 22 C 0 km/h
794 10-06-2009 14:47:54 22.3 C 6.32 g/m*3 22.3 C 0 km/h
795 10-06-2009 14:59:55 22.6 C 6.43 g/m*3 22.6 C 0 km/h
796 10-06-2009 15:11:53 22.5 C 5.79 g/m*3 22.5 C 0 km/h
797 10-06-2009 15:23:54 23.5 C 6.13 g/m*3 23.5 C 0 km/h
798 10-06-2009 15:35:54 23.4 C 5.68 g/m*3 23.4 C 0 km/h
799 10-06-2009 15:47:53 23.3 C 5.44 g/m*3 23.3 C 0 km/h
800 10-06-2009 15:59:53 23.5 C 5.5 g/m*3 23.5 C 0 km/h
Sensor: Nr:Datum:Temp:Abs-Feuchte:Windchill:Wind:
Aussen-T/F 801 10-06-2009 16:11:54 23.4 C 4.84 g/m*3 23.4 C 0 km/h
802 10-06-2009 16:23:53 22.8 C 5.08 g/m*3 22.8 C 0 km/h
803 10-06-2009 16:35:53 23.1 C 5.17 g/m*3 23.1 C 0 km/h
804 10-06-2009 16:47:53 24.1 C 5.47 g/m*3 24.1 C 0 km/h
805 10-06-2009 16:59:53 23.2 C 5.2 g/m*3 23.2 C 0 km/h
806 10-06-2009 17:11:53 23.2 C 4.57 g/m*3 23.2 C 0 km/h
807 10-06-2009 17:23:53 23.8 C 4.95 g/m*3 23.8 C 0 km/h
808 10-06-2009 17:35:52 22.2 C 4.91 g/m*3 22.2 C 0 km/h
809 10-06-2009 17:47:53 22.3 C 5.13 g/m*3 22.3 C 0 km/h
810 10-06-2009 17:59:53 21.9 C 5.21 g/m*3 21.9 C 0 km/h
811 10-06-2009 18:11:52 21.5 C 5.47 g/m*3 21.5 C 0 km/h
812 10-06-2009 18:23:52 19.4 C 7.51 g/m*3 19.4 C 0 km/h
813 10-06-2009 18:35:52 17.7 C 9.05 g/m*3 17.7 C 0 km/h
814 10-06-2009 18:47:52 18.5 C 9.02 g/m*3 18.5 C 0 km/h
815 10-06-2009 18:59:53 18.7 C 8.97 g/m*3 18.7 C 0 km/h
816 10-06-2009 19:11:51 18.5 C 8.7 g/m*3 18.5 C 0 km/h
817 10-06-2009 19:23:51 18.4 C 8.65 g/m*3 18.4 C 0 km/h
818 10-06-2009 19:35:52 18.3 C 8.76 g/m*3 18.3 C 0 km/h
819 10-06-2009 19:47:51 17.2 C 8.93 g/m*3 17.2 C 0 km/h
820 10-06-2009 19:59:51 15.8 C 9.42 g/m*3 15.8 C 0 km/h
821 10-06-2009 20:11:51 15.6 C 9.84 g/m*3 15.6 C 0 km/h
822 10-06-2009 20:23:51 15.5 C 9.52 g/m*3 15.5 C 0 km/h
823 10-06-2009 20:35:51 15.6 C 9.44 g/m*3 15.6 C 0 km/h
824 10-06-2009 20:47:50 15.8 C 9.69 g/m*3 15.8 C 0 km/h
825 10-06-2009 20:59:50 15.4 C 9.59 g/m*3 15.4 C 0 km/h
Sensor: Nr:Datum:Temp:Abs-Feuchte:Windchill:Wind:
Aussen-T/F 826 10-06-2009 21:11:50 15.5 C 9.65 g/m*3 15.5 C 0 km/h
827 10-06-2009 21:23:51 15.6 C 9.71 g/m*3 15.6 C 0 km/h
828 10-06-2009 21:35:50 15.6 C 9.31 g/m*3 15.6 C 0 km/h
829 10-06-2009 21:47:50 15.8 C 9.15 g/m*3 15.8 C 0 km/h
830 10-06-2009 21:59:50 15.5 C 9.12 g/m*3 15.5 C 0 km/h
831 10-06-2009 22:11:50 14.5 C 9.83 g/m*3 14.5 C 0 km/h
832 10-06-2009 22:24:50 14.3 C 10.07 g/m*3 14.3 C 0 km/h
833 10-06-2009 22:36:50 14.1 C 10.19 g/m*3 14.1 C 0 km/h
834 10-06-2009 22:48:50 14.2 C 10.38 g/m*3 14.2 C 0 km/h
835 10-06-2009 23:00:50 14.2 C 10.5 g/m*3 14.2 C 0 km/h
836 10-06-2009 23:12:51 14.2 C 10.62 g/m*3 14.2 C 0 km/h
837 10-06-2009 23:24:51 14 C 10.49 g/m*3 14 C 0 km/h
838 10-06-2009 23:36:51 14.1 C 10.56 g/m*3 14.1 C 0 km/h
839 10-06-2009 23:48:51 14.4 C 10.51 g/m*3 14.4 C 0 km/h
840 11-06-2009 00:00:51 14.5 C 10.45 g/m*3 14.5 C 0 km/h
841 11-06-2009 00:12:51 14.2 C 10.14 g/m*3 14.2 C 0 km/h
842 11-06-2009 00:24:51 14.2 C 10.26 g/m*3 14.2 C 0 km/h
843 11-06-2009 00:36:51 14.1 C 10.19 g/m*3 14.1 C 0 km/h
844 11-06-2009 00:48:51 14 C 10.25 g/m*3 14 C 0 km/h
845 11-06-2009 01:00:51 13.8 C 10.25 g/m*3 13.8 C 0 km/h
846 11-06-2009 01:12:51 13.9 C 10.43 g/m*3 13.9 C 0 km/h
847 11-06-2009 01:24:51 13.9 C 10.67 g/m*3 13.9 C 0 km/h
848 11-06-2009 01:36:51 13.9 C 10.79 g/m*3 13.9 C 0 km/h
849 11-06-2009 01:48:51 13.9 C 10.91 g/m*3 13.9 C 0 km/h
850 11-06-2009 02:00:51 14 C 10.98 g/m*3 14 C 0 km/h
Sensor: Nr:Datum:Temp:Abs-Feuchte:Windchill:Wind:
Aussen-T/F 851 11-06-2009 02:12:51 13.9 C 11.03 g/m*3 13.9 C 0 km/h
852 11-06-2009 02:24:51 13.9 C 11.03 g/m*3 13.9 C 0 km/h
853 11-06-2009 02:36:51 14 C 11.1 g/m*3 14 C 0 km/h
854 11-06-2009 02:48:51 14 C 11.1 g/m*3 14 C 0 km/h
855 11-06-2009 03:00:52 14 C 11.1 g/m*3 14 C 0 km/h
856 11-06-2009 03:12:52 14.1 C 11.29 g/m*3 14.1 C 0 km/h
857 11-06-2009 03:24:52 14.2 C 11.36 g/m*3 14.2 C 0 km/h
858 11-06-2009 03:36:52 14.2 C 11.36 g/m*3 14.2 C 0 km/h
859 11-06-2009 03:48:52 14 C 11.22 g/m*3 14 C 0 km/h
860 11-06-2009 04:00:52 14 C 11.22 g/m*3 14 C 0 km/h
861 11-06-2009 04:12:52 14 C 11.34 g/m*3 14 C 0 km/h
862 11-06-2009 04:24:52 14 C 11.34 g/m*3 14 C 0 km/h
863 11-06-2009 04:36:52 14.1 C 11.41 g/m*3 14.1 C 0 km/h
864 11-06-2009 04:48:52 14.2 C 11.48 g/m*3 14.2 C 0 km/h
865 11-06-2009 05:00:52 14.2 C 11.48 g/m*3 14.2 C 0 km/h
866 11-06-2009 05:12:52 14.2 C 11.48 g/m*3 14.2 C 0 km/h
867 11-06-2009 05:24:52 14.4 C 11.5 g/m*3 14.4 C 0 km/h
868 11-06-2009 05:36:52 14.6 C 11.26 g/m*3 14.6 C 0 km/h
869 11-06-2009 05:48:52 14.5 C 11.07 g/m*3 14.5 C 0 km/h
870 11-06-2009 06:00:52 14.6 C 11.14 g/m*3 14.6 C 0 km/h
871 11-06-2009 06:12:52 14.2 C 10.87 g/m*3 14.2 C 0 km/h
872 11-06-2009 06:24:52 14.2 C 10.87 g/m*3 14.2 C 0 km/h
873 11-06-2009 06:36:52 14.3 C 10.93 g/m*3 14.3 C 0 km/h
874 11-06-2009 06:48:53 14.4 C 11 g/m*3 14.4 C 0 km/h
875 11-06-2009 07:00:53 14.4 C 10.75 g/m*3 14.4 C 0 km/h
Sensor: Nr:Datum:Temp:Abs-Feuchte:Windchill:Wind:
Aussen-T/F 876 11-06-2009 07:12:53 14.5 C 10.82 g/m*3 14.5 C 0 km/h
877 11-06-2009 07:24:53 14.5 C 10.94 g/m*3 14.5 C 0 km/h
878 11-06-2009 07:36:53 14.8 C 11.02 g/m*3 14.8 C 0 km/h
879 11-06-2009 07:48:53 14.7 C 10.32 g/m*3 14.7 C 0 km/h
880 11-06-2009 08:00:53 14.7 C 10.2 g/m*3 14.7 C 0 km/h
881 11-06-2009 08:12:53 14.7 C 9.57 g/m*3 14.7 C 0 km/h
882 11-06-2009 08:24:53 14.7 C 9.57 g/m*3 14.7 C 0 km/h
883 11-06-2009 08:36:50 14.8 C 9.5 g/m*3 14.8 C 0 km/h
884 11-06-2009 08:48:49 14.9 C 8.92 g/m*3 14.9 C 0 km/h
885 11-06-2009 09:00:50 15 C 8.72 g/m*3 15 C 0 km/h
886 11-06-2009 09:12:50 15 C 8.33 g/m*3 15 C 0 km/h
887 11-06-2009 09:24:49 15.3 C 8.23 g/m*3 15.3 C 0 km/h
888 11-06-2009 09:36:49 15.1 C 7.74 g/m*3 15.1 C 0 km/h
889 11-06-2009 09:48:02 15 C 7.82 g/m*3 15 C 0 km/h
890 11-06-2009 10:00:02 15 C 7.82 g/m*3 15 C 0 km/h
891 11-06-2009 10:12:01 14.9 C 8.03 g/m*3 14.9 C 0 km/h
892 11-06-2009 10:24:02 15.1 C 7.87 g/m*3 15.1 C 0 km/h
893 11-06-2009 10:36:01 15.5 C 7.8 g/m*3 15.5 C 0 km/h
894 11-06-2009 10:48:01 15.7 C 7.89 g/m*3 15.7 C 0 km/h
895 11-06-2009 11:00:01 15.2 C 8.05 g/m*3 15.2 C 0 km/h
896 11-06-2009 11:12:01 15.3 C 7.84 g/m*3 15.3 C 0 km/h
897 11-06-2009 11:24:01 15.5 C 7.53 g/m*3 15.5 C 0 km/h
898 11-06-2009 11:36:01 15.4 C 7.23 g/m*3 15.4 C 0 km/h
899 11-06-2009 11:48:01 15.3 C 7.05 g/m*3 15.3 C 0 km/h
900 11-06-2009 12:00:01 15.2 C 6.75 g/m*3 15.2 C 0 km/h
Sensor: Nr:Datum:Temp:Abs-Feuchte:Windchill:Wind:
Aussen-T/F 901 11-06-2009 12:12:01 15.2 C 6.62 g/m*3 15.2 C 0 km/h
902 11-06-2009 12:24:00 15.3 C 6.53 g/m*3 15.3 C 0 km/h
903 11-06-2009 12:36:00 15.4 C 6.57 g/m*3 15.4 C 0 km/h
904 11-06-2009 12:48:00 15.3 C 6.66 g/m*3 15.3 C 0 km/h
905 11-06-2009 13:00:00 15.2 C 6.62 g/m*3 15.2 C 0 km/h
906 11-06-2009 13:12:00 15.3 C 6.66 g/m*3 15.3 C 0 km/h
907 11-06-2009 13:24:59 15.4 C 6.96 g/m*3 15.4 C 0 km/h
908 11-06-2009 13:36:00 15.2 C 6.88 g/m*3 15.2 C 0 km/h
909 11-06-2009 13:48:59 15.4 C 6.96 g/m*3 15.4 C 0 km/h
910 11-06-2009 14:00:59 15.5 C 7.67 g/m*3 15.5 C 0 km/h
911 11-06-2009 14:12:59 15.8 C 7.81 g/m*3 15.8 C 0 km/h
912 11-06-2009 14:24:00 17.3 C 7.66 g/m*3 17.3 C 0 km/h
913 11-06-2009 14:36:59 16.9 C 7.05 g/m*3 16.9 C 0 km/h
914 11-06-2009 14:48:59 16.2 C 7.45 g/m*3 16.2 C 0 km/h
915 11-06-2009 15:00:58 16.4 C 7.4 g/m*3 16.4 C 0 km/h
916 11-06-2009 15:12:58 16.3 C 7.63 g/m*3 16.3 C 0 km/h
917 11-06-2009 15:24:59 16.8 C 7.43 g/m*3 16.8 C 0 km/h
918 11-06-2009 15:36:59 16.8 C 7.29 g/m*3 16.8 C 0 km/h
919 11-06-2009 15:48:58 17.5 C 7.45 g/m*3 17.5 C 0 km/h
920 11-06-2009 16:00:59 16.7 C 7.82 g/m*3 16.7 C 0 km/h
921 11-06-2009 16:12:59 16.4 C 8.1 g/m*3 16.4 C 0 km/h
922 11-06-2009 16:24:58 17.3 C 8.1 g/m*3 17.3 C 0 km/h
923 11-06-2009 16:36:58 16.6 C 7.63 g/m*3 16.6 C 0 km/h
924 11-06-2009 16:48:58 16 C 7.9 g/m*3 16 C 0 km/h
925 11-06-2009 17:00:58 16.2 C 7.72 g/m*3 16.2 C 0 km/h
Sensor: Nr:Datum:Temp:Abs-Feuchte:Windchill:Wind:
Aussen-T/F 926 11-06-2009 17:12:59 16.4 C 7.82 g/m*3 16.4 C 0 km/h
927 11-06-2009 17:24:57 16.4 C 8.37 g/m*3 16.4 C 0 km/h
928 11-06-2009 17:36:57 18.3 C 8.6 g/m*3 18.3 C 0 km/h
929 11-06-2009 17:48:57 17.5 C 8.05 g/m*3 17.5 C 0 km/h
930 11-06-2009 18:00:57 16 C 8.31 g/m*3 16 C 0 km/h
931 11-06-2009 18:12:57 14.4 C 9.02 g/m*3 14.4 C 0 km/h
932 11-06-2009 18:24:57 13.2 C 9.19 g/m*3 13.2 C 0 km/h
933 11-06-2009 18:36:57 13.3 C 9.7 g/m*3 13.3 C 0 km/h
934 11-06-2009 18:48:57 14.2 C 10.38 g/m*3 14.2 C 0 km/h
935 11-06-2009 19:00:56 14.2 C 10.38 g/m*3 14.2 C 0 km/h
936 11-06-2009 19:12:56 15.3 C 10.84 g/m*3 15.3 C 0 km/h
937 11-06-2009 19:24:56 16 C 10.49 g/m*3 16 C 0 km/h
938 11-06-2009 19:36:57 16 C 10.63 g/m*3 16 C 0 km/h
939 11-06-2009 19:48:56 14.9 C 10.07 g/m*3 14.9 C 0 km/h
940 11-06-2009 20:00:07 14.4 C 9.89 g/m*3 14.4 C 0 km/h
941 11-06-2009 20:12:07 13.4 C 9.65 g/m*3 13.4 C 0 km/h
942 11-06-2009 20:24:07 11.9 C 8.68 g/m*3 11.9 C 0 km/h
943 11-06-2009 20:36:07 11.9 C 8.79 g/m*3 11.9 C 0 km/h
944 11-06-2009 20:48:56 12.3 C 8.9 g/m*3 12.3 C 0 km/h
945 11-06-2009 21:00:56 12.5 C 9.02 g/m*3 12.5 C 0 km/h
946 11-06-2009 21:12:56 12.5 C 8.8 g/m*3 12.5 C 0 km/h
947 11-06-2009 21:24:56 12.6 C 8.85 g/m*3 12.6 C 0 km/h
948 11-06-2009 21:36:56 12.5 C 8.8 g/m*3 12.5 C 0 km/h
949 11-06-2009 21:48:56 12.3 C 8.8 g/m*3 12.3 C 0 km/h
950 11-06-2009 22:01:57 12.3 C 8.8 g/m*3 12.3 C 0 km/h
Sensor: Nr:Datum:Temp:Abs-Feuchte:Windchill:Wind:
Aussen-T/F 951 11-06-2009 22:13:57 12.4 C 8.85 g/m*3 12.4 C 0 km/h
952 11-06-2009 22:25:57 12.4 C 8.74 g/m*3 12.4 C 0 km/h
953 11-06-2009 22:37:57 12.5 C 8.69 g/m*3 12.5 C 0 km/h
954 11-06-2009 22:49:57 12.4 C 8.74 g/m*3 12.4 C 0 km/h
955 11-06-2009 23:01:57 12.4 C 8.74 g/m*3 12.4 C 0 km/h
956 11-06-2009 23:13:57 12.4 C 8.63 g/m*3 12.4 C 0 km/h
957 11-06-2009 23:25:57 12.1 C 8.47 g/m*3 12.1 C 0 km/h
958 11-06-2009 23:37:58 12 C 8.42 g/m*3 12 C 0 km/h
959 11-06-2009 23:49:58 12 C 8.31 g/m*3 12 C 0 km/h
960 12-06-2009 00:01:58 11.5 C 8.16 g/m*3 11.5 C 0 km/h
961 12-06-2009 00:13:58 11.4 C 8.11 g/m*3 11.4 C 0 km/h
962 12-06-2009 00:25:58 11.3 C 8.06 g/m*3 11.3 C 0 km/h
963 12-06-2009 00:37:58 11.5 C 8.16 g/m*3 11.5 C 0 km/h
964 12-06-2009 00:49:58 11.7 C 8.16 g/m*3 11.7 C 0 km/h
965 12-06-2009 01:01:58 11.6 C 8.21 g/m*3 11.6 C 0 km/h
966 12-06-2009 01:13:58 11.1 C 8.26 g/m*3 11.1 C 0 km/h
967 12-06-2009 01:25:58 10.8 C 8.4 g/m*3 10.8 C 0 km/h
968 12-06-2009 01:37:58 10.6 C 8.49 g/m*3 10.6 C 0 km/h
969 12-06-2009 01:49:58 10.5 C 8.53 g/m*3 10.5 C 0 km/h
970 12-06-2009 02:01:58 10.4 C 8.58 g/m*3 10.4 C 0 km/h
971 12-06-2009 02:13:58 10.3 C 8.52 g/m*3 10.3 C 0 km/h
972 12-06-2009 02:25:58 10.4 C 8.48 g/m*3 10.4 C 0 km/h
973 12-06-2009 02:37:58 10.3 C 8.24 g/m*3 10.3 C 0 km/h
974 12-06-2009 02:49:58 10.3 C 8.14 g/m*3 10.3 C 0 km/h
975 12-06-2009 03:01:58 10.4 C 8.1 g/m*3 10.4 C 0 km/h
Sensor: Nr:Datum:Temp:Abs-Feuchte:Windchill:Wind:
Aussen-T/F 976 12-06-2009 03:13:58 10.4 C 8 g/m*3 10.4 C 0 km/h
977 12-06-2009 03:25:59 10.2 C 7.9 g/m*3 10.2 C 0 km/h
978 12-06-2009 03:37:59 10 C 7.89 g/m*3 10 C 0 km/h
979 12-06-2009 03:49:59 9.9 C 7.94 g/m*3 9.9 C 0 km/h
980 12-06-2009 04:01:59 9.9 C 8.03 g/m*3 9.9 C 0 km/h
981 12-06-2009 04:13:59 10 C 7.99 g/m*3 10 C 0 km/h
982 12-06-2009 04:25:59 9.8 C 8.07 g/m*3 9.8 C 0 km/h
983 12-06-2009 04:37:59 9.6 C 7.97 g/m*3 9.6 C 0 km/h
984 12-06-2009 04:49:59 9.4 C 7.96 g/m*3 9.4 C 0 km/h
985 12-06-2009 05:01:59 9.5 C 8.1 g/m*3 9.5 C 0 km/h
986 12-06-2009 05:13:59 9.6 C 8.06 g/m*3 9.6 C 0 km/h
987 12-06-2009 05:25:59 9.2 C 7.86 g/m*3 9.2 C 0 km/h
988 12-06-2009 05:37:59 9.1 C 7.72 g/m*3 9.1 C 0 km/h
989 12-06-2009 05:49:59 9.1 C 7.72 g/m*3 9.1 C 0 km/h
990 12-06-2009 06:01:59 9.2 C 7.77 g/m*3 9.2 C 0 km/h
991 12-06-2009 06:13:59 9.1 C 7.72 g/m*3 9.1 C 0 km/h
992 12-06-2009 06:25:58 9.1 C 7.72 g/m*3 9.1 C 0 km/h
993 12-06-2009 06:37:57 9.2 C 7.77 g/m*3 9.2 C 0 km/h
994 12-06-2009 06:49:57 9.3 C 7.82 g/m*3 9.3 C 0 km/h
995 12-06-2009 07:01:57 9.7 C 7.84 g/m*3 9.7 C 0 km/h
996 12-06-2009 07:13:57 10 C 7.61 g/m*3 10 C 0 km/h
997 12-06-2009 07:25:57 10.1 C 7.56 g/m*3 10.1 C 0 km/h
998 12-06-2009 07:37:56 10.2 C 7.52 g/m*3 10.2 C 0 km/h
999 12-06-2009 07:49:56 10.4 C 7.61 g/m*3 10.4 C 0 km/h
1000 12-06-2009 08:01:57 10.5 C 7.57 g/m*3 10.5 C 0 km/h
Sensor: Nr:Datum:Temp:Abs-Feuchte:Windchill:Wind:
Aussen-T/F 1001 12-06-2009 08:13:57 10.8 C 7.71 g/m*3 10.8 C 0 km/h
1002 12-06-2009 08:25:56 11 C 7.51 g/m*3 11 C 0 km/h
1003 12-06-2009 08:37:56 11.2 C 7.5 g/m*3 11.2 C 0 km/h
1004 12-06-2009 08:49:56 11.7 C 7.74 g/m*3 11.7 C 0 km/h
1005 12-06-2009 09:01:56 12.1 C 7.83 g/m*3 12.1 C 0 km/h
1006 12-06-2009 09:13:56 12.4 C 7.87 g/m*3 12.4 C 0 km/h
1007 12-06-2009 09:25:56 12.9 C 8.11 g/m*3 12.9 C 0 km/h
1008 12-06-2009 09:37:56 13.4 C 8.14 g/m*3 13.4 C 0 km/h
1009 12-06-2009 09:49:55 14.1 C 8.01 g/m*3 14.1 C 0 km/h
1010 12-06-2009 10:01:55 15.4 C 8.28 g/m*3 15.4 C 0 km/h
1011 12-06-2009 10:13:55 16.9 C 8.05 g/m*3 16.9 C 0 km/h
1012 12-06-2009 10:25:55 17.3 C 7.51 g/m*3 17.3 C 0 km/h
1013 12-06-2009 10:37:55 17.5 C 7.16 g/m*3 17.5 C 0 km/h
1014 12-06-2009 10:49:54 17.2 C 6.74 g/m*3 17.2 C 0 km/h
1015 12-06-2009 11:01:55 16.8 C 6.58 g/m*3 16.8 C 0 km/h
1016 12-06-2009 11:13:55 17.1 C 6.11 g/m*3 17.1 C 0 km/h
1017 12-06-2009 11:25:55 17.9 C 5.5 g/m*3 17.9 C 0 km/h
1018 12-06-2009 11:37:54 18.3 C 5.47 g/m*3 18.3 C 0 km/h
1019 12-06-2009 11:49:55 18.7 C 5.6 g/m*3 18.7 C 0 km/h
1020 12-06-2009 12:01:54 18.9 C 5.51 g/m*3 18.9 C 0 km/h
1021 12-06-2009 12:13:54 17.4 C 5.93 g/m*3 17.4 C 0 km/h
1022 12-06-2009 12:25:54 18.5 C 5.85 g/m*3 18.5 C 0 km/h
1023 12-06-2009 12:37:53 20.4 C 5.31 g/m*3 20.4 C 0 km/h
1024 12-06-2009 12:49:54 20.7 C 4.68 g/m*3 20.7 C 0 km/h
1025 12-06-2009 13:01:53 18.1 C 5.1 g/m*3 18.1 C 0 km/h
Sensor: Nr:Datum:Temp:Abs-Feuchte:Windchill:Wind:
Aussen-T/F 1026 12-06-2009 13:13:53 20.9 C 5.65 g/m*3 20.9 C 0 km/h
1027 12-06-2009 13:25:53 23.3 C 4.6 g/m*3 23.3 C 0 km/h
1028 12-06-2009 13:37:54 21.8 C 5.56 g/m*3 21.8 C 0 km/h
1029 12-06-2009 13:49:53 20.6 C 5.37 g/m*3 20.6 C 0 km/h
1030 12-06-2009 14:01:53 21 C 4.95 g/m*3 21 C 0 km/h
1031 12-06-2009 14:13:53 21.2 C 4.63 g/m*3 21.2 C 0 km/h
1032 12-06-2009 14:25:53 21.3 C 4.85 g/m*3 21.3 C 0 km/h
1033 12-06-2009 14:37:53 21.3 C 5.22 g/m*3 21.3 C 0 km/h
1034 12-06-2009 14:49:52 21 C 4.95 g/m*3 21 C 0 km/h
1035 12-06-2009 15:01:52 20.7 C 5.58 g/m*3 20.7 C 0 km/h
1036 12-06-2009 15:13:52 21.8 C 5.56 g/m*3 21.8 C 0 km/h
1037 12-06-2009 15:25:52 21.6 C 5.12 g/m*3 21.6 C 0 km/h
1038 12-06-2009 15:37:52 21.6 C 5.31 g/m*3 21.6 C 0 km/h
1039 12-06-2009 15:49:52 21.5 C 5.28 g/m*3 21.5 C 0 km/h
1040 12-06-2009 16:01:52 21.7 C 5.34 g/m*3 21.7 C 0 km/h
1041 12-06-2009 16:13:52 21.4 C 5.25 g/m*3 21.4 C 0 km/h
1042 12-06-2009 16:25:52 22.2 C 5.3 g/m*3 22.2 C 0 km/h
1043 12-06-2009 16:37:51 23.1 C 5.37 g/m*3 23.1 C 0 km/h
1044 12-06-2009 16:49:52 23.6 C 5.32 g/m*3 23.6 C 0 km/h
1045 12-06-2009 17:01:51 22.7 C 5.05 g/m*3 22.7 C 0 km/h
1046 12-06-2009 17:13:51 22.2 C 4.91 g/m*3 22.2 C 0 km/h
1047 12-06-2009 17:25:51 21.6 C 5.12 g/m*3 21.6 C 0 km/h
1048 12-06-2009 17:37:51 23 C 4.73 g/m*3 23 C 0 km/h
1049 12-06-2009 17:49:51 22.7 C 5.05 g/m*3 22.7 C 0 km/h
1050 12-06-2009 18:01:51 22.2 C 4.91 g/m*3 22.2 C 0 km/h
Sensor: Nr:Datum:Temp:Abs-Feuchte:Windchill:Wind:
Aussen-T/F 1051 12-06-2009 18:13:51 21.8 C 4.99 g/m*3 21.8 C 0 km/h
1052 12-06-2009 18:25:50 22.7 C 5.05 g/m*3 22.7 C 0 km/h
1053 12-06-2009 18:37:51 22 C 5.05 g/m*3 22 C 0 km/h
1054 12-06-2009 18:49:50 22.7 C 5.05 g/m*3 22.7 C 0 km/h
1055 12-06-2009 19:01:50 22.7 C 5.05 g/m*3 22.7 C 0 km/h
1056 12-06-2009 19:13:50 22.9 C 5.11 g/m*3 22.9 C 0 km/h
1057 12-06-2009 19:25:50 23.1 C 5.17 g/m*3 23.1 C 0 km/h
1058 12-06-2009 19:37:50 22.9 C 5.11 g/m*3 22.9 C 0 km/h
1059 12-06-2009 19:49:49 22.1 C 4.88 g/m*3 22.1 C 0 km/h
1060 12-06-2009 20:01:50 21.5 C 4.9 g/m*3 21.5 C 0 km/h
1061 12-06-2009 20:13:50 21.5 C 5.09 g/m*3 21.5 C 0 km/h
1062 12-06-2009 20:25:50 20.4 C 5.31 g/m*3 20.4 C 0 km/h
1063 12-06-2009 20:37:49 20.2 C 5.25 g/m*3 20.2 C 0 km/h
1064 12-06-2009 20:49:50 20 C 5.18 g/m*3 20 C 0 km/h
1065 12-06-2009 21:01:48 19.7 C 5.43 g/m*3 19.7 C 0 km/h
1066 12-06-2009 21:13:48 19 C 5.54 g/m*3 19 C 0 km/h
1067 12-06-2009 21:25:49 18.2 C 5.28 g/m*3 18.2 C 0 km/h
1068 12-06-2009 21:37:49 17.8 C 5.46 g/m*3 17.8 C 0 km/h
1069 12-06-2009 21:49:48 17.3 C 5.45 g/m*3 17.3 C 0 km/h
1070 12-06-2009 22:01:49 16.8 C 5.43 g/m*3 16.8 C 0 km/h
1071 12-06-2009 22:13:49 16.5 C 5.48 g/m*3 16.5 C 0 km/h
1072 12-06-2009 22:26:50 16.2 C 5.52 g/m*3 16.2 C 0 km/h
1073 12-06-2009 22:38:50 15.8 C 5.52 g/m*3 15.8 C 0 km/h
1074 12-06-2009 22:50:50 15.5 C 5.95 g/m*3 15.5 C 0 km/h
1075 12-06-2009 23:02:50 15 C 6.03 g/m*3 15 C 0 km/h
Sensor: Nr:Datum:Temp:Abs-Feuchte:Windchill:Wind:
Aussen-T/F 1076 12-06-2009 23:14:50 14.6 C 6.13 g/m*3 14.6 C 0 km/h
1077 12-06-2009 23:26:50 14.3 C 6.27 g/m*3 14.3 C 0 km/h
1078 12-06-2009 23:38:50 13.9 C 6.59 g/m*3 13.9 C 0 km/h
1079 12-06-2009 23:50:50 13.4 C 6.63 g/m*3 13.4 C 0 km/h
1080 13-06-2009 00:02:50 13.2 C 6.77 g/m*3 13.2 C 0 km/h
1081 13-06-2009 00:14:50 13 C 6.8 g/m*3 13 C 0 km/h
1082 13-06-2009 00:26:50 12.7 C 7.01 g/m*3 12.7 C 0 km/h
1083 13-06-2009 00:38:50 12.4 C 6.88 g/m*3 12.4 C 0 km/h
1084 13-06-2009 00:50:50 12.2 C 6.8 g/m*3 12.2 C 0 km/h
1085 13-06-2009 01:02:50 12.1 C 6.86 g/m*3 12.1 C 0 km/h
1086 13-06-2009 01:14:50 11.8 C 6.95 g/m*3 11.8 C 0 km/h
1087 13-06-2009 01:26:50 11.5 C 6.92 g/m*3 11.5 C 0 km/h
1088 13-06-2009 01:38:50 11.3 C 6.83 g/m*3 11.3 C 0 km/h
1089 13-06-2009 01:50:51 11.1 C 6.65 g/m*3 11.1 C 0 km/h
1090 13-06-2009 02:02:51 10.9 C 6.76 g/m*3 10.9 C 0 km/h
1091 13-06-2009 02:14:51 10.7 C 6.78 g/m*3 10.7 C 0 km/h
1092 13-06-2009 02:26:51 10.6 C 6.83 g/m*3 10.6 C 0 km/h
1093 13-06-2009 02:38:51 10.3 C 6.9 g/m*3 10.3 C 0 km/h
1094 13-06-2009 02:50:51 10.2 C 6.85 g/m*3 10.2 C 0 km/h
1095 13-06-2009 03:02:51 9.9 C 6.91 g/m*3 9.9 C 0 km/h
1096 13-06-2009 03:14:51 9.7 C 6.91 g/m*3 9.7 C 0 km/h
1097 13-06-2009 03:26:51 9.5 C 6.92 g/m*3 9.5 C 0 km/h
1098 13-06-2009 03:38:51 9.5 C 6.92 g/m*3 9.5 C 0 km/h
1099 13-06-2009 03:50:51 9.2 C 6.97 g/m*3 9.2 C 0 km/h
1100 13-06-2009 04:02:51 9 C 6.88 g/m*3 9 C 0 km/h
Sensor: Nr:Datum:Temp:Abs-Feuchte:Windchill:Wind:
Aussen-T/F 1101 13-06-2009 04:14:51 8.9 C 7.01 g/m*3 8.9 C 0 km/h
1102 13-06-2009 04:26:51 8.7 C 6.92 g/m*3 8.7 C 0 km/h
1103 13-06-2009 04:38:51 8.6 C 6.87 g/m*3 8.6 C 0 km/h
1104 13-06-2009 04:50:51 8.5 C 6.83 g/m*3 8.5 C 0 km/h
1105 13-06-2009 05:02:51 8.4 C 6.79 g/m*3 8.4 C 0 km/h
1106 13-06-2009 05:14:51 8.3 C 6.66 g/m*3 8.3 C 0 km/h
1107 13-06-2009 05:26:51 8.2 C 6.7 g/m*3 8.2 C 0 km/h
1108 13-06-2009 05:38:51 8.1 C 6.66 g/m*3 8.1 C 0 km/h
1109 13-06-2009 05:50:51 8.1 C 6.74 g/m*3 8.1 C 0 km/h
1110 13-06-2009 06:02:49 8.2 C 6.78 g/m*3 8.2 C 0 km/h
1111 13-06-2009 06:14:50 8.3 C 6.91 g/m*3 8.3 C 0 km/h
1112 13-06-2009 06:26:51 8.2 C 6.95 g/m*3 8.2 C 0 km/h
1113 13-06-2009 06:38:49 8.4 C 7.04 g/m*3 8.4 C 0 km/h
1114 13-06-2009 06:50:49 8.4 C 7.04 g/m*3 8.4 C 0 km/h
1115 13-06-2009 07:02:49 8.6 C 7.13 g/m*3 8.6 C 0 km/h
1116 13-06-2009 07:14:49 8.7 C 7.18 g/m*3 8.7 C 0 km/h
1117 13-06-2009 07:26:49 8.8 C 7.14 g/m*3 8.8 C 0 km/h
1118 13-06-2009 07:38:49 9.1 C 7.19 g/m*3 9.1 C 0 km/h
1119 13-06-2009 07:50:49 9.3 C 7.19 g/m*3 9.3 C 0 km/h
1120 13-06-2009 08:02:49 9.7 C 7.38 g/m*3 9.7 C 0 km/h
1121 13-06-2009 08:14:48 10 C 7.05 g/m*3 10 C 0 km/h
1122 13-06-2009 08:26:48 10.2 C 6.95 g/m*3 10.2 C 0 km/h
1123 13-06-2009 08:38:48 10.6 C 7.12 g/m*3 10.6 C 0 km/h
1124 13-06-2009 08:50:48 11.7 C 7.22 g/m*3 11.7 C 0 km/h
1125 13-06-2009 09:02:47 12.5 C 7.04 g/m*3 12.5 C 0 km/h
Sensor: Nr:Datum:Temp:Abs-Feuchte:Windchill:Wind:
Aussen-T/F 1126 13-06-2009 09:14:48 13.3 C 7.16 g/m*3 13.3 C 0 km/h
1127 13-06-2009 09:26:48 14 C 7 g/m*3 14 C 0 km/h
1128 13-06-2009 09:38:48 14.6 C 7.01 g/m*3 14.6 C 0 km/h
1129 13-06-2009 09:50:47 15.2 C 7.01 g/m*3 15.2 C 0 km/h
1130 13-06-2009 10:02:48 15.4 C 6.96 g/m*3 15.4 C 0 km/h
1131 13-06-2009 10:14:47 15.7 C 6.96 g/m*3 15.7 C 0 km/h
1132 13-06-2009 10:26:47 16.8 C 7.29 g/m*3 16.8 C 0 km/h
1133 13-06-2009 10:38:47 17.3 C 6.78 g/m*3 17.3 C 0 km/h
1134 13-06-2009 10:50:47 18.4 C 6.76 g/m*3 18.4 C 0 km/h
1135 13-06-2009 11:02:47 18.9 C 6.8 g/m*3 18.9 C 0 km/h
1136 13-06-2009 11:14:47 19.6 C 6.75 g/m*3 19.6 C 0 km/h
1137 13-06-2009 11:26:47 19.9 C 6.36 g/m*3 19.9 C 0 km/h
1138 13-06-2009 11:38:46 20.9 C 6.74 g/m*3 20.9 C 0 km/h
1139 13-06-2009 11:50:47 20.4 C 6.19 g/m*3 20.4 C 0 km/h
1140 13-06-2009 12:02:46 21.6 C 5.88 g/m*3 21.6 C 0 km/h
1141 13-06-2009 12:14:46 21.3 C 5.78 g/m*3 21.3 C 0 km/h
1142 13-06-2009 12:26:46 23.6 C 6.38 g/m*3 23.6 C 0 km/h
1143 13-06-2009 12:38:46 24.2 C 6.16 g/m*3 24.2 C 0 km/h
1144 13-06-2009 12:50:46 24.4 C 5.79 g/m*3 24.4 C 0 km/h
1145 13-06-2009 13:02:45 25.3 C 6.09 g/m*3 25.3 C 0 km/h
1146 13-06-2009 13:14:45 25 C 5.75 g/m*3 25 C 0 km/h
1147 13-06-2009 13:26:45 25.5 C 5.68 g/m*3 25.5 C 0 km/h
1148 13-06-2009 13:38:46 26.6 C 5.54 g/m*3 26.6 C 0 km/h
1149 13-06-2009 13:50:45 27.1 C 5.69 g/m*3 27.1 C 0 km/h
1150 13-06-2009 14:02:45 26.9 C 5.37 g/m*3 26.9 C 0 km/h
Sensor: Nr:Datum:Temp:Abs-Feuchte:Windchill:Wind:
Aussen-T/F 1151 13-06-2009 14:14:45 25 C 5.75 g/m*3 25 C 0 km/h
1152 13-06-2009 14:26:45 25.4 C 6.12 g/m*3 25.4 C 0 km/h
1153 13-06-2009 14:38:45 25.4 C 6.12 g/m*3 25.4 C 0 km/h
1154 13-06-2009 14:50:45 26.5 C 6.51 g/m*3 26.5 C 0 km/h
1155 13-06-2009 15:02:44 25.8 C 6.02 g/m*3 25.8 C 0 km/h
1156 13-06-2009 15:14:44 26 C 6.33 g/m*3 26 C 0 km/h
1157 13-06-2009 15:26:44 26.7 C 6.33 g/m*3 26.7 C 0 km/h
1158 13-06-2009 15:38:44 28.1 C 6.29 g/m*3 28.1 C 0 km/h
1159 13-06-2009 15:50:44 28.8 C 6.25 g/m*3 28.8 C 0 km/h
1160 13-06-2009 16:02:44 28.2 C 6.05 g/m*3 28.2 C 0 km/h
1161 13-06-2009 16:14:44 28.4 C 6.12 g/m*3 28.4 C 0 km/h
1162 13-06-2009 16:26:44 27.5 C 5.82 g/m*3 27.5 C 0 km/h
1163 13-06-2009 16:38:44 27.9 C 6.76 g/m*3 27.9 C 0 km/h
1164 13-06-2009 16:50:43 29.9 C 6.33 g/m*3 29.9 C 0 km/h
1165 13-06-2009 17:02:44 30.5 C 6.23 g/m*3 30.5 C 0 km/h
1166 13-06-2009 17:14:43 30.9 C 6.37 g/m*3 30.9 C 0 km/h
1167 13-06-2009 17:26:43 30.1 C 6.1 g/m*3 30.1 C 0 km/h
1168 13-06-2009 17:38:43 29.8 C 6 g/m*3 29.8 C 0 km/h
1169 13-06-2009 17:50:43 28.8 C 6.25 g/m*3 28.8 C 0 km/h
1170 13-06-2009 18:02:43 27.9 C 6.22 g/m*3 27.9 C 0 km/h
1171 13-06-2009 18:14:43 28 C 5.98 g/m*3 28 C 0 km/h
1172 13-06-2009 18:26:43 27.3 C 6.02 g/m*3 27.3 C 0 km/h
1173 13-06-2009 18:38:42 27.5 C 6.08 g/m*3 27.5 C 0 km/h
1174 13-06-2009 18:50:43 27.4 C 6.05 g/m*3 27.4 C 0 km/h
1175 13-06-2009 19:02:42 27 C 6.18 g/m*3 27 C 0 km/h
Sensor: Nr:Datum:Temp:Abs-Feuchte:Windchill:Wind:
Aussen-T/F 1176 13-06-2009 19:14:42 27.8 C 6.19 g/m*3 27.8 C 0 km/h
1177 13-06-2009 19:26:42 27.7 C 6.42 g/m*3 27.7 C 0 km/h
1178 13-06-2009 19:38:42 27.6 C 6.38 g/m*3 27.6 C 0 km/h
1179 13-06-2009 19:50:42 26.9 C 6.4 g/m*3 26.9 C 0 km/h
1180 13-06-2009 20:02:41 26.8 C 6.36 g/m*3 26.8 C 0 km/h
1181 13-06-2009 20:14:42 26.1 C 6.37 g/m*3 26.1 C 0 km/h
1182 13-06-2009 20:26:42 26.1 C 6.37 g/m*3 26.1 C 0 km/h
1183 13-06-2009 20:38:42 25.5 C 6.63 g/m*3 25.5 C 0 km/h
1184 13-06-2009 20:50:41 24.6 C 7.2 g/m*3 24.6 C 0 km/h
1185 13-06-2009 21:02:42 23.7 C 7.7 g/m*3 23.7 C 0 km/h
1186 13-06-2009 21:14:41 22.7 C 7.88 g/m*3 22.7 C 0 km/h
1187 13-06-2009 21:26:41 21.6 C 7.59 g/m*3 21.6 C 0 km/h
1188 13-06-2009 21:38:41 20.7 C 7.56 g/m*3 20.7 C 0 km/h
1189 13-06-2009 21:50:40 19.8 C 7.52 g/m*3 19.8 C 0 km/h
1190 13-06-2009 22:02:41 19.5 C 7.72 g/m*3 19.5 C 0 km/h
1191 13-06-2009 22:14:40 19.1 C 7.54 g/m*3 19.1 C 0 km/h
1192 13-06-2009 22:26:40 19.1 C 7.54 g/m*3 19.1 C 0 km/h
1193 13-06-2009 22:38:41 18.9 C 7.45 g/m*3 18.9 C 0 km/h
1194 13-06-2009 22:51:41 18.6 C 7.64 g/m*3 18.6 C 0 km/h
1195 13-06-2009 23:03:41 18.2 C 7.46 g/m*3 18.2 C 0 km/h
1196 13-06-2009 23:15:41 18.1 C 7.57 g/m*3 18.1 C 0 km/h
1197 13-06-2009 23:27:41 17.9 C 7.79 g/m*3 17.9 C 0 km/h
1198 13-06-2009 23:39:41 17.3 C 7.51 g/m*3 17.3 C 0 km/h
1199 13-06-2009 23:51:41 17 C 7.52 g/m*3 17 C 0 km/h
1200 14-06-2009 00:03:41 16.8 C 7.72 g/m*3 16.8 C 0 km/h
Sensor: Nr:Datum:Temp:Abs-Feuchte:Windchill:Wind:
Aussen-T/F 1201 14-06-2009 00:15:41 16.5 C 7.72 g/m*3 16.5 C 0 km/h
1202 14-06-2009 00:27:41 16.3 C 7.77 g/m*3 16.3 C 0 km/h
1203 14-06-2009 00:39:41 16 C 8.04 g/m*3 16 C 0 km/h
1204 14-06-2009 00:51:41 15.6 C 8.11 g/m*3 15.6 C 0 km/h
1205 14-06-2009 01:03:41 15.6 C 7.98 g/m*3 15.6 C 0 km/h
1206 14-06-2009 01:15:41 15.4 C 7.88 g/m*3 15.4 C 0 km/h
1207 14-06-2009 01:27:41 15.2 C 7.79 g/m*3 15.2 C 0 km/h
1208 14-06-2009 01:39:41 15 C 8.08 g/m*3 15 C 0 km/h
1209 14-06-2009 01:51:41 14.8 C 8.11 g/m*3 14.8 C 0 km/h
1210 14-06-2009 02:03:41 14.7 C 8.18 g/m*3 14.7 C 0 km/h
1211 14-06-2009 02:15:41 14.6 C 8.26 g/m*3 14.6 C 0 km/h
1212 14-06-2009 02:27:42 14.3 C 8.23 g/m*3 14.3 C 0 km/h
1213 14-06-2009 02:39:42 14.1 C 8.37 g/m*3 14.1 C 0 km/h
1214 14-06-2009 02:51:42 14 C 8.44 g/m*3 14 C 0 km/h
1215 14-06-2009 03:03:42 13.9 C 8.51 g/m*3 13.9 C 0 km/h
1216 14-06-2009 03:15:42 13.6 C 8.36 g/m*3 13.6 C 0 km/h
1217 14-06-2009 03:27:42 13.6 C 8.36 g/m*3 13.6 C 0 km/h
1218 14-06-2009 03:39:42 13.4 C 8.37 g/m*3 13.4 C 0 km/h
1219 14-06-2009 03:51:42 13.4 C 8.37 g/m*3 13.4 C 0 km/h
1220 14-06-2009 04:03:42 13.1 C 8.22 g/m*3 13.1 C 0 km/h
1221 14-06-2009 04:15:42 12.9 C 8.23 g/m*3 12.9 C 0 km/h
1222 14-06-2009 04:27:42 12.8 C 8.29 g/m*3 12.8 C 0 km/h
1223 14-06-2009 04:39:42 12.7 C 8.35 g/m*3 12.7 C 0 km/h
1224 14-06-2009 04:51:42 12.5 C 8.25 g/m*3 12.5 C 0 km/h
1225 14-06-2009 05:03:42 12.4 C 8.3 g/m*3 12.4 C 0 km/h
Sensor: Nr:Datum:Temp:Abs-Feuchte:Windchill:Wind:
Aussen-T/F 1226 14-06-2009 05:15:42 12.2 C 8.2 g/m*3 12.2 C 0 km/h
1227 14-06-2009 05:27:42 12.2 C 8.31 g/m*3 12.2 C 0 km/h
1228 14-06-2009 05:39:42 12.1 C 8.26 g/m*3 12.1 C 0 km/h
1229 14-06-2009 05:51:42 12 C 8.31 g/m*3 12 C 0 km/h
1230 14-06-2009 06:03:42 12 C 8.31 g/m*3 12 C 0 km/h
1231 14-06-2009 06:15:43 12.4 C 8.52 g/m*3 12.4 C 0 km/h
1232 14-06-2009 06:27:43 12.8 C 8.62 g/m*3 12.8 C 0 km/h
1233 14-06-2009 06:39:43 13 C 8.62 g/m*3 13 C 0 km/h
1234 14-06-2009 06:51:43 13.2 C 8.61 g/m*3 13.2 C 0 km/h
1235 14-06-2009 07:03:43 13 C 8.51 g/m*3 13 C 0 km/h
1236 14-06-2009 07:15:43 13 C 8.62 g/m*3 13 C 0 km/h
1237 14-06-2009 07:27:43 13.1 C 8.67 g/m*3 13.1 C 0 km/h
1238 14-06-2009 07:39:43 13.4 C 8.72 g/m*3 13.4 C 0 km/h
1239 14-06-2009 07:51:43 13.4 C 8.72 g/m*3 13.4 C 0 km/h
1240 14-06-2009 08:03:41 13.6 C 8.71 g/m*3 13.6 C 0 km/h
1241 14-06-2009 08:15:41 13.6 C 8.71 g/m*3 13.6 C 0 km/h
1242 14-06-2009 08:27:41 13.8 C 8.58 g/m*3 13.8 C 0 km/h
1243 14-06-2009 08:39:41 14.2 C 8.55 g/m*3 14.2 C 0 km/h
1244 14-06-2009 08:51:40 14.8 C 8.87 g/m*3 14.8 C 0 km/h
1245 14-06-2009 09:03:41 15.3 C 8.88 g/m*3 15.3 C 0 km/h
1246 14-06-2009 09:15:41 15.9 C 8.94 g/m*3 15.9 C 0 km/h
1247 14-06-2009 09:27:41 16.7 C 9.24 g/m*3 16.7 C 0 km/h
1248 14-06-2009 09:39:41 17.6 C 9.3 g/m*3 17.6 C 0 km/h
1249 14-06-2009 09:51:40 18.3 C 9.07 g/m*3 18.3 C 0 km/h
1250 14-06-2009 10:03:40 19.4 C 9.34 g/m*3 19.4 C 0 km/h
Sensor: Nr:Datum:Temp:Abs-Feuchte:Windchill:Wind:
Aussen-T/F 1251 14-06-2009 10:15:40 20.1 C 9.21 g/m*3 20.1 C 0 km/h
1252 14-06-2009 10:27:40 20.8 C 9.05 g/m*3 20.8 C 0 km/h
1253 14-06-2009 10:39:39 21.6 C 8.72 g/m*3 21.6 C 0 km/h
1254 14-06-2009 10:51:40 21.7 C 8.39 g/m*3 21.7 C 0 km/h
1255 14-06-2009 11:03:39 22.5 C 8.39 g/m*3 22.5 C 0 km/h
1256 14-06-2009 11:15:39 23.7 C 8.77 g/m*3 23.7 C 0 km/h
1257 14-06-2009 11:27:39 24.8 C 8.88 g/m*3 24.8 C 0 km/h
1258 14-06-2009 11:39:40 25.5 C 8.52 g/m*3 25.5 C 0 km/h
1259 14-06-2009 11:51:39 26.1 C 7.59 g/m*3 26.1 C 0 km/h
1260 14-06-2009 12:03:39 26.8 C 7.64 g/m*3 26.8 C 0 km/h
1261 14-06-2009 12:15:39 26.4 C 7.22 g/m*3 26.4 C 0 km/h
1262 14-06-2009 12:27:39 27 C 7.72 g/m*3 27 C 0 km/h
1263 14-06-2009 12:39:39 26.1 C 7.1 g/m*3 26.1 C 0 km/h
1264 14-06-2009 12:51:38 27.9 C 7.3 g/m*3 27.9 C 0 km/h
1265 14-06-2009 13:03:39 27.5 C 7.14 g/m*3 27.5 C 0 km/h
1266 14-06-2009 13:15:38 28.3 C 7.46 g/m*3 28.3 C 0 km/h
1267 14-06-2009 13:27:38 28.2 C 7.42 g/m*3 28.2 C 0 km/h
1268 14-06-2009 13:39:38 28.2 C 7.42 g/m*3 28.2 C 0 km/h
1269 14-06-2009 13:51:37 27.8 C 6.99 g/m*3 27.8 C 0 km/h
1270 14-06-2009 14:03:38 28.7 C 7.63 g/m*3 28.7 C 0 km/h
1271 14-06-2009 14:15:38 28.9 C 7.71 g/m*3 28.9 C 0 km/h
1272 14-06-2009 14:27:38 28.3 C 7.74 g/m*3 28.3 C 0 km/h
1273 14-06-2009 14:39:37 28.6 C 7.59 g/m*3 28.6 C 0 km/h
1274 14-06-2009 14:51:38 28.6 C 7.59 g/m*3 28.6 C 0 km/h
1275 14-06-2009 15:03:37 29.1 C 7.51 g/m*3 29.1 C 0 km/h
Sensor: Nr:Datum:Temp:Abs-Feuchte:Windchill:Wind:
Aussen-T/F 1276 14-06-2009 15:15:37 29.6 C 7.42 g/m*3 29.6 C 0 km/h
1277 14-06-2009 15:27:37 29.6 C 7.42 g/m*3 29.6 C 0 km/h
1278 14-06-2009 15:39:36 30.2 C 7.66 g/m*3 30.2 C 0 km/h
1279 14-06-2009 15:51:37 30.3 C 7.09 g/m*3 30.3 C 0 km/h
1280 14-06-2009 16:03:36 30.4 C 7.13 g/m*3 30.4 C 0 km/h
1281 14-06-2009 16:15:36 30.3 C 7.09 g/m*3 30.3 C 0 km/h
1282 14-06-2009 16:27:36 30.9 C 7 g/m*3 30.9 C 0 km/h
1283 14-06-2009 16:39:37 31.5 C 7.23 g/m*3 31.5 C 0 km/h
1284 14-06-2009 16:51:36 30.8 C 6.65 g/m*3 30.8 C 0 km/h
1285 14-06-2009 17:03:36 31.2 C 6.47 g/m*3 31.2 C 0 km/h
1286 14-06-2009 17:15:36 31 C 6.72 g/m*3 31 C 0 km/h
1287 14-06-2009 17:27:36 31.2 C 6.47 g/m*3 31.2 C 0 km/h
1288 14-06-2009 17:39:36 30.7 C 7.24 g/m*3 30.7 C 0 km/h
1289 14-06-2009 17:51:35 26.2 C 8.86 g/m*3 26.2 C 0 km/h
1290 14-06-2009 18:03:36 24.8 C 10.7 g/m*3 24.8 C 0 km/h
1291 14-06-2009 18:15:35 26.4 C 9.71 g/m*3 26.4 C 0 km/h
1292 14-06-2009 18:27:35 27.9 C 10.01 g/m*3 27.9 C 0 km/h
1293 14-06-2009 18:39:35 27.2 C 9.63 g/m*3 27.2 C 0 km/h
1294 14-06-2009 18:51:35 25.1 C 10.88 g/m*3 25.1 C 0 km/h
1295 14-06-2009 19:03:35 24.6 C 11.93 g/m*3 24.6 C 0 km/h
1296 14-06-2009 19:15:35 22.4 C 14.1 g/m*3 22.4 C 0 km/h
1297 14-06-2009 19:27:35 22 C 15.72 g/m*3 22 C 0 km/h
1298 14-06-2009 19:39:34 22.4 C 16.09 g/m*3 22.4 C 0 km/h
1299 14-06-2009 19:51:35 22.3 C 15.6 g/m*3 22.3 C 0 km/h
1300 14-06-2009 20:03:34 21.8 C 14.97 g/m*3 21.8 C 0 km/h
Sensor: Nr:Datum:Temp:Abs-Feuchte:Windchill:Wind:
Aussen-T/F 1301 14-06-2009 20:15:34 21.6 C 14.79 g/m*3 21.6 C 0 km/h
1302 14-06-2009 20:27:34 21.2 C 14.27 g/m*3 21.2 C 0 km/h
1303 14-06-2009 20:39:34 20.7 C 14.4 g/m*3 20.7 C 0 km/h
1304 14-06-2009 20:51:34 20.6 C 14.86 g/m*3 20.6 C 0 km/h
1305 14-06-2009 21:03:34 20.4 C 14.86 g/m*3 20.4 C 0 km/h
1306 14-06-2009 21:15:33 20.4 C 15.04 g/m*3 20.4 C 0 km/h
1307 14-06-2009 21:27:33 20.4 C 15.04 g/m*3 20.4 C 0 km/h
1308 14-06-2009 21:39:33 20.1 C 14.78 g/m*3 20.1 C 0 km/h
1309 14-06-2009 21:51:33 20 C 14.52 g/m*3 20 C 0 km/h
1310 14-06-2009 22:03:33 19.9 C 14.43 g/m*3 19.9 C 0 km/h
1311 14-06-2009 22:16:34 19.8 C 14.18 g/m*3 19.8 C 0 km/h
1312 14-06-2009 22:28:34 19.8 C 14.18 g/m*3 19.8 C 0 km/h
1313 14-06-2009 22:40:34 19.8 C 14.18 g/m*3 19.8 C 0 km/h
1314 14-06-2009 22:52:34 19.7 C 13.92 g/m*3 19.7 C 0 km/h
1315 14-06-2009 23:04:34 19.1 C 13.61 g/m*3 19.1 C 0 km/h
1316 14-06-2009 23:16:34 18.9 C 13.77 g/m*3 18.9 C 0 km/h
1317 14-06-2009 23:28:34 18.7 C 13.77 g/m*3 18.7 C 0 km/h
1318 14-06-2009 23:40:34 18.7 C 13.93 g/m*3 18.7 C 0 km/h
1319 14-06-2009 23:52:34 18.5 C 13.61 g/m*3 18.5 C 0 km/h
1320 15-06-2009 00:04:34 18.4 C 13.53 g/m*3 18.4 C 0 km/h
1321 15-06-2009 00:16:34 18.3 C 13.45 g/m*3 18.3 C 0 km/h
1322 15-06-2009 00:28:34 18.2 C 13.37 g/m*3 18.2 C 0 km/h
1323 15-06-2009 00:40:34 18.3 C 13.6 g/m*3 18.3 C 0 km/h
1324 15-06-2009 00:52:34 18.3 C 13.45 g/m*3 18.3 C 0 km/h
1325 15-06-2009 01:04:34 17.9 C 13.13 g/m*3 17.9 C 0 km/h
Sensor: Nr:Datum:Temp:Abs-Feuchte:Windchill:Wind:
Aussen-T/F 1326 15-06-2009 01:16:34 17.7 C 12.98 g/m*3 17.7 C 0 km/h
1327 15-06-2009 01:28:34 17.5 C 12.82 g/m*3 17.5 C 0 km/h
1328 15-06-2009 01:40:35 17.3 C 12.67 g/m*3 17.3 C 0 km/h
1329 15-06-2009 01:52:35 17.3 C 12.82 g/m*3 17.3 C 0 km/h
1330 15-06-2009 02:04:35 17.2 C 12.74 g/m*3 17.2 C 0 km/h
1331 15-06-2009 02:16:35 17.1 C 12.66 g/m*3 17.1 C 0 km/h
1332 15-06-2009 02:28:35 17 C 12.59 g/m*3 17 C 0 km/h
1333 15-06-2009 02:40:35 16.9 C 12.51 g/m*3 16.9 C 0 km/h
1334 15-06-2009 02:52:35 16.9 C 12.51 g/m*3 16.9 C 0 km/h
1335 15-06-2009 03:04:35 17 C 12.59 g/m*3 17 C 0 km/h
1336 15-06-2009 03:16:35 17.1 C 12.66 g/m*3 17.1 C 0 km/h
1337 15-06-2009 03:28:35 17.1 C 12.66 g/m*3 17.1 C 0 km/h
1338 15-06-2009 03:40:35 17.2 C 12.59 g/m*3 17.2 C 0 km/h
1339 15-06-2009 03:52:35 17 C 12.3 g/m*3 17 C 0 km/h
1340 15-06-2009 04:04:35 16.8 C 12.3 g/m*3 16.8 C 0 km/h
1341 15-06-2009 04:16:35 16.8 C 12.44 g/m*3 16.8 C 0 km/h
1342 15-06-2009 04:28:35 16.6 C 12.29 g/m*3 16.6 C 0 km/h
1343 15-06-2009 04:40:35 16.4 C 12.14 g/m*3 16.4 C 0 km/h
1344 15-06-2009 04:52:35 16.3 C 12.07 g/m*3 16.3 C 0 km/h
1345 15-06-2009 05:04:35 16.3 C 12.21 g/m*3 16.3 C 0 km/h
1346 15-06-2009 05:16:35 16.4 C 12.42 g/m*3 16.4 C 0 km/h
1347 15-06-2009 05:28:36 16.5 C 12.5 g/m*3 16.5 C 0 km/h
1348 15-06-2009 05:40:36 16.6 C 12.57 g/m*3 16.6 C 0 km/h
1349 15-06-2009 05:52:36 16.6 C 12.57 g/m*3 16.6 C 0 km/h
1350 15-06-2009 06:04:36 16.8 C 12.58 g/m*3 16.8 C 0 km/h
Sensor: Nr:Datum:Temp:Abs-Feuchte:Windchill:Wind:
Aussen-T/F 1351 15-06-2009 06:16:36 16.5 C 12.36 g/m*3 16.5 C 0 km/h
1352 15-06-2009 06:28:36 16.8 C 12.58 g/m*3 16.8 C 0 km/h
1353 15-06-2009 06:40:36 16.9 C 12.51 g/m*3 16.9 C 0 km/h
1354 15-06-2009 06:52:36 17 C 12.44 g/m*3 17 C 0 km/h
1355 15-06-2009 07:04:36 17.2 C 12.45 g/m*3 17.2 C 0 km/h
1356 15-06-2009 07:16:34 16.8 C 12.3 g/m*3 16.8 C 0 km/h
1357 15-06-2009 07:28:34 17 C 12.3 g/m*3 17 C 0 km/h
1358 15-06-2009 07:40:34 17.3 C 12.52 g/m*3 17.3 C 0 km/h
1359 15-06-2009 07:52:33 17.5 C 12.52 g/m*3 17.5 C 0 km/h
1360 15-06-2009 08:04:34 17.8 C 12.75 g/m*3 17.8 C 0 km/h
1361 15-06-2009 08:16:33 17.8 C 12.75 g/m*3 17.8 C 0 km/h
1362 15-06-2009 08:28:33 17.9 C 12.98 g/m*3 17.9 C 0 km/h
1363 15-06-2009 08:40:33 18 C 12.9 g/m*3 18 C 0 km/h
1364 15-06-2009 08:52:33 18.1 C 12.98 g/m*3 18.1 C 0 km/h
1365 15-06-2009 09:04:32 18.5 C 13.13 g/m*3 18.5 C 0 km/h
1366 15-06-2009 09:16:33 18.5 C 12.97 g/m*3 18.5 C 0 km/h
1367 15-06-2009 09:28:34 18.5 C 12.82 g/m*3 18.5 C 0 km/h
1368 15-06-2009 09:40:32 18.5 C 12.82 g/m*3 18.5 C 0 km/h
1369 15-06-2009 09:52:32 18.3 C 12.66 g/m*3 18.3 C 0 km/h
1370 15-06-2009 10:04:32 18 C 12.44 g/m*3 18 C 0 km/h
1371 15-06-2009 10:16:32 17.9 C 12.83 g/m*3 17.9 C 0 km/h
1372 15-06-2009 10:28:32 17.9 C 12.98 g/m*3 17.9 C 0 km/h
1373 15-06-2009 10:40:32 17.8 C 13.05 g/m*3 17.8 C 0 km/h
1374 15-06-2009 10:52:32 17.6 C 12.9 g/m*3 17.6 C 0 km/h
1375 15-06-2009 11:04:32 17.2 C 12.74 g/m*3 17.2 C 0 km/h
Sensor: Nr:Datum:Temp:Abs-Feuchte:Windchill:Wind:
Aussen-T/F 1376 15-06-2009 11:16:31 17.2 C 12.89 g/m*3 17.2 C 0 km/h
1377 15-06-2009 11:28:31 17.3 C 13.11 g/m*3 17.3 C 0 km/h
1378 15-06-2009 11:40:31 17.3 C 13.11 g/m*3 17.3 C 0 km/h
1379 15-06-2009 11:52:31 17.3 C 13.26 g/m*3 17.3 C 0 km/h
1380 15-06-2009 12:04:31 17.5 C 13.57 g/m*3 17.5 C 0 km/h
1381 15-06-2009 12:16:31 17.5 C 13.57 g/m*3 17.5 C 0 km/h
1382 15-06-2009 12:28:31 17.5 C 13.57 g/m*3 17.5 C 0 km/h
1383 15-06-2009 12:40:30 17.8 C 13.96 g/m*3 17.8 C 0 km/h
1384 15-06-2009 12:52:31 18.1 C 14.06 g/m*3 18.1 C 0 km/h
1385 15-06-2009 13:04:30 18.3 C 14.23 g/m*3 18.3 C 0 km/h
1386 15-06-2009 13:16:30 17.9 C 14.05 g/m*3 17.9 C 0 km/h
1387 15-06-2009 13:28:30 18 C 13.98 g/m*3 18 C 0 km/h
1388 15-06-2009 13:40:30 18.3 C 14.23 g/m*3 18.3 C 0 km/h
1389 15-06-2009 13:52:30 18.4 C 14.31 g/m*3 18.4 C 0 km/h
1390 15-06-2009 14:04:30 18.2 C 14.14 g/m*3 18.2 C 0 km/h
1391 15-06-2009 14:16:30 17.9 C 14.05 g/m*3 17.9 C 0 km/h
1392 15-06-2009 14:28:30 17.9 C 14.05 g/m*3 17.9 C 0 km/h
1393 15-06-2009 14:40:30 17.8 C 14.12 g/m*3 17.8 C 0 km/h
1394 15-06-2009 14:52:29 17.6 C 13.95 g/m*3 17.6 C 0 km/h
1395 15-06-2009 15:04:29 17.8 C 14.12 g/m*3 17.8 C 0 km/h
1396 15-06-2009 15:16:29 17.9 C 14.2 g/m*3 17.9 C 0 km/h
1397 15-06-2009 15:28:29 17.9 C 14.2 g/m*3 17.9 C 0 km/h
1398 15-06-2009 15:40:29 17.1 C 13.54 g/m*3 17.1 C 0 km/h
1399 15-06-2009 15:52:28 16.8 C 13.44 g/m*3 16.8 C 0 km/h
1400 15-06-2009 16:04:29 16.4 C 13.12 g/m*3 16.4 C 0 km/h
Sensor: Nr:Datum:Temp:Abs-Feuchte:Windchill:Wind:
Aussen-T/F 1401 15-06-2009 16:16:29 16.2 C 12.96 g/m*3 16.2 C 0 km/h
1402 15-06-2009 16:28:29 16.2 C 12.96 g/m*3 16.2 C 0 km/h
1403 15-06-2009 16:40:28 16.1 C 12.88 g/m*3 16.1 C 0 km/h
1404 15-06-2009 16:52:29 16.2 C 12.96 g/m*3 16.2 C 0 km/h
1405 15-06-2009 17:04:28 15.8 C 12.65 g/m*3 15.8 C 0 km/h
1406 15-06-2009 17:16:28 16.1 C 12.75 g/m*3 16.1 C 0 km/h
1407 15-06-2009 17:28:28 16.4 C 12.98 g/m*3 16.4 C 0 km/h
1408 15-06-2009 17:40:28 16.8 C 13.3 g/m*3 16.8 C 0 km/h
1409 15-06-2009 17:52:28 16.6 C 13.14 g/m*3 16.6 C 0 km/h
1410 15-06-2009 18:04:28 16.6 C 13 g/m*3 16.6 C 0 km/h
1411 15-06-2009 18:16:27 16.4 C 12.84 g/m*3 16.4 C 0 km/h
1412 15-06-2009 18:28:27 16.3 C 12.76 g/m*3 16.3 C 0 km/h
1413 15-06-2009 18:40:28 16.2 C 12.69 g/m*3 16.2 C 0 km/h
1414 15-06-2009 18:52:27 15.7 C 12.04 g/m*3 15.7 C 0 km/h
1415 15-06-2009 19:04:27 15.8 C 11.85 g/m*3 15.8 C 0 km/h
1416 15-06-2009 19:16:26 15.7 C 11.77 g/m*3 15.7 C 0 km/h
1417 15-06-2009 19:28:26 15.5 C 11.76 g/m*3 15.5 C 0 km/h
1418 15-06-2009 19:40:27 15.4 C 11.82 g/m*3 15.4 C 0 km/h
1419 15-06-2009 19:52:26 15.2 C 11.81 g/m*3 15.2 C 0 km/h
1420 15-06-2009 20:04:26 15.1 C 11.87 g/m*3 15.1 C 0 km/h
1421 15-06-2009 20:16:27 15.2 C 11.94 g/m*3 15.2 C 0 km/h
1422 15-06-2009 20:28:27 15.2 C 12.07 g/m*3 15.2 C 0 km/h
1423 15-06-2009 20:40:26 15.1 C 12 g/m*3 15.1 C 0 km/h
1424 15-06-2009 20:52:26 14.9 C 11.98 g/m*3 14.9 C 0 km/h
1425 15-06-2009 21:04:26 14.7 C 11.71 g/m*3 14.7 C 0 km/h
Sensor: Nr:Datum:Temp:Abs-Feuchte:Windchill:Wind:
Aussen-T/F 1426 15-06-2009 21:16:26 14.8 C 11.78 g/m*3 14.8 C 0 km/h
1427 15-06-2009 21:28:26 14.9 C 11.98 g/m*3 14.9 C 0 km/h
1428 15-06-2009 21:40:26 14.8 C 11.91 g/m*3 14.8 C 0 km/h
1429 15-06-2009 21:52:25 14.8 C 11.91 g/m*3 14.8 C 0 km/h
1430 15-06-2009 22:04:25 14.8 C 11.91 g/m*3 14.8 C 0 km/h
1431 15-06-2009 22:17:26 14.6 C 11.76 g/m*3 14.6 C 0 km/h
1432 15-06-2009 22:29:26 14.7 C 11.71 g/m*3 14.7 C 0 km/h
1433 15-06-2009 22:41:26 14.4 C 11.37 g/m*3 14.4 C 0 km/h
1434 15-06-2009 22:53:26 14.1 C 11.04 g/m*3 14.1 C 0 km/h
1435 15-06-2009 23:05:26 14.1 C 11.04 g/m*3 14.1 C 0 km/h
1436 15-06-2009 23:17:26 14 C 10.86 g/m*3 14 C 0 km/h
1437 15-06-2009 23:29:26 13.8 C 10.84 g/m*3 13.8 C 0 km/h
1438 15-06-2009 23:41:26 13.7 C 10.78 g/m*3 13.7 C 0 km/h
1439 15-06-2009 23:53:26 13.6 C 10.71 g/m*3 13.6 C 0 km/h
1440 16-06-2009 00:05:26 13.5 C 10.64 g/m*3 13.5 C 0 km/h
1441 16-06-2009 00:17:26 13.4 C 10.58 g/m*3 13.4 C 0 km/h
1442 16-06-2009 00:29:26 13.2 C 10.45 g/m*3 13.2 C 0 km/h
1443 16-06-2009 00:41:26 13 C 10.43 g/m*3 13 C 0 km/h
1444 16-06-2009 00:53:26 12.8 C 10.3 g/m*3 12.8 C 0 km/h
1445 16-06-2009 01:05:27 12.8 C 10.42 g/m*3 12.8 C 0 km/h
1446 16-06-2009 01:17:27 12.7 C 10.35 g/m*3 12.7 C 0 km/h
1447 16-06-2009 01:29:27 12.5 C 10.22 g/m*3 12.5 C 0 km/h
1448 16-06-2009 01:41:27 12.3 C 10.1 g/m*3 12.3 C 0 km/h
1449 16-06-2009 01:53:27 12.1 C 9.97 g/m*3 12.1 C 0 km/h
1450 16-06-2009 02:05:27 12.1 C 9.97 g/m*3 12.1 C 0 km/h
Sensor: Nr:Datum:Temp:Abs-Feuchte:Windchill:Wind:
Aussen-T/F 1451 16-06-2009 02:17:27 12.1 C 9.97 g/m*3 12.1 C 0 km/h
1452 16-06-2009 02:29:27 12 C 10.02 g/m*3 12 C 0 km/h
1453 16-06-2009 02:41:27 12 C 10.02 g/m*3 12 C 0 km/h
1454 16-06-2009 02:53:27 12 C 10.02 g/m*3 12 C 0 km/h
1455 16-06-2009 03:05:27 12 C 10.02 g/m*3 12 C 0 km/h
1456 16-06-2009 03:17:27 12.1 C 10.08 g/m*3 12.1 C 0 km/h
1457 16-06-2009 03:29:27 12.1 C 10.08 g/m*3 12.1 C 0 km/h
1458 16-06-2009 03:41:27 12.1 C 10.19 g/m*3 12.1 C 0 km/h
1459 16-06-2009 03:53:27 11.8 C 10 g/m*3 11.8 C 0 km/h
1460 16-06-2009 04:05:27 11.8 C 10 g/m*3 11.8 C 0 km/h
1461 16-06-2009 04:17:27 12.1 C 10.19 g/m*3 12.1 C 0 km/h
1462 16-06-2009 04:29:27 12.1 C 10.19 g/m*3 12.1 C 0 km/h
1463 16-06-2009 04:41:27 12.1 C 10.19 g/m*3 12.1 C 0 km/h
1464 16-06-2009 04:53:28 12 C 10.12 g/m*3 12 C 0 km/h
1465 16-06-2009 05:05:28 12.1 C 10.19 g/m*3 12.1 C 0 km/h
1466 16-06-2009 05:17:28 12.2 C 10.25 g/m*3 12.2 C 0 km/h
1467 16-06-2009 05:29:28 12.4 C 10.38 g/m*3 12.4 C 0 km/h
1468 16-06-2009 05:41:28 12.4 C 10.38 g/m*3 12.4 C 0 km/h
1469 16-06-2009 05:53:28 12.4 C 10.38 g/m*3 12.4 C 0 km/h
1470 16-06-2009 06:05:28 12.4 C 10.38 g/m*3 12.4 C 0 km/h
1471 16-06-2009 06:17:28 12.4 C 10.38 g/m*3 12.4 C 0 km/h
1472 16-06-2009 06:29:28 12.4 C 10.38 g/m*3 12.4 C 0 km/h
1473 16-06-2009 06:41:28 12.3 C 10.32 g/m*3 12.3 C 0 km/h
1474 16-06-2009 06:53:26 12.3 C 10.32 g/m*3 12.3 C 0 km/h
1475 16-06-2009 07:05:26 12.3 C 10.32 g/m*3 12.3 C 0 km/h
Sensor: Nr:Datum:Temp:Abs-Feuchte:Windchill:Wind:
Aussen-T/F 1476 16-06-2009 07:17:26 12.4 C 10.38 g/m*3 12.4 C 0 km/h
1477 16-06-2009 07:29:26 12.5 C 10.44 g/m*3 12.5 C 0 km/h
1478 16-06-2009 07:41:26 12.6 C 10.51 g/m*3 12.6 C 0 km/h
1479 16-06-2009 07:53:25 12.6 C 10.51 g/m*3 12.6 C 0 km/h
1480 16-06-2009 08:05:26 12.8 C 10.64 g/m*3 12.8 C 0 km/h
1481 16-06-2009 08:17:25 12.7 C 10.58 g/m*3 12.7 C 0 km/h
1482 16-06-2009 08:29:25 12.9 C 10.71 g/m*3 12.9 C 0 km/h
1483 16-06-2009 08:41:25 13.2 C 10.91 g/m*3 13.2 C 0 km/h
1484 16-06-2009 08:53:25 13.2 C 10.91 g/m*3 13.2 C 0 km/h
1485 16-06-2009 09:05:25 13.6 C 11.18 g/m*3 13.6 C 0 km/h
1486 16-06-2009 09:17:25 13.5 C 11.11 g/m*3 13.5 C 0 km/h
1487 16-06-2009 09:29:25 14.1 C 11.41 g/m*3 14.1 C 0 km/h
1488 16-06-2009 09:41:24 14.5 C 11.44 g/m*3 14.5 C 0 km/h
1489 16-06-2009 09:53:25 14.4 C 11 g/m*3 14.4 C 0 km/h
1490 16-06-2009 10:05:24 14.7 C 10.58 g/m*3 14.7 C 0 km/h
1491 16-06-2009 10:17:24 15.2 C 10.25 g/m*3 15.2 C 0 km/h
1492 16-06-2009 10:29:24 16.5 C 10.53 g/m*3 16.5 C 0 km/h
1493 16-06-2009 10:41:24 16.1 C 10.01 g/m*3 16.1 C 0 km/h
1494 16-06-2009 10:53:24 16.6 C 10.17 g/m*3 16.6 C 0 km/h
1495 16-06-2009 11:05:23 17.7 C 9.81 g/m*3 17.7 C 0 km/h
1496 16-06-2009 11:17:23 17.5 C 9.39 g/m*3 17.5 C 0 km/h
1497 16-06-2009 11:29:23 18.1 C 9.43 g/m*3 18.1 C 0 km/h
1498 16-06-2009 11:41:24 18.7 C 8.65 g/m*3 18.7 C 0 km/h
1499 16-06-2009 11:53:23 19 C 8.47 g/m*3 19 C 0 km/h
1500 16-06-2009 12:05:23 19.8 C 7.34 g/m*3 19.8 C 0 km/h
Sensor: Nr:Datum:Temp:Abs-Feuchte:Windchill:Wind:
Aussen-T/F 1501 16-06-2009 12:17:23 20.2 C 7.52 g/m*3 20.2 C 0 km/h
1502 16-06-2009 12:29:23 20.8 C 7.24 g/m*3 20.8 C 0 km/h
1503 16-06-2009 12:41:23 21.4 C 6.75 g/m*3 21.4 C 0 km/h
1504 16-06-2009 12:53:22 20 C 6.74 g/m*3 20 C 0 km/h
1505 16-06-2009 13:05:23 21.6 C 6.64 g/m*3 21.6 C 0 km/h
1506 16-06-2009 13:17:23 21.7 C 6.49 g/m*3 21.7 C 0 km/h
1507 16-06-2009 13:29:23 21.5 C 6.6 g/m*3 21.5 C 0 km/h
1508 16-06-2009 13:41:22 23 C 5.96 g/m*3 23 C 0 km/h
1509 16-06-2009 13:53:23 23.6 C 5.96 g/m*3 23.6 C 0 km/h
1510 16-06-2009 14:05:22 22.8 C 5.69 g/m*3 22.8 C 0 km/h
1511 16-06-2009 14:17:22 22.3 C 5.92 g/m*3 22.3 C 0 km/h
1512 16-06-2009 14:29:23 22.3 C 5.92 g/m*3 22.3 C 0 km/h
1513 16-06-2009 14:41:21 22.3 C 6.12 g/m*3 22.3 C 0 km/h
1514 16-06-2009 14:53:22 20.7 C 5.94 g/m*3 20.7 C 0 km/h
1515 16-06-2009 15:05:21 19.9 C 6.36 g/m*3 19.9 C 0 km/h
1516 16-06-2009 15:17:21 20.3 C 6.86 g/m*3 20.3 C 0 km/h
1517 16-06-2009 15:29:21 21.6 C 7.02 g/m*3 21.6 C 0 km/h
1518 16-06-2009 15:41:22 20.7 C 6.12 g/m*3 20.7 C 0 km/h
1519 16-06-2009 15:53:21 18.8 C 9.34 g/m*3 18.8 C 0 km/h
1520 16-06-2009 16:05:21 20.1 C 12.34 g/m*3 20.1 C 0 km/h
1521 16-06-2009 16:17:20 22.4 C 13.31 g/m*3 22.4 C 0 km/h
1522 16-06-2009 16:29:20 21 C 8.79 g/m*3 21 C 0 km/h
1523 16-06-2009 16:41:21 20.4 C 7.78 g/m*3 20.4 C 0 km/h
1524 16-06-2009 16:53:20 20.7 C 6.66 g/m*3 20.7 C 0 km/h
1525 16-06-2009 17:05:20 20.3 C 7.03 g/m*3 20.3 C 0 km/h
Sensor: Nr:Datum:Temp:Abs-Feuchte:Windchill:Wind:
Aussen-T/F 1526 16-06-2009 17:17:20 19.6 C 7.26 g/m*3 19.6 C 0 km/h
1527 16-06-2009 17:29:20 19.6 C 8.61 g/m*3 19.6 C 0 km/h
1528 16-06-2009 17:41:20 20.1 C 8.87 g/m*3 20.1 C 0 km/h
1529 16-06-2009 17:53:19 20.9 C 8.56 g/m*3 20.9 C 0 km/h
1530 16-06-2009 18:05:20 23 C 8.43 g/m*3 23 C 0 km/h
1531 16-06-2009 18:17:20 23.7 C 8.13 g/m*3 23.7 C 0 km/h
1532 16-06-2009 18:29:20 23.3 C 8.15 g/m*3 23.3 C 0 km/h
1533 16-06-2009 18:41:19 24.7 C 7.92 g/m*3 24.7 C 0 km/h
1534 16-06-2009 18:53:20 22.1 C 7.22 g/m*3 22.1 C 0 km/h
1535 16-06-2009 19:05:19 20.8 C 7.97 g/m*3 20.8 C 0 km/h
1536 16-06-2009 19:17:19 22.3 C 7.9 g/m*3 22.3 C 0 km/h
1537 16-06-2009 19:29:19 20.2 C 7.69 g/m*3 20.2 C 0 km/h
1538 16-06-2009 19:41:18 20.5 C 8.01 g/m*3 20.5 C 0 km/h
1539 16-06-2009 19:53:19 20 C 7.6 g/m*3 20 C 0 km/h
1540 16-06-2009 20:05:19 20 C 7.95 g/m*3 20 C 0 km/h
1541 16-06-2009 20:17:18 20.6 C 7.87 g/m*3 20.6 C 0 km/h
1542 16-06-2009 20:29:18 20.1 C 7.65 g/m*3 20.1 C 0 km/h
1543 16-06-2009 20:41:19 19.6 C 7.6 g/m*3 19.6 C 0 km/h
1544 16-06-2009 20:53:18 19.5 C 7.89 g/m*3 19.5 C 0 km/h
1545 16-06-2009 21:05:18 19.3 C 8.13 g/m*3 19.3 C 0 km/h
1546 16-06-2009 21:17:18 18.9 C 8.59 g/m*3 18.9 C 0 km/h
1547 16-06-2009 21:29:19 18.2 C 8.7 g/m*3 18.2 C 0 km/h
1548 16-06-2009 21:41:17 17.3 C 8.84 g/m*3 17.3 C 0 km/h
1549 16-06-2009 21:53:18 16.7 C 8.95 g/m*3 16.7 C 0 km/h
1550 16-06-2009 22:05:17 16.1 C 8.91 g/m*3 16.1 C 0 km/h
Sensor: Nr:Datum:Temp:Abs-Feuchte:Windchill:Wind:
Aussen-T/F 1551 16-06-2009 22:17:17 15.7 C 8.96 g/m*3 15.7 C 0 km/h
1552 16-06-2009 22:29:17 15.2 C 8.96 g/m*3 15.2 C 0 km/h
1553 16-06-2009 22:42:17 15 C 9.1 g/m*3 15 C 0 km/h
1554 16-06-2009 22:54:17 14.9 C 9.43 g/m*3 14.9 C 0 km/h
1555 16-06-2009 23:06:17 14.8 C 9.37 g/m*3 14.8 C 0 km/h
1556 16-06-2009 23:18:17 14.6 C 9.39 g/m*3 14.6 C 0 km/h
1557 16-06-2009 23:30:17 14.5 C 9.45 g/m*3 14.5 C 0 km/h
1558 16-06-2009 23:42:17 14.3 C 9.46 g/m*3 14.3 C 0 km/h
1559 16-06-2009 23:54:17 14 C 9.41 g/m*3 14 C 0 km/h
1560 17-06-2009 00:06:17 13.7 C 9.35 g/m*3 13.7 C 0 km/h
1561 17-06-2009 00:18:18 13.7 C 9.47 g/m*3 13.7 C 0 km/h
1562 17-06-2009 00:30:18 13.6 C 9.53 g/m*3 13.6 C 0 km/h
1563 17-06-2009 00:42:18 13.4 C 9.42 g/m*3 13.4 C 0 km/h
1564 17-06-2009 00:54:18 13.3 C 9.36 g/m*3 13.3 C 0 km/h
1565 17-06-2009 01:06:18 13.1 C 9.24 g/m*3 13.1 C 0 km/h
1566 17-06-2009 01:18:18 12.9 C 9.24 g/m*3 12.9 C 0 km/h
1567 17-06-2009 01:30:18 12.8 C 9.18 g/m*3 12.8 C 0 km/h
1568 17-06-2009 01:42:18 12.6 C 9.18 g/m*3 12.6 C 0 km/h
1569 17-06-2009 01:54:18 12.5 C 9.35 g/m*3 12.5 C 0 km/h
1570 17-06-2009 02:06:18 12.2 C 9.17 g/m*3 12.2 C 0 km/h
1571 17-06-2009 02:18:18 11.9 C 9.21 g/m*3 11.9 C 0 km/h
1572 17-06-2009 02:30:18 11.8 C 9.16 g/m*3 11.8 C 0 km/h
1573 17-06-2009 02:42:18 11.6 C 9.04 g/m*3 11.6 C 0 km/h
1574 17-06-2009 02:54:18 11.5 C 8.99 g/m*3 11.5 C 0 km/h
1575 17-06-2009 03:06:18 11.5 C 8.99 g/m*3 11.5 C 0 km/h
Sensor: Nr:Datum:Temp:Abs-Feuchte:Windchill:Wind:
Aussen-T/F 1576 17-06-2009 03:18:18 11.4 C 8.93 g/m*3 11.4 C 0 km/h
1577 17-06-2009 03:30:18 11.8 C 9.26 g/m*3 11.8 C 0 km/h
1578 17-06-2009 03:42:18 12 C 9.27 g/m*3 12 C 0 km/h
1579 17-06-2009 03:54:18 12.2 C 9.28 g/m*3 12.2 C 0 km/h
1580 17-06-2009 04:06:18 12.2 C 9.17 g/m*3 12.2 C 0 km/h
1581 17-06-2009 04:18:19 12.2 C 9.17 g/m*3 12.2 C 0 km/h
1582 17-06-2009 04:30:19 12 C 8.95 g/m*3 12 C 0 km/h
1583 17-06-2009 04:42:19 11.9 C 9 g/m*3 11.9 C 0 km/h
1584 17-06-2009 04:54:19 11.9 C 9 g/m*3 11.9 C 0 km/h
1585 17-06-2009 05:06:19 12.1 C 9.01 g/m*3 12.1 C 0 km/h
1586 17-06-2009 05:18:19 11.8 C 8.95 g/m*3 11.8 C 0 km/h
1587 17-06-2009 05:30:19 11.8 C 8.95 g/m*3 11.8 C 0 km/h
1588 17-06-2009 05:42:19 11.6 C 8.94 g/m*3 11.6 C 0 km/h
1589 17-06-2009 05:54:19 11.5 C 8.88 g/m*3 11.5 C 0 km/h
1590 17-06-2009 06:06:19 11.3 C 8.87 g/m*3 11.3 C 0 km/h
1591 17-06-2009 06:18:19 11.3 C 8.98 g/m*3 11.3 C 0 km/h
1592 17-06-2009 06:30:19 11.4 C 9.03 g/m*3 11.4 C 0 km/h
1593 17-06-2009 06:42:19 11.2 C 8.82 g/m*3 11.2 C 0 km/h
1594 17-06-2009 06:54:19 11.3 C 8.87 g/m*3 11.3 C 0 km/h
1595 17-06-2009 07:06:17 11.5 C 9.09 g/m*3 11.5 C 0 km/h
1596 17-06-2009 07:18:18 11.7 C 9.1 g/m*3 11.7 C 0 km/h
1597 17-06-2009 07:30:18 11.9 C 9 g/m*3 11.9 C 0 km/h
1598 17-06-2009 07:42:18 12.3 C 9.12 g/m*3 12.3 C 0 km/h
1599 17-06-2009 07:54:17 12.5 C 9.13 g/m*3 12.5 C 0 km/h
1600 17-06-2009 08:06:17 13 C 9.19 g/m*3 13 C 0 km/h
Sensor: Nr:Datum:Temp:Abs-Feuchte:Windchill:Wind:
Aussen-T/F 1601 17-06-2009 08:18:17 13 C 9.07 g/m*3 13 C 0 km/h
1602 17-06-2009 08:30:16 13.4 C 9.3 g/m*3 13.4 C 0 km/h
1603 17-06-2009 08:42:16 14.2 C 9.52 g/m*3 14.2 C 0 km/h
1604 17-06-2009 08:54:17 14.1 C 9.1 g/m*3 14.1 C 0 km/h
1605 17-06-2009 09:06:16 14.1 C 9.1 g/m*3 14.1 C 0 km/h
1606 17-06-2009 09:18:16 15 C 9.36 g/m*3 15 C 0 km/h
1607 17-06-2009 09:30:17 15.6 C 9.44 g/m*3 15.6 C 0 km/h
1608 17-06-2009 09:42:17 15.9 C 9.48 g/m*3 15.9 C 0 km/h
1609 17-06-2009 09:54:16 15.8 C 9.83 g/m*3 15.8 C 0 km/h
1610 17-06-2009 10:06:15 16.9 C 10.36 g/m*3 16.9 C 0 km/h
1611 17-06-2009 10:18:16 17.4 C 9.93 g/m*3 17.4 C 0 km/h
1612 17-06-2009 10:30:16 18.2 C 9.79 g/m*3 18.2 C 0 km/h
1613 17-06-2009 10:42:16 18.3 C 9.22 g/m*3 18.3 C 0 km/h
1614 17-06-2009 10:54:15 19.6 C 9.28 g/m*3 19.6 C 0 km/h
1615 17-06-2009 11:06:16 19.8 C 8.88 g/m*3 19.8 C 0 km/h
1616 17-06-2009 11:18:15 20.9 C 9.11 g/m*3 20.9 C 0 km/h
1617 17-06-2009 11:30:15 22.2 C 9.03 g/m*3 22.2 C 0 km/h
1618 17-06-2009 11:42:15 21.7 C 8.2 g/m*3 21.7 C 0 km/h
1619 17-06-2009 11:54:15 22.6 C 8.04 g/m*3 22.6 C 0 km/h
1620 17-06-2009 12:06:15 24.1 C 7.66 g/m*3 24.1 C 0 km/h
1621 17-06-2009 12:18:15 25 C 6.45 g/m*3 25 C 0 km/h
1622 17-06-2009 12:30:14 23.9 C 7.36 g/m*3 23.9 C 0 km/h
1623 17-06-2009 12:42:14 25 C 6.91 g/m*3 25 C 0 km/h
1624 17-06-2009 12:54:15 25.4 C 7.06 g/m*3 25.4 C 0 km/h
1625 17-06-2009 13:06:14 25.7 C 6.46 g/m*3 25.7 C 0 km/h
Sensor: Nr:Datum:Temp:Abs-Feuchte:Windchill:Wind:
Aussen-T/F 1626 17-06-2009 13:18:14 28.5 C 6.71 g/m*3 28.5 C 0 km/h
1627 17-06-2009 13:30:13 28.9 C 5.71 g/m*3 28.9 C 0 km/h
1628 17-06-2009 13:42:13 29 C 5.74 g/m*3 29 C 0 km/h
1629 17-06-2009 13:54:14 28.8 C 5.68 g/m*3 28.8 C 0 km/h
1630 17-06-2009 14:06:13 28.1 C 6.02 g/m*3 28.1 C 0 km/h
1631 17-06-2009 14:18:13 27.3 C 6.54 g/m*3 27.3 C 0 km/h
1632 17-06-2009 14:30:14 27.8 C 6.72 g/m*3 27.8 C 0 km/h
1633 17-06-2009 14:42:14 27.2 C 5.99 g/m*3 27.2 C 0 km/h
1634 17-06-2009 14:54:13 28.6 C 6.18 g/m*3 28.6 C 0 km/h
1635 17-06-2009 15:06:13 28.8 C 5.68 g/m*3 28.8 C 0 km/h
1636 17-06-2009 15:18:13 27.3 C 5.76 g/m*3 27.3 C 0 km/h
1637 17-06-2009 15:30:13 28.1 C 5.74 g/m*3 28.1 C 0 km/h
1638 17-06-2009 15:42:13 29.9 C 6.03 g/m*3 29.9 C 0 km/h
1639 17-06-2009 15:54:12 29.2 C 5.81 g/m*3 29.2 C 0 km/h
1640 17-06-2009 16:06:13 29.2 C 5.81 g/m*3 29.2 C 0 km/h
1641 17-06-2009 16:18:13 29.7 C 5.97 g/m*3 29.7 C 0 km/h
1642 17-06-2009 16:30:12 30.4 C 6.2 g/m*3 30.4 C 0 km/h
1643 17-06-2009 16:42:12 30.3 C 6.16 g/m*3 30.3 C 0 km/h
1644 17-06-2009 16:54:13 30.6 C 6.26 g/m*3 30.6 C 0 km/h
1645 17-06-2009 17:06:12 30.8 C 6.33 g/m*3 30.8 C 0 km/h
1646 17-06-2009 17:18:12 30.9 C 6.37 g/m*3 30.9 C 0 km/h
1647 17-06-2009 17:30:11 31.1 C 6.43 g/m*3 31.1 C 0 km/h
1648 17-06-2009 17:42:11 30.8 C 6.33 g/m*3 30.8 C 0 km/h
1649 17-06-2009 17:54:12 30.6 C 6.26 g/m*3 30.6 C 0 km/h
1650 17-06-2009 18:06:11 30.7 C 6.3 g/m*3 30.7 C 0 km/h
Sensor: Nr:Datum:Temp:Abs-Feuchte:Windchill:Wind:
Aussen-T/F 1651 17-06-2009 18:18:11 30.6 C 6.26 g/m*3 30.6 C 0 km/h
1652 17-06-2009 18:30:12 30 C 6.06 g/m*3 30 C 0 km/h
1653 17-06-2009 18:42:12 29.1 C 6.35 g/m*3 29.1 C 0 km/h
1654 17-06-2009 18:54:11 29.8 C 6.3 g/m*3 29.8 C 0 km/h
1655 17-06-2009 19:06:11 28.7 C 7.63 g/m*3 28.7 C 0 km/h
1656 17-06-2009 19:18:10 27.6 C 7.71 g/m*3 27.6 C 0 km/h
1657 17-06-2009 19:30:11 26.8 C 8.14 g/m*3 26.8 C 0 km/h
1658 17-06-2009 19:42:11 25.9 C 8.47 g/m*3 25.9 C 0 km/h
1659 17-06-2009 19:54:10 25.3 C 8.43 g/m*3 25.3 C 0 km/h
1660 17-06-2009 20:06:10 24.5 C 8.5 g/m*3 24.5 C 0 km/h
1661 17-06-2009 20:18:10 24.3 C 8.63 g/m*3 24.3 C 0 km/h
1662 17-06-2009 20:30:10 24.2 C 8.8 g/m*3 24.2 C 0 km/h
1663 17-06-2009 20:42:10 24.1 C 8.53 g/m*3 24.1 C 0 km/h
1664 17-06-2009 20:54:09 23.5 C 8.67 g/m*3 23.5 C 0 km/h
1665 17-06-2009 21:06:10 22.8 C 8.94 g/m*3 22.8 C 0 km/h
1666 17-06-2009 21:18:09 22 C 8.73 g/m*3 22 C 0 km/h
1667 17-06-2009 21:30:09 21.4 C 8.62 g/m*3 21.4 C 0 km/h
1668 17-06-2009 21:42:09 20.8 C 8.51 g/m*3 20.8 C 0 km/h
1669 17-06-2009 21:54:09 20.4 C 8.49 g/m*3 20.4 C 0 km/h
1670 17-06-2009 22:06:09 20.2 C 8.22 g/m*3 20.2 C 0 km/h
1671 17-06-2009 22:18:09 20.3 C 7.91 g/m*3 20.3 C 0 km/h
1672 17-06-2009 22:31:10 20.4 C 7.61 g/m*3 20.4 C 0 km/h
1673 17-06-2009 22:43:10 20.4 C 7.78 g/m*3 20.4 C 0 km/h
1674 17-06-2009 22:55:10 19.9 C 8.25 g/m*3 19.9 C 0 km/h
1675 17-06-2009 23:07:10 19.6 C 8.27 g/m*3 19.6 C 0 km/h
Sensor: Nr:Datum:Temp:Abs-Feuchte:Windchill:Wind:
Aussen-T/F 1676 17-06-2009 23:19:10 19.5 C 7.72 g/m*3 19.5 C 0 km/h
1677 17-06-2009 23:31:10 19.2 C 7.91 g/m*3 19.2 C 0 km/h
1678 17-06-2009 23:43:10 18.8 C 8.37 g/m*3 18.8 C 0 km/h
1679 17-06-2009 23:55:10 18.4 C 8.34 g/m*3 18.4 C 0 km/h
1680 18-06-2009 00:07:10 18.2 C 8.24 g/m*3 18.2 C 0 km/h
1681 18-06-2009 00:19:10 17.9 C 8.4 g/m*3 17.9 C 0 km/h
1682 18-06-2009 00:31:10 17.6 C 8.4 g/m*3 17.6 C 0 km/h
1683 18-06-2009 00:43:10 17.4 C 8.45 g/m*3 17.4 C 0 km/h
1684 18-06-2009 00:55:10 17.1 C 8.3 g/m*3 17.1 C 0 km/h
1685 18-06-2009 01:07:10 16.9 C 8.34 g/m*3 16.9 C 0 km/h
1686 18-06-2009 01:19:10 16.7 C 8.53 g/m*3 16.7 C 0 km/h
1687 18-06-2009 01:31:10 16.6 C 8.62 g/m*3 16.6 C 0 km/h
1688 18-06-2009 01:43:10 16.4 C 8.79 g/m*3 16.4 C 0 km/h
1689 18-06-2009 01:55:10 16.2 C 8.96 g/m*3 16.2 C 0 km/h
1690 18-06-2009 02:07:10 16.2 C 8.96 g/m*3 16.2 C 0 km/h
1691 18-06-2009 02:19:10 15.9 C 9.07 g/m*3 15.9 C 0 km/h
1692 18-06-2009 02:31:11 15.7 C 9.1 g/m*3 15.7 C 0 km/h
1693 18-06-2009 02:43:11 15.4 C 9.33 g/m*3 15.4 C 0 km/h
1694 18-06-2009 02:55:11 15.4 C 9.33 g/m*3 15.4 C 0 km/h
1695 18-06-2009 03:07:11 15.1 C 9.42 g/m*3 15.1 C 0 km/h
1696 18-06-2009 03:19:11 15 C 9.49 g/m*3 15 C 0 km/h
1697 18-06-2009 03:31:11 14.8 C 9.5 g/m*3 14.8 C 0 km/h
1698 18-06-2009 03:43:11 14.7 C 9.44 g/m*3 14.7 C 0 km/h
1699 18-06-2009 03:55:11 14.5 C 9.58 g/m*3 14.5 C 0 km/h
1700 18-06-2009 04:07:11 14.4 C 9.64 g/m*3 14.4 C 0 km/h
Sensor: Nr:Datum:Temp:Abs-Feuchte:Windchill:Wind:
Aussen-T/F 1701 18-06-2009 04:19:11 14.5 C 9.7 g/m*3 14.5 C 0 km/h
1702 18-06-2009 04:31:11 14.3 C 9.58 g/m*3 14.3 C 0 km/h
1703 18-06-2009 04:43:11 13.8 C 9.41 g/m*3 13.8 C 0 km/h
1704 18-06-2009 04:55:11 13.7 C 9.59 g/m*3 13.7 C 0 km/h
1705 18-06-2009 05:07:11 13.5 C 9.71 g/m*3 13.5 C 0 km/h
1706 18-06-2009 05:19:11 13.4 C 9.65 g/m*3 13.4 C 0 km/h
1707 18-06-2009 05:31:11 13.5 C 9.71 g/m*3 13.5 C 0 km/h
1708 18-06-2009 05:43:11 13.7 C 9.59 g/m*3 13.7 C 0 km/h
1709 18-06-2009 05:55:11 13.7 C 9.59 g/m*3 13.7 C 0 km/h
1710 18-06-2009 06:07:12 13.5 C 9.47 g/m*3 13.5 C 0 km/h
1711 18-06-2009 06:19:12 13.7 C 9.71 g/m*3 13.7 C 0 km/h
1712 18-06-2009 06:31:12 14 C 9.65 g/m*3 14 C 0 km/h
1713 18-06-2009 06:43:12 14.3 C 9.71 g/m*3 14.3 C 0 km/h
1714 18-06-2009 06:55:12 14.6 C 9.64 g/m*3 14.6 C 0 km/h
1715 18-06-2009 07:07:10 14.9 C 9.69 g/m*3 14.9 C 0 km/h
1716 18-06-2009 07:19:09 15.5 C 9.91 g/m*3 15.5 C 0 km/h
1717 18-06-2009 07:31:10 16 C 9.81 g/m*3 16 C 0 km/h
1718 18-06-2009 07:43:10 16.2 C 9.79 g/m*3 16.2 C 0 km/h
1719 18-06-2009 07:55:09 16.4 C 9.91 g/m*3 16.4 C 0 km/h
1720 18-06-2009 08:07:09 16.7 C 10.09 g/m*3 16.7 C 0 km/h
1721 18-06-2009 08:19:10 16.9 C 10.21 g/m*3 16.9 C 0 km/h
1722 18-06-2009 08:31:09 16.9 C 10.21 g/m*3 16.9 C 0 km/h
1723 18-06-2009 08:43:09 17.2 C 10.25 g/m*3 17.2 C 0 km/h
1724 18-06-2009 08:55:09 17.5 C 10.29 g/m*3 17.5 C 0 km/h
1725 18-06-2009 09:07:09 18.1 C 10.35 g/m*3 18.1 C 0 km/h
Sensor: Nr:Datum:Temp:Abs-Feuchte:Windchill:Wind:
Aussen-T/F 1726 18-06-2009 09:19:08 18.4 C 10.38 g/m*3 18.4 C 0 km/h
1727 18-06-2009 09:31:08 18.4 C 10.38 g/m*3 18.4 C 0 km/h
1728 18-06-2009 09:43:08 18.7 C 10.57 g/m*3 18.7 C 0 km/h
1729 18-06-2009 09:55:08 18.9 C 10.53 g/m*3 18.9 C 0 km/h
1730 18-06-2009 10:07:08 19.4 C 10.51 g/m*3 19.4 C 0 km/h
1731 18-06-2009 10:19:08 19.6 C 10.47 g/m*3 19.6 C 0 km/h
1732 18-06-2009 10:31:08 19.7 C 10.53 g/m*3 19.7 C 0 km/h
1733 18-06-2009 10:43:08 20.1 C 10.43 g/m*3 20.1 C 0 km/h
1734 18-06-2009 10:55:08 21 C 10.44 g/m*3 21 C 0 km/h
1735 18-06-2009 11:07:07 21.9 C 10.81 g/m*3 21.9 C 0 km/h
1736 18-06-2009 11:19:08 22.5 C 9.99 g/m*3 22.5 C 0 km/h
1737 18-06-2009 11:31:07 22.9 C 9.2 g/m*3 22.9 C 0 km/h
1738 18-06-2009 11:43:07 23.4 C 9.46 g/m*3 23.4 C 0 km/h
1739 18-06-2009 11:55:07 22.9 C 9.4 g/m*3 22.9 C 0 km/h
1740 18-06-2009 12:07:08 22.8 C 9.75 g/m*3 22.8 C 0 km/h
1741 18-06-2009 12:19:07 23.8 C 9.68 g/m*3 23.8 C 0 km/h
1742 18-06-2009 12:31:07 23.3 C 9.41 g/m*3 23.3 C 0 km/h
1743 18-06-2009 12:43:07 22.8 C 9.96 g/m*3 22.8 C 0 km/h
1744 18-06-2009 12:55:06 22.7 C 10.3 g/m*3 22.7 C 0 km/h
1745 18-06-2009 13:07:07 22.1 C 9.76 g/m*3 22.1 C 0 km/h
1746 18-06-2009 13:19:06 21.7 C 10.68 g/m*3 21.7 C 0 km/h
1747 18-06-2009 13:31:06 22.4 C 10.72 g/m*3 22.4 C 0 km/h
1748 18-06-2009 13:43:06 22.9 C 10.01 g/m*3 22.9 C 0 km/h
1749 18-06-2009 13:55:06 22.6 C 10.25 g/m*3 22.6 C 0 km/h
1750 18-06-2009 14:07:06 22.7 C 10.3 g/m*3 22.7 C 0 km/h
Sensor: Nr:Datum:Temp:Abs-Feuchte:Windchill:Wind:
Aussen-T/F 1751 18-06-2009 14:19:06 23 C 11.1 g/m*3 23 C 0 km/h
1752 18-06-2009 14:31:05 23.7 C 10.91 g/m*3 23.7 C 0 km/h
1753 18-06-2009 14:43:05 23.4 C 10.93 g/m*3 23.4 C 0 km/h
1754 18-06-2009 14:55:06 22.5 C 10.19 g/m*3 22.5 C 0 km/h
1755 18-06-2009 15:07:05 22.5 C 10.79 g/m*3 22.5 C 0 km/h
1756 18-06-2009 15:19:05 22.3 C 10.47 g/m*3 22.3 C 0 km/h
1757 18-06-2009 15:31:05 22 C 11.26 g/m*3 22 C 0 km/h
1758 18-06-2009 15:43:05 21 C 11.91 g/m*3 21 C 0 km/h
1759 18-06-2009 15:55:05 20.9 C 11.66 g/m*3 20.9 C 0 km/h
1760 18-06-2009 16:07:04 21.3 C 11.93 g/m*3 21.3 C 0 km/h
1761 18-06-2009 16:19:05 22 C 11.84 g/m*3 22 C 0 km/h
1762 18-06-2009 16:31:05 22.4 C 11.52 g/m*3 22.4 C 0 km/h
1763 18-06-2009 16:43:05 22.5 C 11.39 g/m*3 22.5 C 0 km/h
1764 18-06-2009 16:55:04 22 C 11.26 g/m*3 22 C 0 km/h
1765 18-06-2009 17:07:05 22.2 C 11.78 g/m*3 22.2 C 0 km/h
1766 18-06-2009 17:19:04 22.3 C 11.85 g/m*3 22.3 C 0 km/h
1767 18-06-2009 17:31:04 22 C 12.03 g/m*3 22 C 0 km/h
1768 18-06-2009 17:43:04 22.6 C 12.25 g/m*3 22.6 C 0 km/h
1769 18-06-2009 17:55:04 23.3 C 11.5 g/m*3 23.3 C 0 km/h
1770 18-06-2009 18:07:04 23.4 C 11.14 g/m*3 23.4 C 0 km/h
1771 18-06-2009 18:19:03 24.5 C 10.07 g/m*3 24.5 C 0 km/h
1772 18-06-2009 18:31:03 24.8 C 10.47 g/m*3 24.8 C 0 km/h
1773 18-06-2009 18:43:03 24.8 C 10.02 g/m*3 24.8 C 0 km/h
1774 18-06-2009 18:55:04 24 C 10.23 g/m*3 24 C 0 km/h
1775 18-06-2009 19:07:03 23.7 C 10.69 g/m*3 23.7 C 0 km/h
Sensor: Nr:Datum:Temp:Abs-Feuchte:Windchill:Wind:
Aussen-T/F 1776 18-06-2009 19:19:03 24.5 C 10.07 g/m*3 24.5 C 0 km/h
1777 18-06-2009 19:31:02 23.9 C 10.17 g/m*3 23.9 C 0 km/h
1778 18-06-2009 19:43:02 24.4 C 9.79 g/m*3 24.4 C 0 km/h
1779 18-06-2009 19:55:03 24.8 C 9.79 g/m*3 24.8 C 0 km/h
1780 18-06-2009 20:07:02 25.2 C 9.54 g/m*3 25.2 C 0 km/h
1781 18-06-2009 20:19:02 24.9 C 9.61 g/m*3 24.9 C 0 km/h
1782 18-06-2009 20:31:03 23.4 C 10.09 g/m*3 23.4 C 0 km/h
1783 18-06-2009 20:43:03 23.3 C 10.25 g/m*3 23.3 C 0 km/h
1784 18-06-2009 20:55:02 22.9 C 10.42 g/m*3 22.9 C 0 km/h
1785 18-06-2009 21:07:02 22.2 C 10.41 g/m*3 22.2 C 0 km/h
1786 18-06-2009 21:19:02 21.4 C 10.5 g/m*3 21.4 C 0 km/h
1787 18-06-2009 21:31:02 21.1 C 10.32 g/m*3 21.1 C 0 km/h
1788 18-06-2009 21:43:02 20.8 C 10.68 g/m*3 20.8 C 0 km/h
1789 18-06-2009 21:55:02 20.2 C 10.67 g/m*3 20.2 C 0 km/h
1790 18-06-2009 22:08:27 20 C 10.71 g/m*3 20 C 0 km/h
1791 18-06-2009 22:20:27 19.7 C 10.7 g/m*3 19.7 C 0 km/h
1792 18-06-2009 22:32:27 19.6 C 10.64 g/m*3 19.6 C 0 km/h
1793 18-06-2009 22:44:27 19.5 C 10.74 g/m*3 19.5 C 0 km/h
1794 18-06-2009 22:56:27 19.2 C 10.72 g/m*3 19.2 C 0 km/h
1795 18-06-2009 23:08:27 18.9 C 10.85 g/m*3 18.9 C 0 km/h
1796 18-06-2009 23:20:27 18.6 C 10.98 g/m*3 18.6 C 0 km/h
1797 18-06-2009 23:32:28 18.4 C 10.85 g/m*3 18.4 C 0 km/h
1798 18-06-2009 23:44:28 18.2 C 10.88 g/m*3 18.2 C 0 km/h
1799 18-06-2009 23:56:28 18.1 C 10.82 g/m*3 18.1 C 0 km/h
1800 19-06-2009 00:08:28 18.1 C 10.82 g/m*3 18.1 C 0 km/h
Sensor: Nr:Datum:Temp:Abs-Feuchte:Windchill:Wind:
Aussen-T/F 1801 19-06-2009 00:20:28 17.9 C 11.15 g/m*3 17.9 C 0 km/h
1802 19-06-2009 00:32:28 17.5 C 11.03 g/m*3 17.5 C 0 km/h
1803 19-06-2009 00:44:28 17.2 C 10.98 g/m*3 17.2 C 0 km/h
1804 19-06-2009 00:56:28 17 C 11 g/m*3 17 C 0 km/h
1805 19-06-2009 01:08:28 17 C 11.14 g/m*3 17 C 0 km/h
1806 19-06-2009 01:20:28 16.7 C 11.08 g/m*3 16.7 C 0 km/h
1807 19-06-2009 01:32:28 16.6 C 11.02 g/m*3 16.6 C 0 km/h
1808 19-06-2009 01:44:28 16.2 C 10.89 g/m*3 16.2 C 0 km/h
1809 19-06-2009 01:56:28 16 C 10.76 g/m*3 16 C 0 km/h
1810 19-06-2009 02:08:28 15.9 C 10.97 g/m*3 15.9 C 0 km/h
1811 19-06-2009 02:20:28 15.8 C 10.9 g/m*3 15.8 C 0 km/h
1812 19-06-2009 02:32:28 15.6 C 10.77 g/m*3 15.6 C 0 km/h
1813 19-06-2009 02:44:28 15.5 C 10.84 g/m*3 15.5 C 0 km/h
1814 19-06-2009 02:56:28 15.4 C 10.77 g/m*3 15.4 C 0 km/h
1815 19-06-2009 03:08:28 15.2 C 10.64 g/m*3 15.2 C 0 km/h
1816 19-06-2009 03:20:29 15.1 C 10.71 g/m*3 15.1 C 0 km/h
1817 19-06-2009 03:32:29 15 C 10.64 g/m*3 15 C 0 km/h
1818 19-06-2009 03:44:29 14.8 C 10.51 g/m*3 14.8 C 0 km/h
1819 19-06-2009 03:56:29 14.7 C 10.45 g/m*3 14.7 C 0 km/h
1820 19-06-2009 04:08:29 14.7 C 10.32 g/m*3 14.7 C 0 km/h
1821 19-06-2009 04:20:29 14.7 C 10.2 g/m*3 14.7 C 0 km/h
1822 19-06-2009 04:32:29 14.8 C 10.13 g/m*3 14.8 C 0 km/h
1823 19-06-2009 04:44:29 14.8 C 10.13 g/m*3 14.8 C 0 km/h
1824 19-06-2009 04:56:29 14.9 C 10.2 g/m*3 14.9 C 0 km/h
1825 19-06-2009 05:08:29 14.8 C 10.13 g/m*3 14.8 C 0 km/h
Sensor: Nr:Datum:Temp:Abs-Feuchte:Windchill:Wind:
Aussen-T/F 1826 19-06-2009 05:20:29 14.7 C 9.95 g/m*3 14.7 C 0 km/h
1827 19-06-2009 05:32:29 14.8 C 9.88 g/m*3 14.8 C 0 km/h
1828 19-06-2009 05:44:29 14.7 C 9.82 g/m*3 14.7 C 0 km/h
1829 19-06-2009 05:56:29 14.4 C 9.77 g/m*3 14.4 C 0 km/h
1830 19-06-2009 06:08:29 14.4 C 9.77 g/m*3 14.4 C 0 km/h
1831 19-06-2009 06:20:02 14.5 C 9.83 g/m*3 14.5 C 0 km/h
1832 19-06-2009 06:32:01 14.6 C 9.89 g/m*3 14.6 C 0 km/h
1833 19-06-2009 06:44:01 14.8 C 9.63 g/m*3 14.8 C 0 km/h
1834 19-06-2009 06:56:02 15 C 9.75 g/m*3 15 C 0 km/h
1835 19-06-2009 07:08:01 15.2 C 9.73 g/m*3 15.2 C 0 km/h
1836 19-06-2009 07:20:01 15.4 C 9.59 g/m*3 15.4 C 0 km/h
1837 19-06-2009 07:32:01 15.5 C 9.52 g/m*3 15.5 C 0 km/h
1838 19-06-2009 07:44:01 15.8 C 9.42 g/m*3 15.8 C 0 km/h
1839 19-06-2009 07:56:01 16.1 C 9.32 g/m*3 16.1 C 0 km/h
1840 19-06-2009 08:08:01 16.4 C 9.35 g/m*3 16.4 C 0 km/h
1841 19-06-2009 08:20:00 16.4 C 9.07 g/m*3 16.4 C 0 km/h
1842 19-06-2009 08:32:00 16.9 C 9.21 g/m*3 16.9 C 0 km/h
1843 19-06-2009 08:44:00 16.8 C 8.86 g/m*3 16.8 C 0 km/h
1844 19-06-2009 08:56:00 17.2 C 9.08 g/m*3 17.2 C 0 km/h
1845 19-06-2009 09:07:59 17.3 C 8.4 g/m*3 17.3 C 0 km/h
1846 19-06-2009 09:20:00 17.1 C 8.73 g/m*3 17.1 C 0 km/h
1847 19-06-2009 09:32:00 17.1 C 8.44 g/m*3 17.1 C 0 km/h
1848 19-06-2009 09:44:00 17.2 C 8.35 g/m*3 17.2 C 0 km/h
1849 19-06-2009 09:56:59 17.4 C 8.45 g/m*3 17.4 C 0 km/h
1850 19-06-2009 10:08:00 17.8 C 8.2 g/m*3 17.8 C 0 km/h
Sensor: Nr:Datum:Temp:Abs-Feuchte:Windchill:Wind:
Aussen-T/F 1851 19-06-2009 10:20:59 17.8 C 7.74 g/m*3 17.8 C 0 km/h
1852 19-06-2009 10:32:59 18.3 C 7.82 g/m*3 18.3 C 0 km/h
1853 19-06-2009 10:44:59 18.3 C 7.19 g/m*3 18.3 C 0 km/h
1854 19-06-2009 10:56:59 18.9 C 7.13 g/m*3 18.9 C 0 km/h
1855 19-06-2009 11:08:59 19.1 C 7.05 g/m*3 19.1 C 0 km/h
1856 19-06-2009 11:20:59 19 C 7.17 g/m*3 19 C 0 km/h
1857 19-06-2009 11:32:58 19.2 C 7.59 g/m*3 19.2 C 0 km/h
1858 19-06-2009 11:44:59 19.3 C 7.63 g/m*3 19.3 C 0 km/h
1859 19-06-2009 11:56:59 19.6 C 7.93 g/m*3 19.6 C 0 km/h
1860 19-06-2009 12:08:58 19.6 C 6.75 g/m*3 19.6 C 0 km/h
1861 19-06-2009 12:20:58 19.4 C 6.67 g/m*3 19.4 C 0 km/h
1862 19-06-2009 12:32:57 20.4 C 6.72 g/m*3 20.4 C 0 km/h
1863 19-06-2009 12:44:58 20.9 C 6.37 g/m*3 20.9 C 0 km/h
1864 19-06-2009 12:56:58 21.1 C 5.71 g/m*3 21.1 C 0 km/h
1865 19-06-2009 13:08:57 22.7 C 5.66 g/m*3 22.7 C 0 km/h
1866 19-06-2009 13:20:57 21.9 C 6.18 g/m*3 21.9 C 0 km/h
1867 19-06-2009 13:32:58 22.3 C 5.73 g/m*3 22.3 C 0 km/h
1868 19-06-2009 13:44:57 23.3 C 5.44 g/m*3 23.3 C 0 km/h
1869 19-06-2009 13:56:57 23.3 C 5.44 g/m*3 23.3 C 0 km/h
1870 19-06-2009 14:08:57 22.6 C 5.22 g/m*3 22.6 C 0 km/h
1871 19-06-2009 14:20:57 22.6 C 5.83 g/m*3 22.6 C 0 km/h
1872 19-06-2009 14:32:57 21.7 C 5.53 g/m*3 21.7 C 0 km/h
1873 19-06-2009 14:44:56 22.1 C 6.05 g/m*3 22.1 C 0 km/h
1874 19-06-2009 14:56:56 23.6 C 5.32 g/m*3 23.6 C 0 km/h
1875 19-06-2009 15:08:57 21.5 C 5.28 g/m*3 21.5 C 0 km/h
Sensor: Nr:Datum:Temp:Abs-Feuchte:Windchill:Wind:
Aussen-T/F 1876 19-06-2009 15:20:57 22.5 C 4.99 g/m*3 22.5 C 0 km/h
1877 19-06-2009 15:32:56 22.2 C 5.1 g/m*3 22.2 C 0 km/h
1878 19-06-2009 15:44:56 22.5 C 5.39 g/m*3 22.5 C 0 km/h
1879 19-06-2009 15:56:56 23.3 C 5.23 g/m*3 23.3 C 0 km/h
1880 19-06-2009 16:08:56 22.2 C 4.52 g/m*3 22.2 C 0 km/h
1881 19-06-2009 16:20:56 22 C 4.66 g/m*3 22 C 0 km/h
1882 19-06-2009 16:32:55 22.5 C 3.99 g/m*3 22.5 C 0 km/h
1883 19-06-2009 16:44:56 23.5 C 4.44 g/m*3 23.5 C 0 km/h
1884 19-06-2009 16:56:57 22.8 C 4.06 g/m*3 22.8 C 0 km/h
1885 19-06-2009 17:08:55 22.7 C 4.04 g/m*3 22.7 C 0 km/h
1886 19-06-2009 17:20:55 22.4 C 4.17 g/m*3 22.4 C 0 km/h
1887 19-06-2009 17:32:55 22.8 C 4.88 g/m*3 22.8 C 0 km/h
1888 19-06-2009 17:44:55 23 C 5.14 g/m*3 23 C 0 km/h
1889 19-06-2009 17:56:55 22.5 C 5.39 g/m*3 22.5 C 0 km/h
1890 19-06-2009 18:08:55 22.8 C 5.28 g/m*3 22.8 C 0 km/h
1891 19-06-2009 18:20:54 22 C 4.85 g/m*3 22 C 0 km/h
1892 19-06-2009 18:32:55 23.6 C 5.1 g/m*3 23.6 C 0 km/h
1893 19-06-2009 18:44:54 21.4 C 5.25 g/m*3 21.4 C 0 km/h
1894 19-06-2009 18:56:54 23 C 4.93 g/m*3 23 C 0 km/h
1895 19-06-2009 19:08:54 22.3 C 4.94 g/m*3 22.3 C 0 km/h
1896 19-06-2009 19:20:53 22.3 C 5.33 g/m*3 22.3 C 0 km/h
1897 19-06-2009 19:32:54 22 C 5.24 g/m*3 22 C 0 km/h
1898 19-06-2009 19:44:54 21.8 C 5.76 g/m*3 21.8 C 0 km/h
1899 19-06-2009 19:56:54 21.6 C 5.69 g/m*3 21.6 C 0 km/h
1900 19-06-2009 20:08:53 20.6 C 5.55 g/m*3 20.6 C 0 km/h
Sensor: Nr:Datum:Temp:Abs-Feuchte:Windchill:Wind:
Aussen-T/F 1901 19-06-2009 20:20:54 20.8 C 5.79 g/m*3 20.8 C 0 km/h
1902 19-06-2009 20:32:53 20.4 C 5.66 g/m*3 20.4 C 0 km/h
1903 19-06-2009 20:44:53 20.2 C 5.77 g/m*3 20.2 C 0 km/h
1904 19-06-2009 20:56:53 19.5 C 5.54 g/m*3 19.5 C 0 km/h
1905 19-06-2009 21:08:53 19.3 C 5.64 g/m*3 19.3 C 0 km/h
1906 19-06-2009 21:20:53 18.5 C 5.54 g/m*3 18.5 C 0 km/h
1907 19-06-2009 21:32:53 17.9 C 5.5 g/m*3 17.9 C 0 km/h
1908 19-06-2009 21:44:52 17.5 C 5.37 g/m*3 17.5 C 0 km/h
1909 19-06-2009 21:56:52 17.2 C 5.42 g/m*3 17.2 C 0 km/h
1910 19-06-2009 22:08:53 16.8 C 5.29 g/m*3 16.8 C 0 km/h
1911 19-06-2009 22:20:52 16.6 C 5.37 g/m*3 16.6 C 0 km/h
1912 19-06-2009 22:32:53 16.2 C 5.24 g/m*3 16.2 C 0 km/h
1913 19-06-2009 22:45:53 16 C 5.31 g/m*3 16 C 0 km/h
1914 19-06-2009 22:57:53 15.8 C 5.38 g/m*3 15.8 C 0 km/h
1915 19-06-2009 23:09:53 15.4 C 5.39 g/m*3 15.4 C 0 km/h
1916 19-06-2009 23:21:53 15.1 C 5.42 g/m*3 15.1 C 0 km/h
1917 19-06-2009 23:33:54 14.8 C 5.83 g/m*3 14.8 C 0 km/h
1918 19-06-2009 23:45:54 14.4 C 6.06 g/m*3 14.4 C 0 km/h
1919 19-06-2009 23:57:54 14.1 C 6.19 g/m*3 14.1 C 0 km/h
1920 20-06-2009 00:09:54 13.6 C 6.36 g/m*3 13.6 C 0 km/h
1921 20-06-2009 00:21:54 13.3 C 6.59 g/m*3 13.3 C 0 km/h
1922 20-06-2009 00:33:54 13 C 6.58 g/m*3 13 C 0 km/h
1923 20-06-2009 00:45:54 12.8 C 6.83 g/m*3 12.8 C 0 km/h
1924 20-06-2009 00:57:54 12.6 C 6.86 g/m*3 12.6 C 0 km/h
1925 20-06-2009 01:09:54 12.3 C 6.84 g/m*3 12.3 C 0 km/h
Sensor: Nr:Datum:Temp:Abs-Feuchte:Windchill:Wind:
Aussen-T/F 1926 20-06-2009 01:21:54 11.9 C 6.99 g/m*3 11.9 C 0 km/h
1927 20-06-2009 01:33:54 12 C 7.03 g/m*3 12 C 0 km/h
1928 20-06-2009 01:45:54 11.7 C 7.11 g/m*3 11.7 C 0 km/h
1929 20-06-2009 01:57:54 11.5 C 7.13 g/m*3 11.5 C 0 km/h
1930 20-06-2009 02:09:54 11.3 C 7.14 g/m*3 11.3 C 0 km/h
1931 20-06-2009 02:21:54 11.1 C 7.05 g/m*3 11.1 C 0 km/h
1932 20-06-2009 02:33:54 10.9 C 7.16 g/m*3 10.9 C 0 km/h
1933 20-06-2009 02:45:54 10.7 C 7.17 g/m*3 10.7 C 0 km/h
1934 20-06-2009 02:57:54 10.5 C 7.18 g/m*3 10.5 C 0 km/h
1935 20-06-2009 03:09:54 10.4 C 7.04 g/m*3 10.4 C 0 km/h
1936 20-06-2009 03:21:55 10.2 C 7.04 g/m*3 10.2 C 0 km/h
1937 20-06-2009 03:33:55 10.1 C 7.09 g/m*3 10.1 C 0 km/h
1938 20-06-2009 03:45:55 10 C 7.14 g/m*3 10 C 0 km/h
1939 20-06-2009 03:57:55 9.8 C 7.14 g/m*3 9.8 C 0 km/h
1940 20-06-2009 04:09:55 9.7 C 7.19 g/m*3 9.7 C 0 km/h
1941 20-06-2009 04:21:55 9.6 C 7.15 g/m*3 9.6 C 0 km/h
1942 20-06-2009 04:33:55 9.4 C 7.05 g/m*3 9.4 C 0 km/h
1943 20-06-2009 04:45:55 9.3 C 7.01 g/m*3 9.3 C 0 km/h
1944 20-06-2009 04:57:55 9.2 C 7.05 g/m*3 9.2 C 0 km/h
1945 20-06-2009 05:09:55 9.2 C 6.97 g/m*3 9.2 C 0 km/h
1946 20-06-2009 05:21:55 9.1 C 6.92 g/m*3 9.1 C 0 km/h
1947 20-06-2009 05:33:55 9 C 7.05 g/m*3 9 C 0 km/h
1948 20-06-2009 05:45:55 8.9 C 7.1 g/m*3 8.9 C 0 km/h
1949 20-06-2009 05:57:55 8.7 C 7.09 g/m*3 8.7 C 0 km/h
1950 20-06-2009 06:09:55 8.8 C 7.14 g/m*3 8.8 C 0 km/h
Sensor: Nr:Datum:Temp:Abs-Feuchte:Windchill:Wind:
Aussen-T/F 1951 20-06-2009 06:21:55 8.9 C 7.18 g/m*3 8.9 C 0 km/h
1952 20-06-2009 06:33:55 9 C 7.14 g/m*3 9 C 0 km/h
1953 20-06-2009 06:45:55 9.3 C 7.19 g/m*3 9.3 C 0 km/h
1954 20-06-2009 06:57:55 9.4 C 7.15 g/m*3 9.4 C 0 km/h
1955 20-06-2009 07:09:56 9.7 C 7.28 g/m*3 9.7 C 0 km/h
1956 20-06-2009 07:21:56 10 C 7.24 g/m*3 10 C 0 km/h
1957 20-06-2009 07:33:53 10.8 C 7.51 g/m*3 10.8 C 0 km/h
1958 20-06-2009 07:45:53 11.2 C 7.3 g/m*3 11.2 C 0 km/h
1959 20-06-2009 07:57:53 11.7 C 7.53 g/m*3 11.7 C 0 km/h
1960 20-06-2009 08:09:52 12.2 C 7.45 g/m*3 12.2 C 0 km/h
1961 20-06-2009 08:21:53 12.7 C 7.57 g/m*3 12.7 C 0 km/h
1962 20-06-2009 08:33:53 12.9 C 7.55 g/m*3 12.9 C 0 km/h
1963 20-06-2009 08:45:52 13.5 C 7.6 g/m*3 13.5 C 0 km/h
1964 20-06-2009 08:57:52 13.5 C 7.49 g/m*3 13.5 C 0 km/h
1965 20-06-2009 09:09:53 13.1 C 7.42 g/m*3 13.1 C 0 km/h
1966 20-06-2009 09:21:52 13 C 7.48 g/m*3 13 C 0 km/h
1967 20-06-2009 09:33:52 13.4 C 7.56 g/m*3 13.4 C 0 km/h
1968 20-06-2009 09:45:51 13.6 C 7.53 g/m*3 13.6 C 0 km/h
1969 20-06-2009 09:57:51 13.2 C 7.46 g/m*3 13.2 C 0 km/h
1970 20-06-2009 10:09:52 13.1 C 7.53 g/m*3 13.1 C 0 km/h
1971 20-06-2009 10:21:51 13.2 C 7.58 g/m*3 13.2 C 0 km/h
1972 20-06-2009 10:33:51 13.5 C 7.6 g/m*3 13.5 C 0 km/h
1973 20-06-2009 10:45:52 13.7 C 7.58 g/m*3 13.7 C 0 km/h
1974 20-06-2009 10:57:52 14.1 C 7.65 g/m*3 14.1 C 0 km/h
1975 20-06-2009 11:09:51 14.8 C 7.85 g/m*3 14.8 C 0 km/h
Sensor: Nr:Datum:Temp:Abs-Feuchte:Windchill:Wind:
Aussen-T/F 1976 20-06-2009 11:21:51 15.4 C 7.75 g/m*3 15.4 C 0 km/h
1977 20-06-2009 11:33:50 16 C 7.63 g/m*3 16 C 0 km/h
1978 20-06-2009 11:45:51 15.8 C 7.67 g/m*3 15.8 C 0 km/h
1979 20-06-2009 11:57:51 16.5 C 7.58 g/m*3 16.5 C 0 km/h
1980 20-06-2009 12:09:50 17 C 7.23 g/m*3 17 C 0 km/h
1981 20-06-2009 12:21:50 18.2 C 6.37 g/m*3 18.2 C 0 km/h
1982 20-06-2009 12:33:51 19.4 C 6.17 g/m*3 19.4 C 0 km/h
1983 20-06-2009 12:45:50 19.8 C 6.32 g/m*3 19.8 C 0 km/h
1984 20-06-2009 12:57:50 21.1 C 6.08 g/m*3 21.1 C 0 km/h
1985 20-06-2009 13:09:50 21.4 C 6.19 g/m*3 21.4 C 0 km/h
1986 20-06-2009 13:21:49 19.6 C 6.25 g/m*3 19.6 C 0 km/h
1987 20-06-2009 13:33:50 17.8 C 6.68 g/m*3 17.8 C 0 km/h
1988 20-06-2009 13:45:49 14.5 C 6.22 g/m*3 14.5 C 0 km/h
1989 20-06-2009 13:57:49 12.6 C 8.3 g/m*3 12.6 C 0 km/h
1990 20-06-2009 14:09:49 13.4 C 9.76 g/m*3 13.4 C 0 km/h
1991 20-06-2009 14:21:49 14.8 C 10.51 g/m*3 14.8 C 0 km/h
1992 20-06-2009 14:33:49 15 C 10 g/m*3 15 C 0 km/h
1993 20-06-2009 14:45:49 15.6 C 10.24 g/m*3 15.6 C 0 km/h
1994 20-06-2009 14:57:49 16.4 C 9.91 g/m*3 16.4 C 0 km/h
1995 20-06-2009 15:09:49 17.1 C 10.04 g/m*3 17.1 C 0 km/h
1996 20-06-2009 15:21:49 17.4 C 10.08 g/m*3 17.4 C 0 km/h
1997 20-06-2009 15:33:48 16 C 9.26 g/m*3 16 C 0 km/h
1998 20-06-2009 15:45:48 14.6 C 9.89 g/m*3 14.6 C 0 km/h
1999 20-06-2009 15:57:48 14.7 C 10.32 g/m*3 14.7 C 0 km/h
2000 20-06-2009 16:09:48 15.6 C 11.04 g/m*3 15.6 C 0 km/h
Sensor: Nr:Datum:Temp:Abs-Feuchte:Windchill:Wind:
Aussen-T/F 2001 20-06-2009 16:21:48 16.4 C 10.75 g/m*3 16.4 C 0 km/h
2002 20-06-2009 16:33:48 16.1 C 10.14 g/m*3 16.1 C 0 km/h
2003 20-06-2009 16:45:48 16.1 C 10.01 g/m*3 16.1 C 0 km/h
2004 20-06-2009 16:57:48 17 C 9.41 g/m*3 17 C 0 km/h
2005 20-06-2009 17:09:48 17.3 C 8.99 g/m*3 17.3 C 0 km/h
2006 20-06-2009 17:21:47 17 C 8.97 g/m*3 17 C 0 km/h
2007 20-06-2009 17:33:47 16.8 C 9.44 g/m*3 16.8 C 0 km/h
2008 20-06-2009 17:45:47 16.4 C 9.49 g/m*3 16.4 C 0 km/h
2009 20-06-2009 17:57:47 16 C 9.67 g/m*3 16 C 0 km/h
2010 20-06-2009 18:09:47 17.3 C 9.13 g/m*3 17.3 C 0 km/h
2011 20-06-2009 18:21:46 18 C 7.99 g/m*3 18 C 0 km/h
2012 20-06-2009 18:33:47 17.7 C 8.6 g/m*3 17.7 C 0 km/h
2013 20-06-2009 18:45:46 17.8 C 7.89 g/m*3 17.8 C 0 km/h
2014 20-06-2009 18:57:46 17.9 C 8.24 g/m*3 17.9 C 0 km/h
2015 20-06-2009 19:09:46 17.8 C 8.5 g/m*3 17.8 C 0 km/h
2016 20-06-2009 19:21:47 18.3 C 8.6 g/m*3 18.3 C 0 km/h
2017 20-06-2009 19:33:46 17.8 C 8.5 g/m*3 17.8 C 0 km/h
2018 20-06-2009 19:45:46 16.7 C 8.53 g/m*3 16.7 C 0 km/h
2019 20-06-2009 19:57:46 15.5 C 8.99 g/m*3 15.5 C 0 km/h
2020 20-06-2009 20:09:45 14.9 C 9.3 g/m*3 14.9 C 0 km/h
2021 20-06-2009 20:21:46 15.4 C 9.2 g/m*3 15.4 C 0 km/h
2022 20-06-2009 20:33:46 16 C 8.58 g/m*3 16 C 0 km/h
2023 20-06-2009 20:45:45 15.9 C 8.4 g/m*3 15.9 C 0 km/h
2024 20-06-2009 20:57:45 15.3 C 8.36 g/m*3 15.3 C 0 km/h
2025 20-06-2009 21:09:45 15 C 8.21 g/m*3 15 C 0 km/h
Sensor: Nr:Datum:Temp:Abs-Feuchte:Windchill:Wind:
Aussen-T/F 2026 20-06-2009 21:21:45 14.5 C 7.84 g/m*3 14.5 C 0 km/h
2027 20-06-2009 21:33:45 14.3 C 7.49 g/m*3 14.3 C 0 km/h
2028 20-06-2009 21:45:45 14.2 C 6.96 g/m*3 14.2 C 0 km/h
2029 20-06-2009 21:57:45 14.1 C 6.8 g/m*3 14.1 C 0 km/h
2030 20-06-2009 22:09:45 14.1 C 7.16 g/m*3 14.1 C 0 km/h
2031 20-06-2009 22:21:44 13.9 C 7.19 g/m*3 13.9 C 0 km/h
2032 20-06-2009 22:33:45 14 C 7.24 g/m*3 14 C 0 km/h
2033 20-06-2009 22:45:44 13.9 C 7.43 g/m*3 13.9 C 0 km/h
2034 20-06-2009 22:57:44 13.9 C 7.43 g/m*3 13.9 C 0 km/h
2035 20-06-2009 23:09:44 13.8 C 7.51 g/m*3 13.8 C 0 km/h
2036 20-06-2009 23:21:43 13.8 C 7.74 g/m*3 13.8 C 0 km/h
2037 20-06-2009 23:33:44 13.7 C 7.82 g/m*3 13.7 C 0 km/h
2038 20-06-2009 23:45:43 13.5 C 7.72 g/m*3 13.5 C 0 km/h
2039 20-06-2009 23:57:43 13.6 C 7.18 g/m*3 13.6 C 0 km/h
2040 21-06-2009 00:09:43 13.6 C 7.18 g/m*3 13.6 C 0 km/h
2041 21-06-2009 00:21:43 13.5 C 7.13 g/m*3 13.5 C 0 km/h
2042 21-06-2009 00:33:43 13.4 C 7.09 g/m*3 13.4 C 0 km/h
2043 21-06-2009 00:45:43 13.3 C 7.16 g/m*3 13.3 C 0 km/h
2044 21-06-2009 00:57:43 13.2 C 7 g/m*3 13.2 C 0 km/h
2045 21-06-2009 01:09:43 13.2 C 6.89 g/m*3 13.2 C 0 km/h
2046 21-06-2009 01:21:42 13.2 C 6.89 g/m*3 13.2 C 0 km/h
2047 21-06-2009 01:34:44 13 C 6.92 g/m*3 13 C 0 km/h
2048 21-06-2009 01:46:44 12.5 C 7.04 g/m*3 12.5 C 0 km/h
2049 21-06-2009 01:58:44 12.3 C 7.06 g/m*3 12.3 C 0 km/h
2050 21-06-2009 02:10:45 12.1 C 7.08 g/m*3 12.1 C 0 km/h
Sensor: Nr:Datum:Temp:Abs-Feuchte:Windchill:Wind:
Aussen-T/F 2051 21-06-2009 02:22:45 11.8 C 7.26 g/m*3 11.8 C 0 km/h
2052 21-06-2009 02:34:45 11.5 C 7.23 g/m*3 11.5 C 0 km/h
2053 21-06-2009 02:46:45 11.4 C 7.49 g/m*3 11.4 C 0 km/h
2054 21-06-2009 02:58:45 11.3 C 7.65 g/m*3 11.3 C 0 km/h
2055 21-06-2009 03:10:45 11 C 7.71 g/m*3 11 C 0 km/h
2056 21-06-2009 03:22:45 10.8 C 7.81 g/m*3 10.8 C 0 km/h
2057 21-06-2009 03:34:45 10.8 C 7.91 g/m*3 10.8 C 0 km/h
2058 21-06-2009 03:46:45 10.9 C 7.86 g/m*3 10.9 C 0 km/h
2059 21-06-2009 03:58:45 10.6 C 7.71 g/m*3 10.6 C 0 km/h
2060 21-06-2009 04:10:45 10.3 C 7.66 g/m*3 10.3 C 0 km/h
2061 21-06-2009 04:22:45 10.1 C 7.56 g/m*3 10.1 C 0 km/h
2062 21-06-2009 04:34:45 9.9 C 7.84 g/m*3 9.9 C 0 km/h
2063 21-06-2009 04:46:45 10 C 7.89 g/m*3 10 C 0 km/h
2064 21-06-2009 04:58:45 10 C 7.89 g/m*3 10 C 0 km/h
2065 21-06-2009 05:10:45 9.9 C 7.94 g/m*3 9.9 C 0 km/h
2066 21-06-2009 05:22:45 9.8 C 7.98 g/m*3 9.8 C 0 km/h
2067 21-06-2009 05:34:45 9.8 C 7.98 g/m*3 9.8 C 0 km/h
2068 21-06-2009 05:46:45 9.8 C 7.98 g/m*3 9.8 C 0 km/h
2069 21-06-2009 05:58:46 10 C 7.89 g/m*3 10 C 0 km/h
2070 21-06-2009 06:10:46 9.9 C 8.03 g/m*3 9.9 C 0 km/h
2071 21-06-2009 06:22:46 9.8 C 8.07 g/m*3 9.8 C 0 km/h
2072 21-06-2009 06:34:46 10.1 C 8.13 g/m*3 10.1 C 0 km/h
2073 21-06-2009 06:46:46 10.2 C 8.09 g/m*3 10.2 C 0 km/h
2074 21-06-2009 06:58:46 10.4 C 8.1 g/m*3 10.4 C 0 km/h
2075 21-06-2009 07:10:46 10.6 C 8.2 g/m*3 10.6 C 0 km/h
Sensor: Nr:Datum:Temp:Abs-Feuchte:Windchill:Wind:
Aussen-T/F 2076 21-06-2009 07:22:46 11 C 8.31 g/m*3 11 C 0 km/h
2077 21-06-2009 07:34:46 11.3 C 8.36 g/m*3 11.3 C 0 km/h
2078 21-06-2009 07:46:46 11.5 C 8.57 g/m*3 11.5 C 0 km/h
2079 21-06-2009 07:58:46 11.7 C 8.47 g/m*3 11.7 C 0 km/h
2080 21-06-2009 08:10:46 11.6 C 8.42 g/m*3 11.6 C 0 km/h
2081 21-06-2009 08:22:46 12.1 C 8.47 g/m*3 12.1 C 0 km/h
2082 21-06-2009 08:34:46 12.3 C 8.47 g/m*3 12.3 C 0 km/h
2083 21-06-2009 08:46:46 12.8 C 8.51 g/m*3 12.8 C 0 km/h
2084 21-06-2009 08:58:46 13.4 C 8.37 g/m*3 13.4 C 0 km/h
2085 21-06-2009 09:10:44 14.4 C 8.28 g/m*3 14.4 C 0 km/h
2086 21-06-2009 09:22:43 14.7 C 8.06 g/m*3 14.7 C 0 km/h
2087 21-06-2009 09:34:44 15.3 C 7.97 g/m*3 15.3 C 0 km/h
2088 21-06-2009 09:46:43 15.4 C 7.88 g/m*3 15.4 C 0 km/h
2089 21-06-2009 09:58:43 15.5 C 7.93 g/m*3 15.5 C 0 km/h
2090 21-06-2009 10:10:43 16.2 C 8 g/m*3 16.2 C 0 km/h
2091 21-06-2009 10:22:43 16.5 C 7.72 g/m*3 16.5 C 0 km/h
2092 21-06-2009 10:34:43 16.4 C 7.68 g/m*3 16.4 C 0 km/h
2093 21-06-2009 10:46:43 16.8 C 7.72 g/m*3 16.8 C 0 km/h
2094 21-06-2009 10:58:43 16.8 C 7.72 g/m*3 16.8 C 0 km/h
2095 21-06-2009 11:10:42 17.8 C 7.89 g/m*3 17.8 C 0 km/h
2096 21-06-2009 11:22:43 17.7 C 7.24 g/m*3 17.7 C 0 km/h
2097 21-06-2009 11:34:42 16 C 6.95 g/m*3 16 C 0 km/h
2098 21-06-2009 11:46:42 14.2 C 7.57 g/m*3 14.2 C 0 km/h
2099 21-06-2009 11:58:42 13.3 C 8.32 g/m*3 13.3 C 0 km/h
2100 21-06-2009 12:10:42 13.3 C 8.9 g/m*3 13.3 C 0 km/h
Sensor: Nr:Datum:Temp:Abs-Feuchte:Windchill:Wind:
Aussen-T/F 2101 21-06-2009 12:22:42 13.7 C 9.35 g/m*3 13.7 C 0 km/h
2102 21-06-2009 12:34:42 15.6 C 9.97 g/m*3 15.6 C 0 km/h
2103 21-06-2009 12:46:42 14.9 C 8.79 g/m*3 14.9 C 0 km/h
2104 21-06-2009 12:58:42 12.8 C 8.51 g/m*3 12.8 C 0 km/h
2105 21-06-2009 13:10:42 12.8 C 9.3 g/m*3 12.8 C 0 km/h
2106 21-06-2009 13:22:41 12.5 C 9.35 g/m*3 12.5 C 0 km/h
2107 21-06-2009 13:34:41 12.5 C 9.46 g/m*3 12.5 C 0 km/h
2108 21-06-2009 13:46:41 12.4 C 9.51 g/m*3 12.4 C 0 km/h
2109 21-06-2009 13:58:41 13.3 C 10.17 g/m*3 13.3 C 0 km/h
2110 21-06-2009 14:10:41 14.2 C 10.62 g/m*3 14.2 C 0 km/h
2111 21-06-2009 14:22:40 14 C 10.01 g/m*3 14 C 0 km/h
2112 21-06-2009 14:34:41 13.9 C 9.83 g/m*3 13.9 C 0 km/h
2113 21-06-2009 14:46:40 13.9 C 9.71 g/m*3 13.9 C 0 km/h
2114 21-06-2009 14:58:40 14.3 C 10.07 g/m*3 14.3 C 0 km/h
2115 21-06-2009 15:10:40 14.8 C 10.51 g/m*3 14.8 C 0 km/h
2116 21-06-2009 15:22:40 14.9 C 10.71 g/m*3 14.9 C 0 km/h
2117 21-06-2009 15:34:40 15 C 10.51 g/m*3 15 C 0 km/h
2118 21-06-2009 15:46:39 15.9 C 10.97 g/m*3 15.9 C 0 km/h
2119 21-06-2009 15:58:39 16.9 C 10.36 g/m*3 16.9 C 0 km/h
2120 21-06-2009 16:10:40 17.2 C 9.37 g/m*3 17.2 C 0 km/h
2121 21-06-2009 16:22:40 17.4 C 9.19 g/m*3 17.4 C 0 km/h
2122 21-06-2009 16:34:39 18.1 C 9.58 g/m*3 18.1 C 0 km/h
2123 21-06-2009 16:46:40 18 C 8.6 g/m*3 18 C 0 km/h
2124 21-06-2009 16:58:40 18 C 8.29 g/m*3 18 C 0 km/h
2125 21-06-2009 17:10:39 18.1 C 8.81 g/m*3 18.1 C 0 km/h
Sensor: Nr:Datum:Temp:Abs-Feuchte:Windchill:Wind:
Aussen-T/F 2126 21-06-2009 17:22:39 19 C 8.47 g/m*3 19 C 0 km/h
2127 21-06-2009 17:34:38 19.8 C 7.86 g/m*3 19.8 C 0 km/h
2128 21-06-2009 17:46:39 21.1 C 7.55 g/m*3 21.1 C 0 km/h
2129 21-06-2009 17:58:40 20.1 C 7.13 g/m*3 20.1 C 0 km/h
2130 21-06-2009 18:10:38 19.1 C 8.52 g/m*3 19.1 C 0 km/h
2131 21-06-2009 18:22:38 19.2 C 8.74 g/m*3 19.2 C 0 km/h
2132 21-06-2009 18:34:39 19.3 C 8.29 g/m*3 19.3 C 0 km/h
2133 21-06-2009 18:46:38 18.2 C 7.62 g/m*3 18.2 C 0 km/h
2134 21-06-2009 18:58:38 14.3 C 8.11 g/m*3 14.3 C 0 km/h
2135 21-06-2009 19:10:38 12.8 C 8.74 g/m*3 12.8 C 0 km/h
2136 21-06-2009 19:22:38 12.5 C 9.24 g/m*3 12.5 C 0 km/h
2137 21-06-2009 19:34:38 12.5 C 9.46 g/m*3 12.5 C 0 km/h
2138 21-06-2009 19:46:37 13.2 C 9.87 g/m*3 13.2 C 0 km/h
2139 21-06-2009 19:58:37 13.8 C 10.01 g/m*3 13.8 C 0 km/h
2140 21-06-2009 20:10:38 14.1 C 10.19 g/m*3 14.1 C 0 km/h
2141 21-06-2009 20:22:37 13.5 C 9.71 g/m*3 13.5 C 0 km/h
2142 21-06-2009 20:34:37 13.3 C 9.7 g/m*3 13.3 C 0 km/h
2143 21-06-2009 20:46:37 13.1 C 9.59 g/m*3 13.1 C 0 km/h
2144 21-06-2009 20:58:37 13.1 C 9.59 g/m*3 13.1 C 0 km/h
2145 21-06-2009 21:10:36 12.6 C 9.29 g/m*3 12.6 C 0 km/h
2146 21-06-2009 21:22:37 12.4 C 9.29 g/m*3 12.4 C 0 km/h
2147 21-06-2009 21:34:37 11.7 C 8.89 g/m*3 11.7 C 0 km/h
2148 21-06-2009 21:46:36 11.3 C 8.87 g/m*3 11.3 C 0 km/h
2149 21-06-2009 21:58:36 11.1 C 8.76 g/m*3 11.1 C 0 km/h
2150 21-06-2009 22:10:37 11.1 C 8.86 g/m*3 11.1 C 0 km/h
Sensor: Nr:Datum:Temp:Abs-Feuchte:Windchill:Wind:
Aussen-T/F 2151 21-06-2009 22:22:36 11 C 8.81 g/m*3 11 C 0 km/h
2152 21-06-2009 22:35:37 10.8 C 8.8 g/m*3 10.8 C 0 km/h
2153 21-06-2009 22:47:38 10.8 C 8.8 g/m*3 10.8 C 0 km/h
2154 21-06-2009 22:59:38 11 C 8.91 g/m*3 11 C 0 km/h
2155 21-06-2009 23:11:38 11.1 C 9.07 g/m*3 11.1 C 0 km/h
2156 21-06-2009 23:23:38 11.1 C 9.07 g/m*3 11.1 C 0 km/h
2157 21-06-2009 23:35:38 10.9 C 8.95 g/m*3 10.9 C 0 km/h
2158 21-06-2009 23:47:38 11 C 9.01 g/m*3 11 C 0 km/h
2159 21-06-2009 23:59:38 11.2 C 9.12 g/m*3 11.2 C 0 km/h
2160 22-06-2009 00:11:38 11.4 C 9.24 g/m*3 11.4 C 0 km/h
2161 22-06-2009 00:23:38 11.4 C 9.24 g/m*3 11.4 C 0 km/h
2162 22-06-2009 00:35:38 11.1 C 8.96 g/m*3 11.1 C 0 km/h
2163 22-06-2009 00:47:38 10.7 C 8.74 g/m*3 10.7 C 0 km/h
2164 22-06-2009 00:59:38 10.3 C 8.52 g/m*3 10.3 C 0 km/h
2165 22-06-2009 01:11:38 10 C 8.27 g/m*3 10 C 0 km/h
2166 22-06-2009 01:23:38 9.9 C 8.4 g/m*3 9.9 C 0 km/h
2167 22-06-2009 01:35:38 10 C 8.36 g/m*3 10 C 0 km/h
2168 22-06-2009 01:47:38 10.1 C 8.51 g/m*3 10.1 C 0 km/h
2169 22-06-2009 01:59:38 10.2 C 8.56 g/m*3 10.2 C 0 km/h
2170 22-06-2009 02:11:38 10.2 C 8.56 g/m*3 10.2 C 0 km/h
2171 22-06-2009 02:23:38 10 C 8.46 g/m*3 10 C 0 km/h
2172 22-06-2009 02:35:39 9.8 C 8.44 g/m*3 9.8 C 0 km/h
2173 22-06-2009 02:47:39 10 C 8.46 g/m*3 10 C 0 km/h
2174 22-06-2009 02:59:39 10.1 C 8.51 g/m*3 10.1 C 0 km/h
2175 22-06-2009 03:11:39 10.3 C 8.52 g/m*3 10.3 C 0 km/h
Sensor: Nr:Datum:Temp:Abs-Feuchte:Windchill:Wind:
Aussen-T/F 2176 22-06-2009 03:23:39 10.4 C 8.58 g/m*3 10.4 C 0 km/h
2177 22-06-2009 03:35:39 10.3 C 8.43 g/m*3 10.3 C 0 km/h
2178 22-06-2009 03:47:39 10.5 C 8.44 g/m*3 10.5 C 0 km/h
2179 22-06-2009 03:59:39 10.6 C 8.39 g/m*3 10.6 C 0 km/h
2180 22-06-2009 04:11:39 10.5 C 8.34 g/m*3 10.5 C 0 km/h
2181 22-06-2009 04:23:39 10.4 C 8.29 g/m*3 10.4 C 0 km/h
2182 22-06-2009 04:35:39 10.4 C 8.19 g/m*3 10.4 C 0 km/h
2183 22-06-2009 04:47:39 10.4 C 8.1 g/m*3 10.4 C 0 km/h
2184 22-06-2009 04:59:39 10.4 C 8.19 g/m*3 10.4 C 0 km/h
2185 22-06-2009 05:11:39 10.4 C 8.1 g/m*3 10.4 C 0 km/h
2186 22-06-2009 05:23:39 10.5 C 8.15 g/m*3 10.5 C 0 km/h
2187 22-06-2009 05:35:39 10.5 C 8.15 g/m*3 10.5 C 0 km/h
2188 22-06-2009 05:47:39 10.4 C 8.1 g/m*3 10.4 C 0 km/h
2189 22-06-2009 05:59:39 10.4 C 8.19 g/m*3 10.4 C 0 km/h
2190 22-06-2009 06:11:39 10.5 C 8.24 g/m*3 10.5 C 0 km/h
2191 22-06-2009 06:23:39 10.6 C 8.2 g/m*3 10.6 C 0 km/h
2192 22-06-2009 06:35:40 10.7 C 8.25 g/m*3 10.7 C 0 km/h
2193 22-06-2009 06:47:40 10.8 C 8.3 g/m*3 10.8 C 0 km/h
2194 22-06-2009 06:59:40 10.9 C 8.26 g/m*3 10.9 C 0 km/h
2195 22-06-2009 07:11:37 11 C 8.31 g/m*3 11 C 0 km/h
2196 22-06-2009 07:23:37 11.2 C 8.41 g/m*3 11.2 C 0 km/h
2197 22-06-2009 07:35:37 11.5 C 8.57 g/m*3 11.5 C 0 km/h
2198 22-06-2009 07:47:37 11.8 C 8.63 g/m*3 11.8 C 0 km/h
2199 22-06-2009 07:59:37 11.8 C 8.31 g/m*3 11.8 C 0 km/h
2200 22-06-2009 08:11:36 12.1 C 8.36 g/m*3 12.1 C 0 km/h
Sensor: Nr:Datum:Temp:Abs-Feuchte:Windchill:Wind:
Aussen-T/F 2201 22-06-2009 08:23:37 12.2 C 8.09 g/m*3 12.2 C 0 km/h
2202 22-06-2009 08:35:37 12.5 C 8.25 g/m*3 12.5 C 0 km/h
2203 22-06-2009 08:47:36 12.8 C 8.18 g/m*3 12.8 C 0 km/h
2204 22-06-2009 08:59:36 13.4 C 7.9 g/m*3 13.4 C 0 km/h
2205 22-06-2009 09:11:36 13.4 C 7.9 g/m*3 13.4 C 0 km/h
2206 22-06-2009 09:23:36 13.7 C 7.82 g/m*3 13.7 C 0 km/h
2207 22-06-2009 09:35:36 14 C 7.12 g/m*3 14 C 0 km/h
2208 22-06-2009 09:47:35 15 C 7.05 g/m*3 15 C 0 km/h
2209 22-06-2009 09:59:35 14.9 C 6.75 g/m*3 14.9 C 0 km/h
2210 22-06-2009 10:11:36 14.6 C 6.76 g/m*3 14.6 C 0 km/h
2211 22-06-2009 10:23:35 14.9 C 6.75 g/m*3 14.9 C 0 km/h
2212 22-06-2009 10:35:35 14.6 C 6.76 g/m*3 14.6 C 0 km/h
2213 22-06-2009 10:47:35 14.8 C 6.97 g/m*3 14.8 C 0 km/h
2214 22-06-2009 10:59:35 15.4 C 6.57 g/m*3 15.4 C 0 km/h
2215 22-06-2009 11:11:35 16 C 6.27 g/m*3 16 C 0 km/h
2216 22-06-2009 11:23:35 16.3 C 6.52 g/m*3 16.3 C 0 km/h
2217 22-06-2009 11:35:34 16.5 C 6.18 g/m*3 16.5 C 0 km/h
2218 22-06-2009 11:47:35 17.1 C 6.4 g/m*3 17.1 C 0 km/h
2219 22-06-2009 11:59:35 16.8 C 6.29 g/m*3 16.8 C 0 km/h
2220 22-06-2009 12:11:34 16.5 C 6.18 g/m*3 16.5 C 0 km/h
2221 22-06-2009 12:23:34 16.3 C 6.24 g/m*3 16.3 C 0 km/h
2222 22-06-2009 12:35:34 18.9 C 6.64 g/m*3 18.9 C 0 km/h
2223 22-06-2009 12:47:34 21.4 C 5.81 g/m*3 21.4 C 0 km/h
2224 22-06-2009 12:59:34 20.1 C 5.39 g/m*3 20.1 C 0 km/h
2225 22-06-2009 13:11:33 18 C 5.68 g/m*3 18 C 0 km/h
Sensor: Nr:Datum:Temp:Abs-Feuchte:Windchill:Wind:
Aussen-T/F 2226 22-06-2009 13:23:34 18 C 5.53 g/m*3 18 C 0 km/h
2227 22-06-2009 13:35:34 18.4 C 6.13 g/m*3 18.4 C 0 km/h
2228 22-06-2009 13:47:33 18.9 C 5.67 g/m*3 18.9 C 0 km/h
2229 22-06-2009 13:59:33 17.7 C 5.73 g/m*3 17.7 C 0 km/h
2230 22-06-2009 14:11:34 17.3 C 6.04 g/m*3 17.3 C 0 km/h
2231 22-06-2009 14:23:33 18.5 C 6.01 g/m*3 18.5 C 0 km/h
2232 22-06-2009 14:35:33 18.8 C 6.12 g/m*3 18.8 C 0 km/h
2233 22-06-2009 14:47:32 19 C 5.87 g/m*3 19 C 0 km/h
2234 22-06-2009 14:59:32 18.5 C 5.7 g/m*3 18.5 C 0 km/h
2235 22-06-2009 15:11:33 18 C 5.99 g/m*3 18 C 0 km/h
2236 22-06-2009 15:23:32 17.5 C 6.11 g/m*3 17.5 C 0 km/h
2237 22-06-2009 15:35:32 18.1 C 6.03 g/m*3 18.1 C 0 km/h
2238 22-06-2009 15:47:32 17.9 C 6.11 g/m*3 17.9 C 0 km/h
2239 22-06-2009 15:59:32 18.4 C 5.98 g/m*3 18.4 C 0 km/h
2240 22-06-2009 16:11:32 18.5 C 5.85 g/m*3 18.5 C 0 km/h
2241 22-06-2009 16:23:32 18.9 C 5.83 g/m*3 18.9 C 0 km/h
2242 22-06-2009 16:35:32 20.1 C 6.08 g/m*3 20.1 C 0 km/h
2243 22-06-2009 16:47:32 19.9 C 6.01 g/m*3 19.9 C 0 km/h
2244 22-06-2009 16:59:32 19.8 C 5.81 g/m*3 19.8 C 0 km/h
2245 22-06-2009 17:11:31 21.4 C 6 g/m*3 21.4 C 0 km/h
2246 22-06-2009 17:23:31 21.1 C 5.71 g/m*3 21.1 C 0 km/h
2247 22-06-2009 17:35:31 20.2 C 5.77 g/m*3 20.2 C 0 km/h
2248 22-06-2009 17:47:31 19.8 C 5.98 g/m*3 19.8 C 0 km/h
2249 22-06-2009 17:59:32 22.4 C 5.96 g/m*3 22.4 C 0 km/h
2250 22-06-2009 18:11:30 23.8 C 5.59 g/m*3 23.8 C 0 km/h
Sensor: Nr:Datum:Temp:Abs-Feuchte:Windchill:Wind:
Aussen-T/F 2251 22-06-2009 18:23:31 22.5 C 5.59 g/m*3 22.5 C 0 km/h
2252 22-06-2009 18:35:31 21.2 C 5.56 g/m*3 21.2 C 0 km/h
2253 22-06-2009 18:47:30 22.1 C 5.66 g/m*3 22.1 C 0 km/h
2254 22-06-2009 18:59:30 22.7 C 5.66 g/m*3 22.7 C 0 km/h
2255 22-06-2009 19:11:31 21.1 C 5.71 g/m*3 21.1 C 0 km/h
2256 22-06-2009 19:23:30 20.8 C 5.98 g/m*3 20.8 C 0 km/h
2257 22-06-2009 19:35:30 20.5 C 5.69 g/m*3 20.5 C 0 km/h
2258 22-06-2009 19:47:30 20.6 C 6.09 g/m*3 20.6 C 0 km/h
2259 22-06-2009 19:59:30 20.8 C 6.16 g/m*3 20.8 C 0 km/h
2260 22-06-2009 20:11:30 19.8 C 5.98 g/m*3 19.8 C 0 km/h
2261 22-06-2009 20:23:29 19.1 C 6.07 g/m*3 19.1 C 0 km/h
2262 22-06-2009 20:35:29 18.7 C 6.08 g/m*3 18.7 C 0 km/h
2263 22-06-2009 20:47:29 18.5 C 6.65 g/m*3 18.5 C 0 km/h
2264 22-06-2009 20:59:29 18.2 C 6.37 g/m*3 18.2 C 0 km/h
2265 22-06-2009 21:11:29 17.9 C 6.57 g/m*3 17.9 C 0 km/h
2266 22-06-2009 21:23:29 17.6 C 6.75 g/m*3 17.6 C 0 km/h
2267 22-06-2009 21:35:28 17.2 C 6.88 g/m*3 17.2 C 0 km/h
2268 22-06-2009 21:47:29 17 C 6.51 g/m*3 17 C 0 km/h
2269 22-06-2009 21:59:29 16.8 C 6.58 g/m*3 16.8 C 0 km/h
2270 22-06-2009 22:11:28 16.6 C 7.06 g/m*3 16.6 C 0 km/h
2271 22-06-2009 22:23:28 16.2 C 7.03 g/m*3 16.2 C 0 km/h
2272 22-06-2009 22:36:12 15.8 C 7.27 g/m*3 15.8 C 0 km/h
2273 22-06-2009 22:48:12 15.3 C 7.31 g/m*3 15.3 C 0 km/h
2274 22-06-2009 23:00:12 14.7 C 7.55 g/m*3 14.7 C 0 km/h
2275 22-06-2009 23:12:12 14.4 C 7.54 g/m*3 14.4 C 0 km/h
Sensor: Nr:Datum:Temp:Abs-Feuchte:Windchill:Wind:
Aussen-T/F 2276 22-06-2009 23:24:12 14 C 7.36 g/m*3 14 C 0 km/h
2277 22-06-2009 23:36:12 13.9 C 7.67 g/m*3 13.9 C 0 km/h
2278 22-06-2009 23:48:12 13.7 C 7.58 g/m*3 13.7 C 0 km/h
2279 23-06-2009 00:00:12 13.6 C 7.53 g/m*3 13.6 C 0 km/h
2280 23-06-2009 00:12:12 13.6 C 7.77 g/m*3 13.6 C 0 km/h
2281 23-06-2009 00:24:12 13.6 C 7.65 g/m*3 13.6 C 0 km/h
2282 23-06-2009 00:36:12 13.4 C 7.67 g/m*3 13.4 C 0 km/h
2283 23-06-2009 00:48:12 13.3 C 7.63 g/m*3 13.3 C 0 km/h
2284 23-06-2009 01:00:12 13.3 C 7.51 g/m*3 13.3 C 0 km/h
2285 23-06-2009 01:12:13 13.3 C 7.74 g/m*3 13.3 C 0 km/h
2286 23-06-2009 01:24:13 13.2 C 7.69 g/m*3 13.2 C 0 km/h
2287 23-06-2009 01:36:13 13.2 C 7.69 g/m*3 13.2 C 0 km/h
2288 23-06-2009 01:48:13 13 C 7.71 g/m*3 13 C 0 km/h
2289 23-06-2009 02:00:13 12.7 C 7.9 g/m*3 12.7 C 0 km/h
2290 23-06-2009 02:12:13 12.4 C 7.87 g/m*3 12.4 C 0 km/h
2291 23-06-2009 02:24:13 12.2 C 7.99 g/m*3 12.2 C 0 km/h
2292 23-06-2009 02:36:13 12.2 C 7.99 g/m*3 12.2 C 0 km/h
2293 23-06-2009 02:48:13 12.1 C 7.94 g/m*3 12.1 C 0 km/h
2294 23-06-2009 03:00:13 12 C 7.89 g/m*3 12 C 0 km/h
2295 23-06-2009 03:12:13 12 C 7.89 g/m*3 12 C 0 km/h
2296 23-06-2009 03:24:13 11.8 C 8 g/m*3 11.8 C 0 km/h
2297 23-06-2009 03:36:13 11.5 C 7.85 g/m*3 11.5 C 0 km/h
2298 23-06-2009 03:48:13 11.5 C 7.95 g/m*3 11.5 C 0 km/h
2299 23-06-2009 04:00:13 11.4 C 8.01 g/m*3 11.4 C 0 km/h
2300 23-06-2009 04:12:13 11.3 C 7.96 g/m*3 11.3 C 0 km/h
Sensor: Nr:Datum:Temp:Abs-Feuchte:Windchill:Wind:
Aussen-T/F 2301 23-06-2009 04:24:13 11.1 C 7.86 g/m*3 11.1 C 0 km/h
2302 23-06-2009 04:36:13 11.1 C 7.96 g/m*3 11.1 C 0 km/h
2303 23-06-2009 04:48:13 11 C 8.01 g/m*3 11 C 0 km/h
2304 23-06-2009 05:00:13 11.1 C 8.06 g/m*3 11.1 C 0 km/h
2305 23-06-2009 05:12:14 10.9 C 8.06 g/m*3 10.9 C 0 km/h
2306 23-06-2009 05:24:14 10.8 C 8.01 g/m*3 10.8 C 0 km/h
2307 23-06-2009 05:36:14 10.7 C 8.05 g/m*3 10.7 C 0 km/h
2308 23-06-2009 05:48:14 10.6 C 8 g/m*3 10.6 C 0 km/h
2309 23-06-2009 06:00:14 10.8 C 8.2 g/m*3 10.8 C 0 km/h
2310 23-06-2009 06:12:29 11.1 C 8.26 g/m*3 11.1 C 0 km/h
2311 23-06-2009 06:24:28 11.3 C 8.36 g/m*3 11.3 C 0 km/h
2312 23-06-2009 06:36:28 11.6 C 8.52 g/m*3 11.6 C 0 km/h
2313 23-06-2009 06:48:28 11.8 C 8.53 g/m*3 11.8 C 0 km/h
2314 23-06-2009 07:00:28 12.1 C 8.47 g/m*3 12.1 C 0 km/h
2315 23-06-2009 07:12:28 12.5 C 8.58 g/m*3 12.5 C 0 km/h
2316 23-06-2009 07:24:28 12.8 C 8.62 g/m*3 12.8 C 0 km/h
2317 23-06-2009 07:36:28 13 C 8.39 g/m*3 13 C 0 km/h
2318 23-06-2009 07:48:27 12.8 C 8.4 g/m*3 12.8 C 0 km/h
2319 23-06-2009 08:00:28 12.7 C 8.35 g/m*3 12.7 C 0 km/h
2320 23-06-2009 08:12:28 12.9 C 8.45 g/m*3 12.9 C 0 km/h
2321 23-06-2009 08:24:27 13.1 C 8.44 g/m*3 13.1 C 0 km/h
2322 23-06-2009 08:36:27 13.4 C 8.49 g/m*3 13.4 C 0 km/h
2323 23-06-2009 08:48:27 13.8 C 8.58 g/m*3 13.8 C 0 km/h
2324 23-06-2009 09:00:27 14 C 8.32 g/m*3 14 C 0 km/h
2325 23-06-2009 09:12:27 14.6 C 8.51 g/m*3 14.6 C 0 km/h
Sensor: Nr:Datum:Temp:Abs-Feuchte:Windchill:Wind:
Aussen-T/F 2326 23-06-2009 09:24:26 14.9 C 8.28 g/m*3 14.9 C 0 km/h
2327 23-06-2009 09:36:27 15.4 C 8.15 g/m*3 15.4 C 0 km/h
2328 23-06-2009 09:48:26 16.2 C 8.14 g/m*3 16.2 C 0 km/h
2329 23-06-2009 10:00:26 16.6 C 7.63 g/m*3 16.6 C 0 km/h
2330 23-06-2009 10:12:26 17.1 C 8.01 g/m*3 17.1 C 0 km/h
2331 23-06-2009 10:24:02 17.2 C 8.05 g/m*3 17.2 C 0 km/h
2332 23-06-2009 10:36:02 17.5 C 8.05 g/m*3 17.5 C 0 km/h
2333 23-06-2009 10:48:01 18 C 7.68 g/m*3 18 C 0 km/h
2334 23-06-2009 11:00:01 18.2 C 7.46 g/m*3 18.2 C 0 km/h
2335 23-06-2009 11:12:02 19.4 C 7.51 g/m*3 19.4 C 0 km/h
2336 23-06-2009 11:24:02 20.2 C 7.34 g/m*3 20.2 C 0 km/h
2337 23-06-2009 11:36:01 20.1 C 7.47 g/m*3 20.1 C 0 km/h
2338 23-06-2009 11:48:02 21.2 C 7.97 g/m*3 21.2 C 0 km/h
2339 23-06-2009 12:00:02 20.8 C 7.42 g/m*3 20.8 C 0 km/h
2340 23-06-2009 12:12:01 21.8 C 6.91 g/m*3 21.8 C 0 km/h
2341 23-06-2009 12:24:01 21.5 C 6.79 g/m*3 21.5 C 0 km/h
2342 23-06-2009 12:36:00 23.2 C 6.44 g/m*3 23.2 C 0 km/h
2343 23-06-2009 12:48:01 24.2 C 6.38 g/m*3 24.2 C 0 km/h
2344 23-06-2009 13:00:01 24 C 6.31 g/m*3 24 C 0 km/h
2345 23-06-2009 13:12:00 24.8 C 6.37 g/m*3 24.8 C 0 km/h
2346 23-06-2009 13:24:00 24.5 C 6.27 g/m*3 24.5 C 0 km/h
2347 23-06-2009 13:36:01 24.1 C 6.35 g/m*3 24.1 C 0 km/h
2348 23-06-2009 13:48:00 24.9 C 6.18 g/m*3 24.9 C 0 km/h
2349 23-06-2009 14:00:00 23.8 C 5.81 g/m*3 23.8 C 0 km/h
2350 23-06-2009 14:12:00 24.4 C 5.79 g/m*3 24.4 C 0 km/h
Sensor: Nr:Datum:Temp:Abs-Feuchte:Windchill:Wind:
Aussen-T/F 2351 23-06-2009 14:24:00 24.3 C 5.97 g/m*3 24.3 C 0 km/h
2352 23-06-2009 14:36:00 25.2 C 6.05 g/m*3 25.2 C 0 km/h
2353 23-06-2009 14:48:59 24.7 C 5.66 g/m*3 24.7 C 0 km/h
2354 23-06-2009 14:59:59 24.6 C 5.63 g/m*3 24.6 C 0 km/h
2355 23-06-2009 15:12:00 24.6 C 5.63 g/m*3 24.6 C 0 km/h
2356 23-06-2009 15:24:59 25.1 C 5.79 g/m*3 25.1 C 0 km/h
2357 23-06-2009 15:36:59 26.6 C 5.54 g/m*3 26.6 C 0 km/h
2358 23-06-2009 15:48:58 25.6 C 5.71 g/m*3 25.6 C 0 km/h
2359 23-06-2009 16:00:59 25.9 C 5.08 g/m*3 25.9 C 0 km/h
2360 23-06-2009 16:12:59 26.8 C 5.6 g/m*3 26.8 C 0 km/h
2361 23-06-2009 16:24:59 27.4 C 5.26 g/m*3 27.4 C 0 km/h
2362 23-06-2009 16:36:58 25.8 C 5.54 g/m*3 25.8 C 0 km/h
2363 23-06-2009 16:48:59 26 C 5.84 g/m*3 26 C 0 km/h
2364 23-06-2009 17:00:58 25.2 C 5.35 g/m*3 25.2 C 0 km/h
2365 23-06-2009 17:12:58 24.7 C 5.66 g/m*3 24.7 C 0 km/h
2366 23-06-2009 17:24:58 24.8 C 5.69 g/m*3 24.8 C 0 km/h
2367 23-06-2009 17:36:57 24.5 C 5.37 g/m*3 24.5 C 0 km/h
2368 23-06-2009 17:48:58 24.7 C 5.66 g/m*3 24.7 C 0 km/h
2369 23-06-2009 18:00:58 27.3 C 5.49 g/m*3 27.3 C 0 km/h
2370 23-06-2009 18:12:58 27.2 C 5.46 g/m*3 27.2 C 0 km/h
2371 23-06-2009 18:24:57 28.1 C 5.47 g/m*3 28.1 C 0 km/h
2372 23-06-2009 18:36:58 29.5 C 5.9 g/m*3 29.5 C 0 km/h
2373 23-06-2009 18:48:57 28.3 C 5.53 g/m*3 28.3 C 0 km/h
2374 23-06-2009 19:00:57 26.2 C 5.17 g/m*3 26.2 C 0 km/h
2375 23-06-2009 19:12:57 25.1 C 5.56 g/m*3 25.1 C 0 km/h
Sensor: Nr:Datum:Temp:Abs-Feuchte:Windchill:Wind:
Aussen-T/F 2376 23-06-2009 19:24:57 24.4 C 5.56 g/m*3 24.4 C 0 km/h
2377 23-06-2009 19:36:57 24.5 C 5.6 g/m*3 24.5 C 0 km/h
2378 23-06-2009 19:48:56 23.9 C 5.62 g/m*3 23.9 C 0 km/h
2379 23-06-2009 20:00:56 23.5 C 5.71 g/m*3 23.5 C 0 km/h
2380 23-06-2009 20:12:56 23.7 C 5.78 g/m*3 23.7 C 0 km/h
2381 23-06-2009 20:24:57 24.4 C 5.79 g/m*3 24.4 C 0 km/h
2382 23-06-2009 20:36:56 24.1 C 5.69 g/m*3 24.1 C 0 km/h
2383 23-06-2009 20:48:56 23.5 C 6.13 g/m*3 23.5 C 0 km/h
2384 23-06-2009 21:00:56 22.9 C 6.34 g/m*3 22.9 C 0 km/h
2385 23-06-2009 21:12:56 22.3 C 6.91 g/m*3 22.3 C 0 km/h
2386 23-06-2009 21:24:56 21.6 C 7.21 g/m*3 21.6 C 0 km/h
2387 23-06-2009 21:36:56 20.9 C 7.29 g/m*3 20.9 C 0 km/h
2388 23-06-2009 21:48:55 20.4 C 7.25 g/m*3 20.4 C 0 km/h
2389 23-06-2009 22:00:56 19.8 C 7.17 g/m*3 19.8 C 0 km/h
2390 23-06-2009 22:12:56 19.5 C 7.22 g/m*3 19.5 C 0 km/h
2391 23-06-2009 22:25:57 19.5 C 7.38 g/m*3 19.5 C 0 km/h
2392 23-06-2009 22:37:57 19.2 C 7.42 g/m*3 19.2 C 0 km/h
2393 23-06-2009 22:49:57 18.9 C 7.45 g/m*3 18.9 C 0 km/h
2394 23-06-2009 23:01:57 18.7 C 7.68 g/m*3 18.7 C 0 km/h
2395 23-06-2009 23:13:57 18.6 C 7.64 g/m*3 18.6 C 0 km/h
2396 23-06-2009 23:25:57 18.6 C 7.64 g/m*3 18.6 C 0 km/h
2397 23-06-2009 23:37:57 18.5 C 7.91 g/m*3 18.5 C 0 km/h
2398 23-06-2009 23:49:57 18.5 C 7.75 g/m*3 18.5 C 0 km/h
2399 24-06-2009 00:01:57 18.4 C 7.86 g/m*3 18.4 C 0 km/h
2400 24-06-2009 00:13:57 18.3 C 7.97 g/m*3 18.3 C 0 km/h
Sensor: Nr:Datum:Temp:Abs-Feuchte:Windchill:Wind:
Aussen-T/F 2401 24-06-2009 00:25:57 18.1 C 7.88 g/m*3 18.1 C 0 km/h
2402 24-06-2009 00:37:57 18.1 C 7.88 g/m*3 18.1 C 0 km/h
2403 24-06-2009 00:49:57 17.8 C 7.89 g/m*3 17.8 C 0 km/h
2404 24-06-2009 01:01:57 17.6 C 8.1 g/m*3 17.6 C 0 km/h
2405 24-06-2009 01:13:57 17.5 C 7.9 g/m*3 17.5 C 0 km/h
2406 24-06-2009 01:25:57 17.5 C 7.9 g/m*3 17.5 C 0 km/h
2407 24-06-2009 01:37:57 17.3 C 7.96 g/m*3 17.3 C 0 km/h
2408 24-06-2009 01:49:57 17 C 7.67 g/m*3 17 C 0 km/h
2409 24-06-2009 02:01:57 17 C 7.67 g/m*3 17 C 0 km/h
2410 24-06-2009 02:13:57 16.9 C 7.91 g/m*3 16.9 C 0 km/h
2411 24-06-2009 02:25:58 16.4 C 7.68 g/m*3 16.4 C 0 km/h
2412 24-06-2009 02:37:58 16.3 C 7.63 g/m*3 16.3 C 0 km/h
2413 24-06-2009 02:49:58 16.1 C 7.54 g/m*3 16.1 C 0 km/h
2414 24-06-2009 03:01:58 15.7 C 7.63 g/m*3 15.7 C 0 km/h
2415 24-06-2009 03:13:58 15.5 C 7.67 g/m*3 15.5 C 0 km/h
2416 24-06-2009 03:25:58 15.3 C 7.57 g/m*3 15.3 C 0 km/h
2417 24-06-2009 03:37:58 15 C 7.57 g/m*3 15 C 0 km/h
2418 24-06-2009 03:49:58 14.8 C 7.73 g/m*3 14.8 C 0 km/h
2419 24-06-2009 04:01:58 14.7 C 7.68 g/m*3 14.7 C 0 km/h
2420 24-06-2009 04:13:58 14.4 C 7.66 g/m*3 14.4 C 0 km/h
2421 24-06-2009 04:25:58 14.4 C 7.66 g/m*3 14.4 C 0 km/h
2422 24-06-2009 04:37:58 14.3 C 7.62 g/m*3 14.3 C 0 km/h
2423 24-06-2009 04:49:58 14.4 C 7.54 g/m*3 14.4 C 0 km/h
2424 24-06-2009 05:01:58 14.1 C 7.4 g/m*3 14.1 C 0 km/h
2425 24-06-2009 05:13:58 13.8 C 7.39 g/m*3 13.8 C 0 km/h
Sensor: Nr:Datum:Temp:Abs-Feuchte:Windchill:Wind:
Aussen-T/F 2426 24-06-2009 05:25:58 13.7 C 7.34 g/m*3 13.7 C 0 km/h
2427 24-06-2009 05:37:58 13.6 C 7.53 g/m*3 13.6 C 0 km/h
2428 24-06-2009 05:49:58 13.6 C 7.3 g/m*3 13.6 C 0 km/h
2429 24-06-2009 06:01:58 13.5 C 7.25 g/m*3 13.5 C 0 km/h
2430 24-06-2009 06:13:59 13.6 C 7.3 g/m*3 13.6 C 0 km/h
2431 24-06-2009 06:25:59 13.6 C 7.3 g/m*3 13.6 C 0 km/h
2432 24-06-2009 06:37:59 13.6 C 7.53 g/m*3 13.6 C 0 km/h
2433 24-06-2009 06:49:59 13.5 C 7.49 g/m*3 13.5 C 0 km/h
2434 24-06-2009 07:01:56 13.7 C 7.58 g/m*3 13.7 C 0 km/h
2435 24-06-2009 07:13:56 13.7 C 7.46 g/m*3 13.7 C 0 km/h
2436 24-06-2009 07:25:56 13.9 C 7.55 g/m*3 13.9 C 0 km/h
2437 24-06-2009 07:37:56 14.1 C 7.4 g/m*3 14.1 C 0 km/h
2438 24-06-2009 07:49:56 14.2 C 7.45 g/m*3 14.2 C 0 km/h
2439 24-06-2009 08:01:56 14.6 C 7.51 g/m*3 14.6 C 0 km/h
2440 24-06-2009 08:13:56 14.8 C 7.47 g/m*3 14.8 C 0 km/h
2441 24-06-2009 08:25:56 15.2 C 7.53 g/m*3 15.2 C 0 km/h
2442 24-06-2009 08:37:56 15.4 C 7.62 g/m*3 15.4 C 0 km/h
2443 24-06-2009 08:49:55 16 C 7.77 g/m*3 16 C 0 km/h
2444 24-06-2009 09:01:56 16.6 C 7.2 g/m*3 16.6 C 0 km/h
2445 24-06-2009 09:13:56 17.3 C 7.51 g/m*3 17.3 C 0 km/h
2446 24-06-2009 09:25:55 17.8 C 7.29 g/m*3 17.8 C 0 km/h
2447 24-06-2009 09:37:55 18.3 C 7.19 g/m*3 18.3 C 0 km/h
2448 24-06-2009 09:49:54 18.8 C 7.25 g/m*3 18.8 C 0 km/h
2449 24-06-2009 10:01:55 19.4 C 6.84 g/m*3 19.4 C 0 km/h
2450 24-06-2009 10:13:55 20.4 C 7.25 g/m*3 20.4 C 0 km/h
Sensor: Nr:Datum:Temp:Abs-Feuchte:Windchill:Wind:
Aussen-T/F 2451 24-06-2009 10:25:54 21.1 C 6.82 g/m*3 21.1 C 0 km/h
2452 24-06-2009 10:37:54 21.5 C 6.22 g/m*3 21.5 C 0 km/h
2453 24-06-2009 10:49:54 22 C 6.02 g/m*3 22 C 0 km/h
2454 24-06-2009 11:01:54 22.4 C 5.96 g/m*3 22.4 C 0 km/h
2455 24-06-2009 11:13:54 22.8 C 6.1 g/m*3 22.8 C 0 km/h
2456 24-06-2009 11:25:54 23.2 C 6.24 g/m*3 23.2 C 0 km/h
2457 24-06-2009 11:37:54 23.8 C 6.02 g/m*3 23.8 C 0 km/h
2458 24-06-2009 11:49:54 24.6 C 5.63 g/m*3 24.6 C 0 km/h
2459 24-06-2009 12:01:53 25.6 C 6.19 g/m*3 25.6 C 0 km/h
2460 24-06-2009 12:13:53 26 C 5.6 g/m*3 26 C 0 km/h
2461 24-06-2009 12:25:54 26.4 C 5.97 g/m*3 26.4 C 0 km/h
2462 24-06-2009 12:37:53 27.2 C 5.46 g/m*3 27.2 C 0 km/h
2463 24-06-2009 12:49:53 27.7 C 5.62 g/m*3 27.7 C 0 km/h
2464 24-06-2009 13:01:52 28.5 C 5.59 g/m*3 28.5 C 0 km/h
2465 24-06-2009 13:13:52 29 C 5.74 g/m*3 29 C 0 km/h
2466 24-06-2009 13:25:53 29.5 C 5.9 g/m*3 29.5 C 0 km/h
2467 24-06-2009 13:37:53 29.8 C 6 g/m*3 29.8 C 0 km/h
2468 24-06-2009 13:49:52 29.7 C 5.97 g/m*3 29.7 C 0 km/h
2469 24-06-2009 14:01:53 29.5 C 5.9 g/m*3 29.5 C 0 km/h
2470 24-06-2009 14:13:53 28.6 C 5.62 g/m*3 28.6 C 0 km/h
2471 24-06-2009 14:25:52 28.1 C 5.74 g/m*3 28.1 C 0 km/h
2472 24-06-2009 14:37:52 28.5 C 6.43 g/m*3 28.5 C 0 km/h
2473 24-06-2009 14:49:52 28.8 C 5.97 g/m*3 28.8 C 0 km/h
2474 24-06-2009 15:01:52 29.4 C 5.87 g/m*3 29.4 C 0 km/h
2475 24-06-2009 15:13:52 29.9 C 6.03 g/m*3 29.9 C 0 km/h
Sensor: Nr:Datum:Temp:Abs-Feuchte:Windchill:Wind:
Aussen-T/F 2476 24-06-2009 15:25:51 30.3 C 6.16 g/m*3 30.3 C 0 km/h
2477 24-06-2009 15:37:51 30.1 C 6.1 g/m*3 30.1 C 0 km/h
2478 24-06-2009 15:49:52 30.4 C 6.2 g/m*3 30.4 C 0 km/h
2479 24-06-2009 16:01:51 30.6 C 6.26 g/m*3 30.6 C 0 km/h
2480 24-06-2009 16:13:51 30.9 C 6.37 g/m*3 30.9 C 0 km/h
2481 24-06-2009 16:25:51 31.2 C 6.47 g/m*3 31.2 C 0 km/h
2482 24-06-2009 16:37:51 31.2 C 6.47 g/m*3 31.2 C 0 km/h
2483 24-06-2009 16:49:51 31.3 C 6.5 g/m*3 31.3 C 0 km/h
2484 24-06-2009 17:01:50 31.7 C 6.64 g/m*3 31.7 C 0 km/h
2485 24-06-2009 17:13:50 31.8 C 6.68 g/m*3 31.8 C 0 km/h
2486 24-06-2009 17:25:51 31.7 C 6.64 g/m*3 31.7 C 0 km/h
2487 24-06-2009 17:37:51 32.3 C 6.86 g/m*3 32.3 C 0 km/h
2488 24-06-2009 17:49:50 31.9 C 6.72 g/m*3 31.9 C 0 km/h
2489 24-06-2009 18:01:50 32.1 C 6.79 g/m*3 32.1 C 0 km/h
2490 24-06-2009 18:13:50 32.1 C 6.79 g/m*3 32.1 C 0 km/h
2491 24-06-2009 18:25:50 31.7 C 6.64 g/m*3 31.7 C 0 km/h
2492 24-06-2009 18:37:50 31.2 C 6.47 g/m*3 31.2 C 0 km/h
2493 24-06-2009 18:49:49 30.5 C 6.23 g/m*3 30.5 C 0 km/h
2494 24-06-2009 19:01:50 30 C 6.67 g/m*3 30 C 0 km/h
2495 24-06-2009 19:13:51 29 C 6.89 g/m*3 29 C 0 km/h
2496 24-06-2009 19:25:49 30.7 C 6.3 g/m*3 30.7 C 0 km/h
2497 24-06-2009 19:37:49 30.2 C 6.44 g/m*3 30.2 C 0 km/h
2498 24-06-2009 19:49:49 28.6 C 7.31 g/m*3 28.6 C 0 km/h
2499 24-06-2009 20:01:49 28.3 C 7.74 g/m*3 28.3 C 0 km/h
2500 24-06-2009 20:13:49 27.3 C 7.85 g/m*3 27.3 C 0 km/h
Sensor: Nr:Datum:Temp:Abs-Feuchte:Windchill:Wind:
Aussen-T/F 2501 24-06-2009 20:25:49 26.5 C 7.76 g/m*3 26.5 C 0 km/h
2502 24-06-2009 20:37:48 25.8 C 7.7 g/m*3 25.8 C 0 km/h
2503 24-06-2009 20:49:49 24.9 C 8.01 g/m*3 24.9 C 0 km/h
2504 24-06-2009 21:01:48 24.4 C 7.79 g/m*3 24.4 C 0 km/h
2505 24-06-2009 21:13:48 24 C 7.83 g/m*3 24 C 0 km/h
2506 24-06-2009 21:25:48 23.7 C 7.91 g/m*3 23.7 C 0 km/h
2507 24-06-2009 21:37:48 23.7 C 8.13 g/m*3 23.7 C 0 km/h
2508 24-06-2009 21:49:48 23.8 C 8.39 g/m*3 23.8 C 0 km/h
2509 24-06-2009 22:02:01 23.6 C 8.29 g/m*3 23.6 C 0 km/h
2510 24-06-2009 22:14:01 23.5 C 8.46 g/m*3 23.5 C 0 km/h
2511 24-06-2009 22:26:01 23.3 C 8.15 g/m*3 23.3 C 0 km/h
2512 24-06-2009 22:38:01 23.3 C 8.15 g/m*3 23.3 C 0 km/h
2513 24-06-2009 22:50:01 23.1 C 7.86 g/m*3 23.1 C 0 km/h
2514 24-06-2009 23:02:02 22.7 C 8.08 g/m*3 22.7 C 0 km/h
2515 24-06-2009 23:14:02 22.5 C 8.19 g/m*3 22.5 C 0 km/h
2516 24-06-2009 23:26:02 22.4 C 8.14 g/m*3 22.4 C 0 km/h
2517 24-06-2009 23:38:02 21.9 C 8.49 g/m*3 21.9 C 0 km/h
2518 24-06-2009 23:50:02 21.6 C 8.35 g/m*3 21.6 C 0 km/h
2519 25-06-2009 00:02:02 21.4 C 8.44 g/m*3 21.4 C 0 km/h
2520 25-06-2009 00:14:02 21.3 C 8.39 g/m*3 21.3 C 0 km/h
2521 25-06-2009 00:26:02 21.5 C 8.67 g/m*3 21.5 C 0 km/h
2522 25-06-2009 00:38:02 21.4 C 8.81 g/m*3 21.4 C 0 km/h
2523 25-06-2009 00:50:02 20.9 C 9.11 g/m*3 20.9 C 0 km/h
2524 25-06-2009 01:02:02 20.7 C 9 g/m*3 20.7 C 0 km/h
2525 25-06-2009 01:14:02 20.6 C 8.95 g/m*3 20.6 C 0 km/h
Sensor: Nr:Datum:Temp:Abs-Feuchte:Windchill:Wind:
Aussen-T/F 2526 25-06-2009 01:26:02 20.2 C 8.74 g/m*3 20.2 C 0 km/h
2527 25-06-2009 01:38:02 19.7 C 8.83 g/m*3 19.7 C 0 km/h
2528 25-06-2009 01:50:02 19.3 C 8.79 g/m*3 19.3 C 0 km/h
2529 25-06-2009 02:02:02 19.1 C 9.02 g/m*3 19.1 C 0 km/h
2530 25-06-2009 02:14:02 18.8 C 9.18 g/m*3 18.8 C 0 km/h
2531 25-06-2009 02:26:02 18.7 C 9.13 g/m*3 18.7 C 0 km/h
2532 25-06-2009 02:38:02 18.5 C 9.02 g/m*3 18.5 C 0 km/h
2533 25-06-2009 02:50:02 18.2 C 9.01 g/m*3 18.2 C 0 km/h
2534 25-06-2009 03:02:03 18.1 C 9.12 g/m*3 18.1 C 0 km/h
2535 25-06-2009 03:14:03 17.9 C 9.31 g/m*3 17.9 C 0 km/h
2536 25-06-2009 03:26:03 17.7 C 9.35 g/m*3 17.7 C 0 km/h
2537 25-06-2009 03:38:03 17.4 C 9.34 g/m*3 17.4 C 0 km/h
2538 25-06-2009 03:50:03 17.1 C 9.61 g/m*3 17.1 C 0 km/h
2539 25-06-2009 04:02:03 16.7 C 9.52 g/m*3 16.7 C 0 km/h
2540 25-06-2009 04:14:03 16.7 C 9.38 g/m*3 16.7 C 0 km/h
2541 25-06-2009 04:26:03 16.7 C 9.38 g/m*3 16.7 C 0 km/h
2542 25-06-2009 04:38:03 16.5 C 9.13 g/m*3 16.5 C 0 km/h
2543 25-06-2009 04:50:03 16.4 C 9.07 g/m*3 16.4 C 0 km/h
2544 25-06-2009 05:02:03 16.3 C 9.16 g/m*3 16.3 C 0 km/h
2545 25-06-2009 05:14:03 16.1 C 9.05 g/m*3 16.1 C 0 km/h
2546 25-06-2009 05:26:03 15.9 C 9.21 g/m*3 15.9 C 0 km/h
2547 25-06-2009 05:38:03 15.9 C 9.21 g/m*3 15.9 C 0 km/h
2548 25-06-2009 05:50:03 16 C 8.99 g/m*3 16 C 0 km/h
2549 25-06-2009 06:02:03 16.1 C 9.05 g/m*3 16.1 C 0 km/h
2550 25-06-2009 06:14:03 16.1 C 9.18 g/m*3 16.1 C 0 km/h
Sensor: Nr:Datum:Temp:Abs-Feuchte:Windchill:Wind:
Aussen-T/F 2551 25-06-2009 06:26:01 16.1 C 9.32 g/m*3 16.1 C 0 km/h
2552 25-06-2009 06:38:02 16.2 C 9.38 g/m*3 16.2 C 0 km/h
2553 25-06-2009 06:50:01 16.1 C 9.46 g/m*3 16.1 C 0 km/h
2554 25-06-2009 07:02:01 16.3 C 9.57 g/m*3 16.3 C 0 km/h
2555 25-06-2009 07:14:01 16.4 C 9.63 g/m*3 16.4 C 0 km/h
2556 25-06-2009 07:26:01 16.6 C 9.61 g/m*3 16.6 C 0 km/h
2557 25-06-2009 07:38:00 16.6 C 9.46 g/m*3 16.6 C 0 km/h
2558 25-06-2009 07:50:01 16.9 C 9.64 g/m*3 16.9 C 0 km/h
2559 25-06-2009 08:02:01 17.3 C 9.87 g/m*3 17.3 C 0 km/h
2560 25-06-2009 08:14:01 17.7 C 9.81 g/m*3 17.7 C 0 km/h
2561 25-06-2009 08:26:00 18 C 9.83 g/m*3 18 C 0 km/h
2562 25-06-2009 08:38:00 18.5 C 9.81 g/m*3 18.5 C 0 km/h
2563 25-06-2009 08:50:00 19.2 C 9.07 g/m*3 19.2 C 0 km/h
2564 25-06-2009 09:02:00 19.7 C 9.34 g/m*3 19.7 C 0 km/h
2565 25-06-2009 09:14:00 20.3 C 9.15 g/m*3 20.3 C 0 km/h
2566 25-06-2009 09:26:59 20.8 C 9.23 g/m*3 20.8 C 0 km/h
2567 25-06-2009 09:38:00 21.4 C 9.37 g/m*3 21.4 C 0 km/h
2568 25-06-2009 09:50:59 21.7 C 8.97 g/m*3 21.7 C 0 km/h
2569 25-06-2009 10:02:59 22 C 8.73 g/m*3 22 C 0 km/h
2570 25-06-2009 10:14:00 23 C 9.25 g/m*3 23 C 0 km/h
2571 25-06-2009 10:26:00 23.5 C 9.09 g/m*3 23.5 C 0 km/h
2572 25-06-2009 10:38:59 23.8 C 9.25 g/m*3 23.8 C 0 km/h
2573 25-06-2009 10:50:59 24.4 C 9.12 g/m*3 24.4 C 0 km/h
2574 25-06-2009 11:02:59 24.8 C 9.1 g/m*3 24.8 C 0 km/h
2575 25-06-2009 11:14:59 26.1 C 9.06 g/m*3 26.1 C 0 km/h
Sensor: Nr:Datum:Temp:Abs-Feuchte:Windchill:Wind:
Aussen-T/F 2576 25-06-2009 11:26:59 26.2 C 8.37 g/m*3 26.2 C 0 km/h
2577 25-06-2009 11:38:58 26.3 C 9.16 g/m*3 26.3 C 0 km/h
2578 25-06-2009 11:50:59 26.9 C 8.7 g/m*3 26.9 C 0 km/h
2579 25-06-2009 12:02:58 26.8 C 8.91 g/m*3 26.8 C 0 km/h
2580 25-06-2009 12:14:58 27.9 C 8.65 g/m*3 27.9 C 0 km/h
2581 25-06-2009 12:26:58 28.4 C 8.34 g/m*3 28.4 C 0 km/h
2582 25-06-2009 12:38:58 28.8 C 8.81 g/m*3 28.8 C 0 km/h
2583 25-06-2009 12:50:58 30.1 C 8.54 g/m*3 30.1 C 0 km/h
2584 25-06-2009 13:02:57 30.3 C 8.32 g/m*3 30.3 C 0 km/h
2585 25-06-2009 13:14:57 31 C 8 g/m*3 31 C 0 km/h
2586 25-06-2009 13:26:57 30 C 8.19 g/m*3 30 C 0 km/h
2587 25-06-2009 13:38:58 30.7 C 7.87 g/m*3 30.7 C 0 km/h
2588 25-06-2009 13:50:57 30.2 C 8.28 g/m*3 30.2 C 0 km/h
2589 25-06-2009 14:02:57 29.7 C 8.65 g/m*3 29.7 C 0 km/h
2590 25-06-2009 14:14:57 30.6 C 7.83 g/m*3 30.6 C 0 km/h
2591 25-06-2009 14:26:57 30.4 C 8.37 g/m*3 30.4 C 0 km/h
2592 25-06-2009 14:38:57 30.4 C 8.37 g/m*3 30.4 C 0 km/h
2593 25-06-2009 14:50:56 31.1 C 8.04 g/m*3 31.1 C 0 km/h
2594 25-06-2009 15:02:57 31.3 C 7.81 g/m*3 31.3 C 0 km/h
2595 25-06-2009 15:14:56 30.9 C 8.28 g/m*3 30.9 C 0 km/h
2596 25-06-2009 15:26:56 31.2 C 8.09 g/m*3 31.2 C 0 km/h
2597 25-06-2009 15:38:56 31.9 C 7.39 g/m*3 31.9 C 0 km/h
2598 25-06-2009 15:50:56 31.9 C 7.05 g/m*3 31.9 C 0 km/h
2599 25-06-2009 16:02:56 31.5 C 8.22 g/m*3 31.5 C 0 km/h
2600 25-06-2009 16:14:56 31.8 C 7.35 g/m*3 31.8 C 0 km/h
Sensor: Nr:Datum:Temp:Abs-Feuchte:Windchill:Wind:
Aussen-T/F 2601 25-06-2009 16:26:56 31.8 C 7.01 g/m*3 31.8 C 0 km/h
2602 25-06-2009 16:38:55 31.7 C 7.31 g/m*3 31.7 C 0 km/h
2603 25-06-2009 16:50:56 32.3 C 6.86 g/m*3 32.3 C 0 km/h
2604 25-06-2009 17:02:55 32.5 C 6.93 g/m*3 32.5 C 0 km/h
2605 25-06-2009 17:14:55 32.5 C 6.93 g/m*3 32.5 C 0 km/h
2606 25-06-2009 17:26:55 32.4 C 6.9 g/m*3 32.4 C 0 km/h
2607 25-06-2009 17:38:55 32.7 C 7.01 g/m*3 32.7 C 0 km/h
2608 25-06-2009 17:50:55 32.6 C 6.97 g/m*3 32.6 C 0 km/h
2609 25-06-2009 18:02:54 32.3 C 6.86 g/m*3 32.3 C 0 km/h
2610 25-06-2009 18:14:55 31.7 C 6.64 g/m*3 31.7 C 0 km/h
2611 25-06-2009 18:26:55 31.3 C 8.13 g/m*3 31.3 C 0 km/h
2612 25-06-2009 18:38:55 30.8 C 8.55 g/m*3 30.8 C 0 km/h
2613 25-06-2009 18:50:54 29.9 C 9.05 g/m*3 29.9 C 0 km/h
2614 25-06-2009 19:02:55 29.2 C 9 g/m*3 29.2 C 0 km/h
2615 25-06-2009 19:14:54 27.9 C 9.47 g/m*3 27.9 C 0 km/h
2616 25-06-2009 19:26:54 28 C 9.79 g/m*3 28 C 0 km/h
2617 25-06-2009 19:38:54 30 C 9.4 g/m*3 30 C 0 km/h
2618 25-06-2009 19:50:54 30.6 C 9.08 g/m*3 30.6 C 0 km/h
2619 25-06-2009 20:02:54 31 C 8.64 g/m*3 31 C 0 km/h
2620 25-06-2009 20:14:53 30.7 C 8.5 g/m*3 30.7 C 0 km/h
2621 25-06-2009 20:26:53 30.2 C 9.5 g/m*3 30.2 C 0 km/h
2622 25-06-2009 20:38:53 28.8 C 9.94 g/m*3 28.8 C 0 km/h
2623 25-06-2009 20:50:53 27.5 C 10.32 g/m*3 27.5 C 0 km/h
2624 25-06-2009 21:02:53 26.5 C 10.26 g/m*3 26.5 C 0 km/h
2625 25-06-2009 21:14:53 25.4 C 10.36 g/m*3 25.4 C 0 km/h
Sensor: Nr:Datum:Temp:Abs-Feuchte:Windchill:Wind:
Aussen-T/F 2626 25-06-2009 21:26:53 25.2 C 10.48 g/m*3 25.2 C 0 km/h
2627 25-06-2009 21:38:52 24.9 C 10.53 g/m*3 24.9 C 0 km/h
2628 25-06-2009 21:50:53 24.7 C 10.64 g/m*3 24.7 C 0 km/h
2629 25-06-2009 22:02:52 24.4 C 10.68 g/m*3 24.4 C 0 km/h
2630 25-06-2009 22:14:52 24.3 C 11.06 g/m*3 24.3 C 0 km/h
2631 25-06-2009 22:26:52 23.9 C 11.25 g/m*3 23.9 C 0 km/h
2632 25-06-2009 22:38:53 23.9 C 10.82 g/m*3 23.9 C 0 km/h
2633 25-06-2009 22:51:54 23.7 C 10.27 g/m*3 23.7 C 0 km/h
2634 25-06-2009 23:03:54 23.4 C 9.88 g/m*3 23.4 C 0 km/h
2635 25-06-2009 23:15:54 23.1 C 10.13 g/m*3 23.1 C 0 km/h
2636 25-06-2009 23:27:54 22.8 C 9.96 g/m*3 22.8 C 0 km/h
2637 25-06-2009 23:39:54 22.4 C 10.13 g/m*3 22.4 C 0 km/h
2638 25-06-2009 23:51:54 22.1 C 10.15 g/m*3 22.1 C 0 km/h
2639 26-06-2009 00:03:54 21.8 C 10.17 g/m*3 21.8 C 0 km/h
2640 26-06-2009 00:15:54 21.7 C 10.11 g/m*3 21.7 C 0 km/h
2641 26-06-2009 00:27:54 21.4 C 10.31 g/m*3 21.4 C 0 km/h
2642 26-06-2009 00:39:54 21.1 C 10.32 g/m*3 21.1 C 0 km/h
2643 26-06-2009 00:51:54 20.9 C 10.56 g/m*3 20.9 C 0 km/h
2644 26-06-2009 01:03:54 20.8 C 10.5 g/m*3 20.8 C 0 km/h
2645 26-06-2009 01:15:54 20.6 C 10.56 g/m*3 20.6 C 0 km/h
2646 26-06-2009 01:27:54 20.5 C 10.5 g/m*3 20.5 C 0 km/h
2647 26-06-2009 01:39:55 20.5 C 10.5 g/m*3 20.5 C 0 km/h
2648 26-06-2009 01:51:55 20.2 C 10.49 g/m*3 20.2 C 0 km/h
2649 26-06-2009 02:03:55 19.7 C 10.7 g/m*3 19.7 C 0 km/h
2650 26-06-2009 02:15:55 19.3 C 10.62 g/m*3 19.3 C 0 km/h
Sensor: Nr:Datum:Temp:Abs-Feuchte:Windchill:Wind:
Aussen-T/F 2651 26-06-2009 02:27:55 19.2 C 10.88 g/m*3 19.2 C 0 km/h
2652 26-06-2009 02:39:55 18.9 C 10.85 g/m*3 18.9 C 0 km/h
2653 26-06-2009 02:51:55 18.7 C 10.89 g/m*3 18.7 C 0 km/h
2654 26-06-2009 03:03:55 18.5 C 10.92 g/m*3 18.5 C 0 km/h
2655 26-06-2009 03:15:55 18.5 C 11.08 g/m*3 18.5 C 0 km/h
2656 26-06-2009 03:27:55 18.3 C 10.94 g/m*3 18.3 C 0 km/h
2657 26-06-2009 03:39:55 18 C 10.75 g/m*3 18 C 0 km/h
2658 26-06-2009 03:51:55 17.7 C 10.86 g/m*3 17.7 C 0 km/h
2659 26-06-2009 04:03:55 17.7 C 11.16 g/m*3 17.7 C 0 km/h
2660 26-06-2009 04:15:55 17.5 C 11.03 g/m*3 17.5 C 0 km/h
2661 26-06-2009 04:27:55 17.5 C 11.18 g/m*3 17.5 C 0 km/h
2662 26-06-2009 04:39:55 17.5 C 11.18 g/m*3 17.5 C 0 km/h
2663 26-06-2009 04:51:55 17.4 C 11.12 g/m*3 17.4 C 0 km/h
2664 26-06-2009 05:03:55 17.3 C 11.05 g/m*3 17.3 C 0 km/h
2665 26-06-2009 05:15:55 17.2 C 11.13 g/m*3 17.2 C 0 km/h
2666 26-06-2009 05:27:56 17.2 C 11.28 g/m*3 17.2 C 0 km/h
2667 26-06-2009 05:39:56 17.2 C 11.28 g/m*3 17.2 C 0 km/h
2668 26-06-2009 05:51:56 17.1 C 11.21 g/m*3 17.1 C 0 km/h
2669 26-06-2009 06:03:56 17.4 C 11.41 g/m*3 17.4 C 0 km/h
2670 26-06-2009 06:15:56 17.7 C 11.47 g/m*3 17.7 C 0 km/h
2671 26-06-2009 06:27:56 18.1 C 11.59 g/m*3 18.1 C 0 km/h
2672 26-06-2009 06:39:56 18.5 C 11.55 g/m*3 18.5 C 0 km/h
2673 26-06-2009 06:51:56 18.7 C 11.53 g/m*3 18.7 C 0 km/h
2674 26-06-2009 07:03:54 18.9 C 11.34 g/m*3 18.9 C 0 km/h
2675 26-06-2009 07:15:53 18.9 C 11.18 g/m*3 18.9 C 0 km/h
Sensor: Nr:Datum:Temp:Abs-Feuchte:Windchill:Wind:
Aussen-T/F 2676 26-06-2009 07:27:53 19.1 C 11.15 g/m*3 19.1 C 0 km/h
2677 26-06-2009 07:39:53 19.4 C 11.18 g/m*3 19.4 C 0 km/h
2678 26-06-2009 07:51:53 19.8 C 11.1 g/m*3 19.8 C 0 km/h
2679 26-06-2009 08:03:53 20 C 10.89 g/m*3 20 C 0 km/h
2680 26-06-2009 08:15:52 20 C 10.89 g/m*3 20 C 0 km/h
2681 26-06-2009 08:27:52 20 C 10.71 g/m*3 20 C 0 km/h
2682 26-06-2009 08:39:52 20.1 C 10.78 g/m*3 20.1 C 0 km/h
2683 26-06-2009 08:51:52 19.9 C 10.65 g/m*3 19.9 C 0 km/h
2684 26-06-2009 09:03:52 20.7 C 10.8 g/m*3 20.7 C 0 km/h
2685 26-06-2009 09:15:52 21.2 C 10.38 g/m*3 21.2 C 0 km/h
2686 26-06-2009 09:27:52 21.6 C 10.81 g/m*3 21.6 C 0 km/h
2687 26-06-2009 09:39:52 22.2 C 10.41 g/m*3 22.2 C 0 km/h
2688 26-06-2009 09:51:52 22.3 C 10.66 g/m*3 22.3 C 0 km/h
2689 26-06-2009 10:03:51 22.5 C 10.79 g/m*3 22.5 C 0 km/h
2690 26-06-2009 10:15:52 21.6 C 10.62 g/m*3 21.6 C 0 km/h
2691 26-06-2009 10:27:52 22.1 C 10.74 g/m*3 22.1 C 0 km/h
2692 26-06-2009 10:39:51 22.9 C 11.04 g/m*3 22.9 C 0 km/h
2693 26-06-2009 10:51:51 24 C 10.66 g/m*3 24 C 0 km/h
2694 26-06-2009 11:03:51 22.6 C 10.65 g/m*3 22.6 C 0 km/h
2695 26-06-2009 11:15:51 23.8 C 11.19 g/m*3 23.8 C 0 km/h
2696 26-06-2009 11:27:51 24.6 C 10.8 g/m*3 24.6 C 0 km/h
2697 26-06-2009 11:39:51 24.9 C 10.53 g/m*3 24.9 C 0 km/h
2698 26-06-2009 11:51:51 26.6 C 10.32 g/m*3 26.6 C 0 km/h
2699 26-06-2009 12:03:51 27.9 C 10.01 g/m*3 27.9 C 0 km/h
2700 26-06-2009 12:15:50 28.3 C 9.95 g/m*3 28.3 C 0 km/h
Sensor: Nr:Datum:Temp:Abs-Feuchte:Windchill:Wind:
Aussen-T/F 2701 26-06-2009 12:27:50 28 C 9.52 g/m*3 28 C 0 km/h
2702 26-06-2009 12:39:50 29.2 C 8.71 g/m*3 29.2 C 0 km/h
2703 26-06-2009 12:51:50 27.7 C 9.63 g/m*3 27.7 C 0 km/h
2704 26-06-2009 13:03:50 28 C 9.52 g/m*3 28 C 0 km/h
2705 26-06-2009 13:15:49 30.9 C 8.28 g/m*3 30.9 C 0 km/h
2706 26-06-2009 13:27:49 31.9 C 7.39 g/m*3 31.9 C 0 km/h
2707 26-06-2009 13:39:50 31.8 C 7.01 g/m*3 31.8 C 0 km/h
2708 26-06-2009 13:51:49 31.9 C 7.05 g/m*3 31.9 C 0 km/h
2709 26-06-2009 14:03:49 31.8 C 7.35 g/m*3 31.8 C 0 km/h
2710 26-06-2009 14:15:50 30.4 C 8.68 g/m*3 30.4 C 0 km/h
2711 26-06-2009 14:27:50 30.7 C 8.19 g/m*3 30.7 C 0 km/h
2712 26-06-2009 14:39:49 30.3 C 8.94 g/m*3 30.3 C 0 km/h
2713 26-06-2009 14:51:49 30.3 C 8.63 g/m*3 30.3 C 0 km/h
2714 26-06-2009 15:03:49 30.2 C 8.89 g/m*3 30.2 C 0 km/h
2715 26-06-2009 15:15:49 30 C 8.79 g/m*3 30 C 0 km/h
2716 26-06-2009 15:27:49 30.6 C 8.46 g/m*3 30.6 C 0 km/h
2717 26-06-2009 15:39:48 31 C 8.96 g/m*3 31 C 0 km/h
2718 26-06-2009 15:51:49 31.9 C 8.06 g/m*3 31.9 C 0 km/h
2719 26-06-2009 16:03:48 31.7 C 7.64 g/m*3 31.7 C 0 km/h
2720 26-06-2009 16:15:48 31.6 C 7.27 g/m*3 31.6 C 0 km/h
2721 26-06-2009 16:27:48 32 C 7.43 g/m*3 32 C 0 km/h
2722 26-06-2009 16:39:48 32.3 C 6.86 g/m*3 32.3 C 0 km/h
2723 26-06-2009 16:51:48 32.7 C 7.01 g/m*3 32.7 C 0 km/h
2724 26-06-2009 17:03:48 33 C 7.12 g/m*3 33 C 0 km/h
2725 26-06-2009 17:15:47 32.5 C 6.93 g/m*3 32.5 C 0 km/h
Sensor: Nr:Datum:Temp:Abs-Feuchte:Windchill:Wind:
Aussen-T/F 2726 26-06-2009 17:27:47 32.9 C 7.08 g/m*3 32.9 C 0 km/h
2727 26-06-2009 17:39:48 33.3 C 7.23 g/m*3 33.3 C 0 km/h
2728 26-06-2009 17:51:47 32.7 C 7.01 g/m*3 32.7 C 0 km/h
2729 26-06-2009 18:03:47 32.8 C 7.04 g/m*3 32.8 C 0 km/h
2730 26-06-2009 18:15:47 32.6 C 6.97 g/m*3 32.6 C 0 km/h
2731 26-06-2009 18:27:47 31.9 C 6.72 g/m*3 31.9 C 0 km/h
2732 26-06-2009 18:39:47 32.6 C 6.97 g/m*3 32.6 C 0 km/h
2733 26-06-2009 18:51:46 32.8 C 7.04 g/m*3 32.8 C 0 km/h
2734 26-06-2009 19:03:46 33.2 C 7.2 g/m*3 33.2 C 0 km/h
2735 26-06-2009 19:15:47 31.9 C 7.39 g/m*3 31.9 C 0 km/h
2736 26-06-2009 19:27:47 30.5 C 8.41 g/m*3 30.5 C 0 km/h
2737 26-06-2009 19:39:46 29.2 C 8.42 g/m*3 29.2 C 0 km/h
2738 26-06-2009 19:51:46 28 C 8.7 g/m*3 28 C 0 km/h
2739 26-06-2009 20:03:46 27 C 9.01 g/m*3 27 C 0 km/h
2740 26-06-2009 20:15:46 26.5 C 9.26 g/m*3 26.5 C 0 km/h
2741 26-06-2009 20:27:46 25.7 C 9.58 g/m*3 25.7 C 0 km/h
2742 26-06-2009 20:39:45 25.5 C 9.71 g/m*3 25.5 C 0 km/h
2743 26-06-2009 20:51:46 25.2 C 9.78 g/m*3 25.2 C 0 km/h
2744 26-06-2009 21:03:45 24.7 C 9.96 g/m*3 24.7 C 0 km/h
2745 26-06-2009 21:15:45 24.4 C 10.01 g/m*3 24.4 C 0 km/h
2746 26-06-2009 21:27:46 24.2 C 9.9 g/m*3 24.2 C 0 km/h
2747 26-06-2009 21:39:45 23.9 C 10.17 g/m*3 23.9 C 0 km/h
2748 26-06-2009 21:51:45 23.5 C 10.15 g/m*3 23.5 C 0 km/h
2749 26-06-2009 22:03:44 23.2 C 10.39 g/m*3 23.2 C 0 km/h
2750 26-06-2009 22:15:45 22.9 C 10.42 g/m*3 22.9 C 0 km/h
Sensor: Nr:Datum:Temp:Abs-Feuchte:Windchill:Wind:
Aussen-T/F 2751 26-06-2009 22:27:45 22.6 C 10.65 g/m*3 22.6 C 0 km/h
2752 26-06-2009 22:40:45 22.5 C 10.99 g/m*3 22.5 C 0 km/h
2753 26-06-2009 22:52:45 22.5 C 11.19 g/m*3 22.5 C 0 km/h
2754 26-06-2009 23:04:45 22.4 C 11.12 g/m*3 22.4 C 0 km/h
2755 26-06-2009 23:16:45 22.2 C 11.19 g/m*3 22.2 C 0 km/h
2756 26-06-2009 23:28:45 22 C 11.06 g/m*3 22 C 0 km/h
2757 26-06-2009 23:40:45 21.9 C 11.39 g/m*3 21.9 C 0 km/h
2758 26-06-2009 23:52:45 21.5 C 11.13 g/m*3 21.5 C 0 km/h
2759 27-06-2009 00:04:45 21.5 C 11.5 g/m*3 21.5 C 0 km/h
2760 27-06-2009 00:16:45 21.4 C 11.44 g/m*3 21.4 C 0 km/h
2761 27-06-2009 00:28:45 20.9 C 11.66 g/m*3 20.9 C 0 km/h
2762 27-06-2009 00:40:45 21 C 11.54 g/m*3 21 C 0 km/h
2763 27-06-2009 00:52:46 20.9 C 11.66 g/m*3 20.9 C 0 km/h
2764 27-06-2009 01:04:46 21.2 C 11.86 g/m*3 21.2 C 0 km/h
2765 27-06-2009 01:16:46 21.2 C 11.86 g/m*3 21.2 C 0 km/h
2766 27-06-2009 01:28:46 21 C 11.72 g/m*3 21 C 0 km/h
2767 27-06-2009 01:40:46 20.5 C 11.92 g/m*3 20.5 C 0 km/h
2768 27-06-2009 01:52:46 20.2 C 11.71 g/m*3 20.2 C 0 km/h
2769 27-06-2009 02:04:46 20.1 C 11.82 g/m*3 20.1 C 0 km/h
2770 27-06-2009 02:16:46 20.1 C 11.82 g/m*3 20.1 C 0 km/h
2771 27-06-2009 02:28:46 19.9 C 11.85 g/m*3 19.9 C 0 km/h
2772 27-06-2009 02:40:46 19.6 C 11.65 g/m*3 19.6 C 0 km/h
2773 27-06-2009 02:52:46 19.5 C 11.75 g/m*3 19.5 C 0 km/h
2774 27-06-2009 03:04:46 19.5 C 11.58 g/m*3 19.5 C 0 km/h
2775 27-06-2009 03:16:46 19.3 C 11.61 g/m*3 19.3 C 0 km/h
Sensor: Nr:Datum:Temp:Abs-Feuchte:Windchill:Wind:
Aussen-T/F 2776 27-06-2009 03:28:46 19 C 11.41 g/m*3 19 C 0 km/h
2777 27-06-2009 03:40:46 18.9 C 11.66 g/m*3 18.9 C 0 km/h
2778 27-06-2009 03:52:46 18.8 C 11.76 g/m*3 18.8 C 0 km/h
2779 27-06-2009 04:04:46 18.5 C 11.71 g/m*3 18.5 C 0 km/h
2780 27-06-2009 04:16:46 18.4 C 11.64 g/m*3 18.4 C 0 km/h
2781 27-06-2009 04:28:46 18.3 C 11.73 g/m*3 18.3 C 0 km/h
2782 27-06-2009 04:40:47 18.1 C 11.74 g/m*3 18.1 C 0 km/h
2783 27-06-2009 04:52:47 17.8 C 11.84 g/m*3 17.8 C 0 km/h
2784 27-06-2009 05:04:47 17.8 C 11.84 g/m*3 17.8 C 0 km/h
2785 27-06-2009 05:16:47 17.7 C 11.92 g/m*3 17.7 C 0 km/h
2786 27-06-2009 05:28:47 17.9 C 12.06 g/m*3 17.9 C 0 km/h
2787 27-06-2009 05:40:47 17.9 C 11.91 g/m*3 17.9 C 0 km/h
2788 27-06-2009 05:52:47 18 C 11.83 g/m*3 18 C 0 km/h
2789 27-06-2009 06:04:47 18.1 C 11.9 g/m*3 18.1 C 0 km/h
2790 27-06-2009 06:16:47 18 C 11.83 g/m*3 18 C 0 km/h
2791 27-06-2009 06:28:47 18.2 C 11.97 g/m*3 18.2 C 0 km/h
2792 27-06-2009 06:40:47 18.2 C 11.97 g/m*3 18.2 C 0 km/h
2793 27-06-2009 06:52:47 18.4 C 12.11 g/m*3 18.4 C 0 km/h
2794 27-06-2009 07:04:47 18.7 C 12.17 g/m*3 18.7 C 0 km/h
2795 27-06-2009 07:16:47 18.7 C 12.01 g/m*3 18.7 C 0 km/h
2796 27-06-2009 07:28:47 18.3 C 11.88 g/m*3 18.3 C 0 km/h
2797 27-06-2009 07:40:47 18.5 C 12.18 g/m*3 18.5 C 0 km/h
2798 27-06-2009 07:52:47 18.7 C 12.17 g/m*3 18.7 C 0 km/h
2799 27-06-2009 08:04:47 19 C 12.06 g/m*3 19 C 0 km/h
2800 27-06-2009 08:16:47 19.7 C 12.4 g/m*3 19.7 C 0 km/h
Sensor: Nr:Datum:Temp:Abs-Feuchte:Windchill:Wind:
Aussen-T/F 2801 27-06-2009 08:28:48 20.3 C 11.96 g/m*3 20.3 C 0 km/h
2802 27-06-2009 08:40:48 20.5 C 12.28 g/m*3 20.5 C 0 km/h
2803 27-06-2009 08:52:48 21.2 C 12.23 g/m*3 21.2 C 0 km/h
2804 27-06-2009 09:04:48 21.5 C 12.07 g/m*3 21.5 C 0 km/h
2805 27-06-2009 09:16:44 21.6 C 12.14 g/m*3 21.6 C 0 km/h
2806 27-06-2009 09:28:44 22.4 C 12.31 g/m*3 22.4 C 0 km/h
2807 27-06-2009 09:40:44 23.1 C 11.99 g/m*3 23.1 C 0 km/h
2808 27-06-2009 09:52:44 23.5 C 11.84 g/m*3 23.5 C 0 km/h
2809 27-06-2009 10:04:44 23.7 C 11.55 g/m*3 23.7 C 0 km/h
2810 27-06-2009 10:16:44 24.1 C 11.6 g/m*3 24.1 C 0 km/h
2811 27-06-2009 10:28:44 24.5 C 11.41 g/m*3 24.5 C 0 km/h
2812 27-06-2009 10:40:43 24.5 C 11.19 g/m*3 24.5 C 0 km/h
2813 27-06-2009 10:52:44 24.6 C 11.7 g/m*3 24.6 C 0 km/h
2814 27-06-2009 11:04:43 25.3 C 11.47 g/m*3 25.3 C 0 km/h
2815 27-06-2009 11:16:43 26.2 C 11.08 g/m*3 26.2 C 0 km/h
2816 27-06-2009 11:28:43 26.1 C 11.02 g/m*3 26.1 C 0 km/h
2817 27-06-2009 11:40:43 25.9 C 10.89 g/m*3 25.9 C 0 km/h
2818 27-06-2009 11:52:43 28 C 10.88 g/m*3 28 C 0 km/h
2819 27-06-2009 12:04:43 28.4 C 10.56 g/m*3 28.4 C 0 km/h
2820 27-06-2009 12:16:42 26 C 10.47 g/m*3 26 C 0 km/h
2821 27-06-2009 12:28:42 25.4 C 10.83 g/m*3 25.4 C 0 km/h
2822 27-06-2009 12:40:43 26.9 C 11.01 g/m*3 26.9 C 0 km/h
2823 27-06-2009 12:52:42 28.1 C 10.12 g/m*3 28.1 C 0 km/h
2824 27-06-2009 13:04:43 28.9 C 10.86 g/m*3 28.9 C 0 km/h
2825 27-06-2009 13:16:42 27.4 C 9.47 g/m*3 27.4 C 0 km/h
Sensor: Nr:Datum:Temp:Abs-Feuchte:Windchill:Wind:
Aussen-T/F 2826 27-06-2009 13:28:42 28.5 C 9.78 g/m*3 28.5 C 0 km/h
2827 27-06-2009 13:40:42 29.9 C 9.95 g/m*3 29.9 C 0 km/h
2828 27-06-2009 13:52:42 28.3 C 9.95 g/m*3 28.3 C 0 km/h
2829 27-06-2009 14:04:42 27 C 10.29 g/m*3 27 C 0 km/h
2830 27-06-2009 14:16:31 26.4 C 10.7 g/m*3 26.4 C 0 km/h
2831 27-06-2009 14:28:31 23.4 C 13.04 g/m*3 23.4 C 0 km/h
2832 27-06-2009 14:40:32 21.8 C 14.2 g/m*3 21.8 C 0 km/h
2833 27-06-2009 14:52:32 21.3 C 14.54 g/m*3 21.3 C 0 km/h
2834 27-06-2009 15:04:41 21.2 C 14.64 g/m*3 21.2 C 0 km/h
2835 27-06-2009 15:16:41 21.4 C 15.19 g/m*3 21.4 C 0 km/h
2836 27-06-2009 15:28:41 21.2 C 15.01 g/m*3 21.2 C 0 km/h
2837 27-06-2009 15:40:41 21.7 C 15.64 g/m*3 21.7 C 0 km/h
2838 27-06-2009 15:52:40 23 C 16.65 g/m*3 23 C 0 km/h
2839 27-06-2009 16:04:40 24.4 C 16.69 g/m*3 24.4 C 0 km/h
2840 27-06-2009 16:16:41 26.8 C 14.76 g/m*3 26.8 C 0 km/h
2841 27-06-2009 16:28:41 27.6 C 12.77 g/m*3 27.6 C 0 km/h
2842 27-06-2009 16:40:40 26.1 C 12.98 g/m*3 26.1 C 0 km/h
2843 27-06-2009 16:52:01 25.5 C 13.97 g/m*3 25.5 C 0 km/h
2844 27-06-2009 17:04:01 25.4 C 14.36 g/m*3 25.4 C 0 km/h
2845 27-06-2009 17:16:01 25.6 C 14.05 g/m*3 25.6 C 0 km/h
2846 27-06-2009 17:28:01 25.4 C 13.89 g/m*3 25.4 C 0 km/h
2847 27-06-2009 17:40:02 25.4 C 13.89 g/m*3 25.4 C 0 km/h
2848 27-06-2009 17:52:01 25 C 13.35 g/m*3 25 C 0 km/h
2849 27-06-2009 18:04:01 23.9 C 13.63 g/m*3 23.9 C 0 km/h
2850 27-06-2009 18:16:01 23.5 C 13.53 g/m*3 23.5 C 0 km/h
Sensor: Nr:Datum:Temp:Abs-Feuchte:Windchill:Wind:
Aussen-T/F 2851 27-06-2009 18:28:01 23.5 C 13.32 g/m*3 23.5 C 0 km/h
2852 27-06-2009 18:40:01 23.6 C 13.19 g/m*3 23.6 C 0 km/h
2853 27-06-2009 18:52:00 23.6 C 13.4 g/m*3 23.6 C 0 km/h
2854 27-06-2009 19:04:01 23.6 C 13.4 g/m*3 23.6 C 0 km/h
2855 27-06-2009 19:16:00 23.8 C 13.55 g/m*3 23.8 C 0 km/h
2856 27-06-2009 19:28:00 23.8 C 13.55 g/m*3 23.8 C 0 km/h
2857 27-06-2009 19:40:00 24 C 13.49 g/m*3 24 C 0 km/h
2858 27-06-2009 19:52:00 23.7 C 13.05 g/m*3 23.7 C 0 km/h
2859 27-06-2009 20:04:00 23.7 C 13.05 g/m*3 23.7 C 0 km/h
2860 27-06-2009 20:16:00 23.2 C 12.68 g/m*3 23.2 C 0 km/h
2861 27-06-2009 20:28:00 22.9 C 12.67 g/m*3 22.9 C 0 km/h
2862 27-06-2009 20:40:59 22.7 C 12.53 g/m*3 22.7 C 0 km/h
2863 27-06-2009 20:52:00 22.6 C 12.86 g/m*3 22.6 C 0 km/h
2864 27-06-2009 21:04:59 22.5 C 12.78 g/m*3 22.5 C 0 km/h
2865 27-06-2009 21:16:00 22.3 C 12.83 g/m*3 22.3 C 0 km/h
2866 27-06-2009 21:28:00 22 C 12.81 g/m*3 22 C 0 km/h
2867 27-06-2009 21:40:59 21.6 C 12.9 g/m*3 21.6 C 0 km/h
2868 27-06-2009 21:52:58 21.2 C 12.6 g/m*3 21.2 C 0 km/h
2869 27-06-2009 22:04:59 20.7 C 12.78 g/m*3 20.7 C 0 km/h
2870 27-06-2009 22:17:00 20.3 C 12.84 g/m*3 20.3 C 0 km/h
2871 27-06-2009 22:29:00 20.2 C 12.76 g/m*3 20.2 C 0 km/h
2872 27-06-2009 22:41:00 20 C 12.44 g/m*3 20 C 0 km/h
2873 27-06-2009 22:53:00 20.1 C 12.52 g/m*3 20.1 C 0 km/h
2874 27-06-2009 23:05:00 19.8 C 12.47 g/m*3 19.8 C 0 km/h
2875 27-06-2009 23:17:00 19.7 C 12.57 g/m*3 19.7 C 0 km/h
Sensor: Nr:Datum:Temp:Abs-Feuchte:Windchill:Wind:
Aussen-T/F 2876 27-06-2009 23:29:00 19.7 C 12.57 g/m*3 19.7 C 0 km/h
2877 27-06-2009 23:41:00 19.7 C 12.74 g/m*3 19.7 C 0 km/h
2878 27-06-2009 23:53:00 19.8 C 12.98 g/m*3 19.8 C 0 km/h
2879 28-06-2009 00:05:00 19.8 C 13.15 g/m*3 19.8 C 0 km/h
2880 28-06-2009 00:17:00 19.6 C 13 g/m*3 19.6 C 0 km/h
2881 28-06-2009 00:29:00 19.8 C 13.32 g/m*3 19.8 C 0 km/h
2882 28-06-2009 00:41:00 19.7 C 13.08 g/m*3 19.7 C 0 km/h
2883 28-06-2009 00:53:00 19.6 C 13 g/m*3 19.6 C 0 km/h
2884 28-06-2009 01:05:00 19.7 C 13.25 g/m*3 19.7 C 0 km/h
2885 28-06-2009 01:17:01 19.9 C 13.23 g/m*3 19.9 C 0 km/h
2886 28-06-2009 01:29:01 19.8 C 13.15 g/m*3 19.8 C 0 km/h
2887 28-06-2009 01:41:01 19.6 C 13 g/m*3 19.6 C 0 km/h
2888 28-06-2009 01:53:01 19.5 C 12.92 g/m*3 19.5 C 0 km/h
2889 28-06-2009 02:05:01 19.5 C 12.92 g/m*3 19.5 C 0 km/h
2890 28-06-2009 02:17:01 19.5 C 12.92 g/m*3 19.5 C 0 km/h
2891 28-06-2009 02:29:01 19.5 C 12.92 g/m*3 19.5 C 0 km/h
2892 28-06-2009 02:41:01 19.5 C 12.92 g/m*3 19.5 C 0 km/h
2893 28-06-2009 02:53:01 19.3 C 12.77 g/m*3 19.3 C 0 km/h
2894 28-06-2009 03:05:01 19.3 C 12.94 g/m*3 19.3 C 0 km/h
2895 28-06-2009 03:17:01 19.3 C 12.94 g/m*3 19.3 C 0 km/h
2896 28-06-2009 03:29:01 19.4 C 13.01 g/m*3 19.4 C 0 km/h
2897 28-06-2009 03:41:01 19.4 C 13.01 g/m*3 19.4 C 0 km/h
2898 28-06-2009 03:53:01 19.4 C 13.01 g/m*3 19.4 C 0 km/h
2899 28-06-2009 04:05:01 19.3 C 12.94 g/m*3 19.3 C 0 km/h
2900 28-06-2009 04:17:01 19.4 C 13.01 g/m*3 19.4 C 0 km/h
Sensor: Nr:Datum:Temp:Abs-Feuchte:Windchill:Wind:
Aussen-T/F 2901 28-06-2009 04:29:01 19.3 C 12.94 g/m*3 19.3 C 0 km/h
2902 28-06-2009 04:41:01 19.3 C 12.94 g/m*3 19.3 C 0 km/h
2903 28-06-2009 04:53:01 19.1 C 12.95 g/m*3 19.1 C 0 km/h
2904 28-06-2009 05:05:02 19.1 C 12.95 g/m*3 19.1 C 0 km/h
2905 28-06-2009 05:17:02 19.1 C 12.95 g/m*3 19.1 C 0 km/h
2906 28-06-2009 05:29:02 19 C 12.87 g/m*3 19 C 0 km/h
2907 28-06-2009 05:41:02 19.1 C 12.95 g/m*3 19.1 C 0 km/h
2908 28-06-2009 05:53:02 19.1 C 12.95 g/m*3 19.1 C 0 km/h
2909 28-06-2009 06:05:02 19.1 C 12.95 g/m*3 19.1 C 0 km/h
2910 28-06-2009 06:17:02 19.1 C 12.95 g/m*3 19.1 C 0 km/h
2911 28-06-2009 06:29:02 19.1 C 13.11 g/m*3 19.1 C 0 km/h
2912 28-06-2009 06:41:02 18.9 C 13.28 g/m*3 18.9 C 0 km/h
2913 28-06-2009 06:53:02 18.7 C 13.13 g/m*3 18.7 C 0 km/h
2914 28-06-2009 07:05:02 18.7 C 13.29 g/m*3 18.7 C 0 km/h
2915 28-06-2009 07:17:02 19.1 C 13.44 g/m*3 19.1 C 0 km/h
2916 28-06-2009 07:29:02 19.3 C 13.27 g/m*3 19.3 C 0 km/h
2917 28-06-2009 07:41:02 19.5 C 13.26 g/m*3 19.5 C 0 km/h
2918 28-06-2009 07:53:00 20 C 13.31 g/m*3 20 C 0 km/h
2919 28-06-2009 08:05:00 20.1 C 12.86 g/m*3 20.1 C 0 km/h
2920 28-06-2009 08:17:59 20.3 C 13.01 g/m*3 20.3 C 0 km/h
2921 28-06-2009 08:29:59 20.8 C 13.04 g/m*3 20.8 C 0 km/h
2922 28-06-2009 08:41:59 21.3 C 12.49 g/m*3 21.3 C 0 km/h
2923 28-06-2009 08:53:59 21.6 C 12.33 g/m*3 21.6 C 0 km/h
2924 28-06-2009 09:05:00 22.2 C 11.98 g/m*3 22.2 C 0 km/h
2925 28-06-2009 09:17:59 22.3 C 11.65 g/m*3 22.3 C 0 km/h
Sensor: Nr:Datum:Temp:Abs-Feuchte:Windchill:Wind:
Aussen-T/F 2926 28-06-2009 09:29:59 22.5 C 11.98 g/m*3 22.5 C 0 km/h
2927 28-06-2009 09:41:59 23.2 C 11.85 g/m*3 23.2 C 0 km/h
2928 28-06-2009 09:53:58 23.5 C 11.84 g/m*3 23.5 C 0 km/h
2929 28-06-2009 10:05:59 23.7 C 11.34 g/m*3 23.7 C 0 km/h
2930 28-06-2009 10:17:58 24.1 C 10.94 g/m*3 24.1 C 0 km/h
2931 28-06-2009 10:29:58 25.1 C 11.11 g/m*3 25.1 C 0 km/h
2932 28-06-2009 10:41:58 25.5 C 9.71 g/m*3 25.5 C 0 km/h
2933 28-06-2009 10:53:58 25.2 C 10.01 g/m*3 25.2 C 0 km/h
2934 28-06-2009 11:05:58 26.4 C 10.21 g/m*3 26.4 C 0 km/h
2935 28-06-2009 11:17:58 27.1 C 9.83 g/m*3 27.1 C 0 km/h
2936 28-06-2009 11:29:58 27.2 C 9.89 g/m*3 27.2 C 0 km/h
2937 28-06-2009 11:41:57 27.4 C 9.74 g/m*3 27.4 C 0 km/h
2938 28-06-2009 11:53:58 27.5 C 9.52 g/m*3 27.5 C 0 km/h
2939 28-06-2009 12:05:57 27.1 C 9.58 g/m*3 27.1 C 0 km/h
2940 28-06-2009 12:17:57 26.9 C 9.98 g/m*3 26.9 C 0 km/h
2941 28-06-2009 12:29:57 28.3 C 9.95 g/m*3 28.3 C 0 km/h
2942 28-06-2009 12:41:57 29.8 C 9.6 g/m*3 29.8 C 0 km/h
2943 28-06-2009 12:53:57 30.1 C 9.76 g/m*3 30.1 C 0 km/h
2944 28-06-2009 13:05:56 30 C 9.4 g/m*3 30 C 0 km/h
2945 28-06-2009 13:17:57 29.4 C 9.39 g/m*3 29.4 C 0 km/h
2946 28-06-2009 13:29:57 29.3 C 9.63 g/m*3 29.3 C 0 km/h
2947 28-06-2009 13:41:57 30.3 C 9.25 g/m*3 30.3 C 0 km/h
2948 28-06-2009 13:53:56 30 C 9.1 g/m*3 30 C 0 km/h
2949 28-06-2009 14:05:57 30.4 C 8.99 g/m*3 30.4 C 0 km/h
2950 28-06-2009 14:17:56 30.4 C 8.37 g/m*3 30.4 C 0 km/h
Sensor: Nr:Datum:Temp:Abs-Feuchte:Windchill:Wind:
Aussen-T/F 2951 28-06-2009 14:29:56 30.4 C 8.68 g/m*3 30.4 C 0 km/h
2952 28-06-2009 14:41:56 30.5 C 9.03 g/m*3 30.5 C 0 km/h
2953 28-06-2009 14:53:56 30.6 C 8.46 g/m*3 30.6 C 0 km/h
2954 28-06-2009 15:05:56 30.7 C 8.82 g/m*3 30.7 C 0 km/h
2955 28-06-2009 15:17:55 31 C 8.32 g/m*3 31 C 0 km/h
2956 28-06-2009 15:29:55 31.2 C 8.09 g/m*3 31.2 C 0 km/h
2957 28-06-2009 15:41:55 31.5 C 8.22 g/m*3 31.5 C 0 km/h
2958 28-06-2009 15:53:55 32.1 C 7.47 g/m*3 32.1 C 0 km/h
2959 28-06-2009 16:05:55 32.3 C 7.55 g/m*3 32.3 C 0 km/h
2960 28-06-2009 16:17:55 31.9 C 8.06 g/m*3 31.9 C 0 km/h
2961 28-06-2009 16:29:55 32 C 7.43 g/m*3 32 C 0 km/h
2962 28-06-2009 16:41:55 32.1 C 7.13 g/m*3 32.1 C 0 km/h
2963 28-06-2009 16:53:54 31.7 C 7.64 g/m*3 31.7 C 0 km/h
2964 28-06-2009 17:05:54 31 C 7.68 g/m*3 31 C 0 km/h
2965 28-06-2009 17:17:55 31.9 C 7.72 g/m*3 31.9 C 0 km/h
2966 28-06-2009 17:29:55 31.5 C 6.9 g/m*3 31.5 C 0 km/h
2967 28-06-2009 17:41:54 31.8 C 7.01 g/m*3 31.8 C 0 km/h
2968 28-06-2009 17:53:54 31.5 C 6.57 g/m*3 31.5 C 0 km/h
2969 28-06-2009 18:05:54 31.9 C 7.05 g/m*3 31.9 C 0 km/h
2970 28-06-2009 18:17:54 32.6 C 6.97 g/m*3 32.6 C 0 km/h
2971 28-06-2009 18:29:55 32.7 C 7.36 g/m*3 32.7 C 0 km/h
2972 28-06-2009 18:41:53 32.7 C 7.01 g/m*3 32.7 C 0 km/h
2973 28-06-2009 18:53:54 32.7 C 7.01 g/m*3 32.7 C 0 km/h
2974 28-06-2009 19:05:53 32.3 C 6.86 g/m*3 32.3 C 0 km/h
2975 28-06-2009 19:17:53 30.9 C 7.64 g/m*3 30.9 C 0 km/h
Sensor: Nr:Datum:Temp:Abs-Feuchte:Windchill:Wind:
Aussen-T/F 2976 28-06-2009 19:29:53 30.9 C 7.96 g/m*3 30.9 C 0 km/h
2977 28-06-2009 19:41:53 31 C 8 g/m*3 31 C 0 km/h
2978 28-06-2009 19:53:53 31 C 8 g/m*3 31 C 0 km/h
2979 28-06-2009 20:05:53 30.9 C 8.28 g/m*3 30.9 C 0 km/h
2980 28-06-2009 20:17:52 30.6 C 8.77 g/m*3 30.6 C 0 km/h
2981 28-06-2009 20:29:52 30.1 C 9.45 g/m*3 30.1 C 0 km/h
2982 28-06-2009 20:41:53 29.5 C 9.74 g/m*3 29.5 C 0 km/h
2983 28-06-2009 20:53:52 28.5 C 9.78 g/m*3 28.5 C 0 km/h
2984 28-06-2009 21:05:52 26.7 C 9.87 g/m*3 26.7 C 0 km/h
2985 28-06-2009 21:17:52 26.4 C 9.96 g/m*3 26.4 C 0 km/h
2986 28-06-2009 21:29:52 25.9 C 10.17 g/m*3 25.9 C 0 km/h
2987 28-06-2009 21:41:52 25.4 C 9.89 g/m*3 25.4 C 0 km/h
2988 28-06-2009 21:53:51 25.3 C 10.3 g/m*3 25.3 C 0 km/h
2989 28-06-2009 22:05:52 25 C 10.59 g/m*3 25 C 0 km/h
2990 28-06-2009 22:17:52 24.6 C 10.8 g/m*3 24.6 C 0 km/h
2991 28-06-2009 22:29:52 24.4 C 10.9 g/m*3 24.4 C 0 km/h
2992 28-06-2009 22:42:52 24.1 C 10.94 g/m*3 24.1 C 0 km/h
2993 28-06-2009 22:54:52 23.9 C 11.25 g/m*3 23.9 C 0 km/h
2994 28-06-2009 23:06:52 23.7 C 11.34 g/m*3 23.7 C 0 km/h
2995 28-06-2009 23:18:52 23.5 C 11.42 g/m*3 23.5 C 0 km/h
2996 28-06-2009 23:30:52 23.2 C 11.43 g/m*3 23.2 C 0 km/h
2997 28-06-2009 23:42:52 23 C 11.3 g/m*3 23 C 0 km/h
2998 28-06-2009 23:54:52 22.8 C 11.38 g/m*3 22.8 C 0 km/h
2999 29-06-2009 00:06:52 22.5 C 11.58 g/m*3 22.5 C 0 km/h
3000 29-06-2009 00:18:52 22.1 C 11.52 g/m*3 22.1 C 0 km/h
Sensor: Nr:Datum:Temp:Abs-Feuchte:Windchill:Wind:
Aussen-T/F 3001 29-06-2009 00:30:52 21.9 C 11.58 g/m*3 21.9 C 0 km/h
3002 29-06-2009 00:42:52 21.8 C 11.7 g/m*3 21.8 C 0 km/h
3003 29-06-2009 00:54:52 21.6 C 11.57 g/m*3 21.6 C 0 km/h
3004 29-06-2009 01:06:52 21.5 C 11.69 g/m*3 21.5 C 0 km/h
3005 29-06-2009 01:18:52 21.2 C 11.49 g/m*3 21.2 C 0 km/h
3006 29-06-2009 01:30:53 20.9 C 11.66 g/m*3 20.9 C 0 km/h
3007 29-06-2009 01:42:53 20.8 C 11.77 g/m*3 20.8 C 0 km/h
3008 29-06-2009 01:54:53 20.5 C 11.74 g/m*3 20.5 C 0 km/h
3009 29-06-2009 02:06:53 20.4 C 11.85 g/m*3 20.4 C 0 km/h
3010 29-06-2009 02:18:53 20.2 C 11.89 g/m*3 20.2 C 0 km/h
3011 29-06-2009 02:30:53 20.1 C 11.82 g/m*3 20.1 C 0 km/h
3012 29-06-2009 02:42:53 20.2 C 12.06 g/m*3 20.2 C 0 km/h
3013 29-06-2009 02:54:53 20.4 C 12.03 g/m*3 20.4 C 0 km/h
3014 29-06-2009 03:06:53 20 C 11.92 g/m*3 20 C 0 km/h
3015 29-06-2009 03:18:53 19.8 C 11.96 g/m*3 19.8 C 0 km/h
3016 29-06-2009 03:30:53 19.6 C 11.99 g/m*3 19.6 C 0 km/h
3017 29-06-2009 03:42:53 19.5 C 11.92 g/m*3 19.5 C 0 km/h
3018 29-06-2009 03:54:53 19.3 C 11.78 g/m*3 19.3 C 0 km/h
3019 29-06-2009 04:06:53 19.3 C 11.94 g/m*3 19.3 C 0 km/h
3020 29-06-2009 04:18:53 19.1 C 11.8 g/m*3 19.1 C 0 km/h
3021 29-06-2009 04:30:53 19 C 11.73 g/m*3 19 C 0 km/h
3022 29-06-2009 04:42:53 18.8 C 11.92 g/m*3 18.8 C 0 km/h
3023 29-06-2009 04:54:53 18.7 C 12.01 g/m*3 18.7 C 0 km/h
3024 29-06-2009 05:06:53 18.5 C 12.02 g/m*3 18.5 C 0 km/h
3025 29-06-2009 05:18:54 18.4 C 11.95 g/m*3 18.4 C 0 km/h
Sensor: Nr:Datum:Temp:Abs-Feuchte:Windchill:Wind:
Aussen-T/F 3026 29-06-2009 05:30:54 18.4 C 11.95 g/m*3 18.4 C 0 km/h
3027 29-06-2009 05:42:54 18.3 C 12.04 g/m*3 18.3 C 0 km/h
3028 29-06-2009 05:54:54 18.3 C 12.04 g/m*3 18.3 C 0 km/h
3029 29-06-2009 06:06:54 18.3 C 12.04 g/m*3 18.3 C 0 km/h
3030 29-06-2009 06:18:54 18.2 C 12.12 g/m*3 18.2 C 0 km/h
3031 29-06-2009 06:30:54 18.1 C 12.21 g/m*3 18.1 C 0 km/h
3032 29-06-2009 06:42:54 18 C 12.29 g/m*3 18 C 0 km/h
3033 29-06-2009 06:54:54 18 C 12.29 g/m*3 18 C 0 km/h
3034 29-06-2009 07:06:51 18.3 C 12.51 g/m*3 18.3 C 0 km/h
3035 29-06-2009 07:18:52 18.3 C 12.35 g/m*3 18.3 C 0 km/h
3036 29-06-2009 07:30:52 18.5 C 12.5 g/m*3 18.5 C 0 km/h
3037 29-06-2009 07:42:52 18.7 C 12.49 g/m*3 18.7 C 0 km/h
3038 29-06-2009 07:54:51 18.8 C 12.56 g/m*3 18.8 C 0 km/h
3039 29-06-2009 08:06:52 19.2 C 12.53 g/m*3 19.2 C 0 km/h
3040 29-06-2009 08:18:51 19.5 C 12.59 g/m*3 19.5 C 0 km/h
3041 29-06-2009 08:30:51 19.9 C 12.71 g/m*3 19.9 C 0 km/h
3042 29-06-2009 08:42:52 20.2 C 12.41 g/m*3 20.2 C 0 km/h
3043 29-06-2009 08:54:51 20.5 C 12.63 g/m*3 20.5 C 0 km/h
3044 29-06-2009 09:06:51 21.2 C 12.79 g/m*3 21.2 C 0 km/h
3045 29-06-2009 09:18:50 21.9 C 12.74 g/m*3 21.9 C 0 km/h
3046 29-06-2009 09:30:50 22.6 C 12.66 g/m*3 22.6 C 0 km/h
3047 29-06-2009 09:42:50 23.3 C 12.75 g/m*3 23.3 C 0 km/h
3048 29-06-2009 09:54:50 23.9 C 12.55 g/m*3 23.9 C 0 km/h
3049 29-06-2009 10:06:50 24.4 C 12.46 g/m*3 24.4 C 0 km/h
3050 29-06-2009 10:18:49 24.8 C 12.06 g/m*3 24.8 C 0 km/h
Sensor: Nr:Datum:Temp:Abs-Feuchte:Windchill:Wind:
Aussen-T/F 3051 29-06-2009 10:30:50 25.3 C 11.94 g/m*3 25.3 C 0 km/h
3052 29-06-2009 10:42:50 25.8 C 11.8 g/m*3 25.8 C 0 km/h
3053 29-06-2009 10:54:49 26.4 C 11.2 g/m*3 26.4 C 0 km/h
3054 29-06-2009 11:06:49 27 C 11.32 g/m*3 27 C 0 km/h
3055 29-06-2009 11:18:50 27.3 C 10.99 g/m*3 27.3 C 0 km/h
3056 29-06-2009 11:30:49 27.8 C 11.03 g/m*3 27.8 C 0 km/h
3057 29-06-2009 11:42:49 28.8 C 11.08 g/m*3 28.8 C 0 km/h
3058 29-06-2009 11:54:49 29.2 C 10.45 g/m*3 29.2 C 0 km/h
3059 29-06-2009 12:06:49 29.5 C 10.33 g/m*3 29.5 C 0 km/h
3060 29-06-2009 12:18:49 30.4 C 10.23 g/m*3 30.4 C 0 km/h
3061 29-06-2009 12:30:49 30.9 C 9.55 g/m*3 30.9 C 0 km/h
3062 29-06-2009 12:42:49 31 C 9.6 g/m*3 31 C 0 km/h
3063 29-06-2009 12:54:49 31.6 C 8.59 g/m*3 31.6 C 0 km/h
3064 29-06-2009 13:06:48 32 C 8.78 g/m*3 32 C 0 km/h
3065 29-06-2009 13:18:48 32.3 C 8.23 g/m*3 32.3 C 0 km/h
3066 29-06-2009 13:30:48 31.9 C 8.06 g/m*3 31.9 C 0 km/h
3067 29-06-2009 13:42:48 31.2 C 9.06 g/m*3 31.2 C 0 km/h
3068 29-06-2009 13:54:48 28.7 C 10.17 g/m*3 28.7 C 0 km/h
3069 29-06-2009 14:06:48 28.7 C 10.17 g/m*3 28.7 C 0 km/h
3070 29-06-2009 14:18:47 28.3 C 10.23 g/m*3 28.3 C 0 km/h
3071 29-06-2009 14:30:48 28.5 C 10.06 g/m*3 28.5 C 0 km/h
3072 29-06-2009 14:42:49 28.2 C 9.9 g/m*3 28.2 C 0 km/h
3073 29-06-2009 14:54:47 28.8 C 10.23 g/m*3 28.8 C 0 km/h
3074 29-06-2009 15:06:47 29.1 C 10.11 g/m*3 29.1 C 0 km/h
3075 29-06-2009 15:18:47 30 C 10.01 g/m*3 30 C 0 km/h
Sensor: Nr:Datum:Temp:Abs-Feuchte:Windchill:Wind:
Aussen-T/F 3076 29-06-2009 15:30:47 30.2 C 10.12 g/m*3 30.2 C 0 km/h
3077 29-06-2009 15:42:47 29.9 C 10.25 g/m*3 29.9 C 0 km/h
3078 29-06-2009 15:54:46 29.4 C 9.98 g/m*3 29.4 C 0 km/h
3079 29-06-2009 16:06:47 29.3 C 10.51 g/m*3 29.3 C 0 km/h
3080 29-06-2009 16:18:47 29.2 C 10.45 g/m*3 29.2 C 0 km/h
3081 29-06-2009 16:30:46 29.5 C 11.22 g/m*3 29.5 C 0 km/h
3082 29-06-2009 16:42:46 29.3 C 10.51 g/m*3 29.3 C 0 km/h
3083 29-06-2009 16:54:47 29.5 C 10.92 g/m*3 29.5 C 0 km/h
3084 29-06-2009 17:06:46 29.1 C 10.69 g/m*3 29.1 C 0 km/h
3085 29-06-2009 17:18:46 28.8 C 11.08 g/m*3 28.8 C 0 km/h
3086 29-06-2009 17:30:46 29 C 11.78 g/m*3 29 C 0 km/h
3087 29-06-2009 17:42:46 30.1 C 10.98 g/m*3 30.1 C 0 km/h
3088 29-06-2009 17:54:46 30.1 C 10.37 g/m*3 30.1 C 0 km/h
3089 29-06-2009 18:06:46 30.6 C 10.65 g/m*3 30.6 C 0 km/h
3090 29-06-2009 18:18:45 31.5 C 8.88 g/m*3 31.5 C 0 km/h
3091 29-06-2009 18:30:45 31.5 C 10.19 g/m*3 31.5 C 0 km/h
3092 29-06-2009 18:42:45 31.2 C 10.03 g/m*3 31.2 C 0 km/h
3093 29-06-2009 18:54:45 31.3 C 9.76 g/m*3 31.3 C 0 km/h
3094 29-06-2009 19:06:45 31.1 C 9.97 g/m*3 31.1 C 0 km/h
3095 29-06-2009 19:18:45 30.4 C 10.23 g/m*3 30.4 C 0 km/h
3096 29-06-2009 19:30:45 30.2 C 11.34 g/m*3 30.2 C 0 km/h
3097 29-06-2009 19:42:45 29.9 C 10.56 g/m*3 29.9 C 0 km/h
3098 29-06-2009 19:54:45 28.8 C 10.51 g/m*3 28.8 C 0 km/h
3099 29-06-2009 20:06:44 28.9 C 10.86 g/m*3 28.9 C 0 km/h
3100 29-06-2009 20:18:45 29 C 11.2 g/m*3 29 C 0 km/h
Sensor: Nr:Datum:Temp:Abs-Feuchte:Windchill:Wind:
Aussen-T/F 3101 29-06-2009 20:30:44 28.7 C 11.02 g/m*3 28.7 C 0 km/h
3102 29-06-2009 20:42:44 28.4 C 11.4 g/m*3 28.4 C 0 km/h
3103 29-06-2009 20:54:44 27.6 C 10.91 g/m*3 27.6 C 0 km/h
3104 29-06-2009 21:06:44 27.2 C 11.45 g/m*3 27.2 C 0 km/h
3105 29-06-2009 21:18:44 26.2 C 11.32 g/m*3 26.2 C 0 km/h
3106 29-06-2009 21:30:44 25.3 C 11.47 g/m*3 25.3 C 0 km/h
3107 29-06-2009 21:42:44 24.6 C 11.48 g/m*3 24.6 C 0 km/h
3108 29-06-2009 21:54:44 24.3 C 11.73 g/m*3 24.3 C 0 km/h
3109 29-06-2009 22:06:43 23.9 C 12.11 g/m*3 23.9 C 0 km/h
3110 29-06-2009 22:18:43 23.6 C 11.91 g/m*3 23.6 C 0 km/h
3111 29-06-2009 22:30:43 23.5 C 12.05 g/m*3 23.5 C 0 km/h
3112 29-06-2009 22:42:43 23.4 C 12.2 g/m*3 23.4 C 0 km/h
3113 29-06-2009 22:55:56 23.4 C 12.2 g/m*3 23.4 C 0 km/h
3114 29-06-2009 23:07:56 23.2 C 12.27 g/m*3 23.2 C 0 km/h
3115 29-06-2009 23:19:56 22.9 C 12.47 g/m*3 22.9 C 0 km/h
3116 29-06-2009 23:31:56 22.7 C 12.53 g/m*3 22.7 C 0 km/h
3117 29-06-2009 23:43:56 22.5 C 12.38 g/m*3 22.5 C 0 km/h
3118 29-06-2009 23:55:56 22.3 C 12.44 g/m*3 22.3 C 0 km/h
3119 30-06-2009 00:07:56 22 C 12.42 g/m*3 22 C 0 km/h
3120 30-06-2009 00:19:56 21.9 C 12.74 g/m*3 21.9 C 0 km/h
3121 30-06-2009 00:31:56 21.8 C 12.85 g/m*3 21.8 C 0 km/h
3122 30-06-2009 00:43:56 21.6 C 12.9 g/m*3 21.6 C 0 km/h
3123 30-06-2009 00:55:56 21.4 C 12.94 g/m*3 21.4 C 0 km/h
3124 30-06-2009 01:07:56 21.2 C 12.79 g/m*3 21.2 C 0 km/h
3125 30-06-2009 01:19:56 21 C 13.01 g/m*3 21 C 0 km/h
Sensor: Nr:Datum:Temp:Abs-Feuchte:Windchill:Wind:
Aussen-T/F 3126 30-06-2009 01:31:56 20.9 C 12.93 g/m*3 20.9 C 0 km/h
3127 30-06-2009 01:43:56 20.7 C 13.14 g/m*3 20.7 C 0 km/h
3128 30-06-2009 01:55:57 20.6 C 13.07 g/m*3 20.6 C 0 km/h
3129 30-06-2009 02:07:57 20.5 C 13.17 g/m*3 20.5 C 0 km/h
3130 30-06-2009 02:19:57 20.4 C 13.09 g/m*3 20.4 C 0 km/h
3131 30-06-2009 02:31:57 20.2 C 12.94 g/m*3 20.2 C 0 km/h
3132 30-06-2009 02:43:57 20 C 12.96 g/m*3 20 C 0 km/h
3133 30-06-2009 02:55:57 19.9 C 13.23 g/m*3 19.9 C 0 km/h
3134 30-06-2009 03:07:57 19.7 C 13.08 g/m*3 19.7 C 0 km/h
3135 30-06-2009 03:19:57 19.5 C 13.26 g/m*3 19.5 C 0 km/h
3136 30-06-2009 03:31:57 19.2 C 13.03 g/m*3 19.2 C 0 km/h
3137 30-06-2009 03:43:57 19.2 C 13.03 g/m*3 19.2 C 0 km/h
3138 30-06-2009 03:55:57 19.2 C 13.03 g/m*3 19.2 C 0 km/h
3139 30-06-2009 04:07:57 19.2 C 13.03 g/m*3 19.2 C 0 km/h
3140 30-06-2009 04:19:57 19 C 12.87 g/m*3 19 C 0 km/h
3141 30-06-2009 04:31:57 19 C 12.87 g/m*3 19 C 0 km/h
3142 30-06-2009 04:43:57 19.1 C 13.11 g/m*3 19.1 C 0 km/h
3143 30-06-2009 04:55:57 19.1 C 12.95 g/m*3 19.1 C 0 km/h
3144 30-06-2009 05:07:57 18.9 C 13.12 g/m*3 18.9 C 0 km/h
3145 30-06-2009 05:19:57 18.8 C 13.21 g/m*3 18.8 C 0 km/h
3146 30-06-2009 05:31:57 18.8 C 13.21 g/m*3 18.8 C 0 km/h
3147 30-06-2009 05:43:58 18.7 C 13.13 g/m*3 18.7 C 0 km/h
3148 30-06-2009 05:55:58 18.8 C 13.21 g/m*3 18.8 C 0 km/h
3149 30-06-2009 06:07:58 18.8 C 13.21 g/m*3 18.8 C 0 km/h
3150 30-06-2009 06:19:58 18.8 C 13.21 g/m*3 18.8 C 0 km/h
Sensor: Nr:Datum:Temp:Abs-Feuchte:Windchill:Wind:
Aussen-T/F 3151 30-06-2009 06:31:58 18.8 C 13.21 g/m*3 18.8 C 0 km/h
3152 30-06-2009 06:43:58 19.1 C 13.28 g/m*3 19.1 C 0 km/h
3153 30-06-2009 06:55:58 19.3 C 13.27 g/m*3 19.3 C 0 km/h
3154 30-06-2009 07:07:44 19.5 C 13.09 g/m*3 19.5 C 0 km/h
3155 30-06-2009 07:19:43 19.6 C 13.17 g/m*3 19.6 C 0 km/h
3156 30-06-2009 07:31:44 19.8 C 13.15 g/m*3 19.8 C 0 km/h
3157 30-06-2009 07:43:44 19.9 C 13.23 g/m*3 19.9 C 0 km/h
3158 30-06-2009 07:55:43 20.2 C 13.29 g/m*3 20.2 C 0 km/h
3159 30-06-2009 08:07:43 20.4 C 13.27 g/m*3 20.4 C 0 km/h
3160 30-06-2009 08:19:44 20.7 C 13.32 g/m*3 20.7 C 0 km/h
3161 30-06-2009 08:31:43 21.6 C 13.85 g/m*3 21.6 C 0 km/h
3162 30-06-2009 08:43:43 22.1 C 13.66 g/m*3 22.1 C 0 km/h
3163 30-06-2009 08:55:43 22.5 C 13.58 g/m*3 22.5 C 0 km/h
3164 30-06-2009 09:07:43 23 C 13.36 g/m*3 23 C 0 km/h
3165 30-06-2009 09:19:43 23.2 C 13.51 g/m*3 23.2 C 0 km/h
3166 30-06-2009 09:31:43 23.7 C 13.48 g/m*3 23.7 C 0 km/h
3167 30-06-2009 09:43:43 24.5 C 13.43 g/m*3 24.5 C 0 km/h
3168 30-06-2009 09:55:42 24.5 C 13.2 g/m*3 24.5 C 0 km/h
3169 30-06-2009 10:07:43 25 C 13.12 g/m*3 25 C 0 km/h
3170 30-06-2009 10:19:42 25.6 C 13.09 g/m*3 25.6 C 0 km/h
3171 30-06-2009 10:31:42 26 C 12.9 g/m*3 26 C 0 km/h
3172 30-06-2009 10:43:42 26.6 C 12.84 g/m*3 26.6 C 0 km/h
3173 30-06-2009 10:55:42 27.3 C 12.04 g/m*3 27.3 C 0 km/h
3174 30-06-2009 11:07:42 28.1 C 12.3 g/m*3 28.1 C 0 km/h
3175 30-06-2009 11:19:41 28.3 C 12.16 g/m*3 28.3 C 0 km/h
Sensor: Nr:Datum:Temp:Abs-Feuchte:Windchill:Wind:
Aussen-T/F 3176 30-06-2009 11:31:42 28.4 C 11.95 g/m*3 28.4 C 0 km/h
3177 30-06-2009 11:43:42 29.2 C 12.2 g/m*3 29.2 C 0 km/h
3178 30-06-2009 11:55:41 29.7 C 11.93 g/m*3 29.7 C 0 km/h
3179 30-06-2009 12:07:41 30.2 C 11.65 g/m*3 30.2 C 0 km/h
3180 30-06-2009 12:19:41 30.3 C 12.02 g/m*3 30.3 C 0 km/h
3181 30-06-2009 12:31:41 30.8 C 11.08 g/m*3 30.8 C 0 km/h
3182 30-06-2009 12:43:41 31.4 C 10.14 g/m*3 31.4 C 0 km/h
3183 30-06-2009 12:55:41 31.5 C 10.52 g/m*3 31.5 C 0 km/h
3184 30-06-2009 13:07:40 31.9 C 9.4 g/m*3 31.9 C 0 km/h
3185 30-06-2009 13:19:41 32 C 9.45 g/m*3 32 C 0 km/h
3186 30-06-2009 13:31:40 32.7 C 9.11 g/m*3 32.7 C 0 km/h
3187 30-06-2009 13:43:40 31.2 C 9.38 g/m*3 31.2 C 0 km/h
3188 30-06-2009 13:55:40 31.3 C 9.76 g/m*3 31.3 C 0 km/h
3189 30-06-2009 14:07:40 31.7 C 8.64 g/m*3 31.7 C 0 km/h
3190 30-06-2009 14:19:40 31.9 C 9.07 g/m*3 31.9 C 0 km/h
3191 30-06-2009 14:31:40 31.9 C 8.73 g/m*3 31.9 C 0 km/h
3192 30-06-2009 14:43:40 31.6 C 8.92 g/m*3 31.6 C 0 km/h
3193 30-06-2009 14:55:40 31 C 9.6 g/m*3 31 C 0 km/h
3194 30-06-2009 15:07:40 28.9 C 10.57 g/m*3 28.9 C 0 km/h
3195 30-06-2009 15:19:39 23.4 C 15.35 g/m*3 23.4 C 0 km/h
3196 30-06-2009 15:31:39 22.3 C 16.39 g/m*3 22.3 C 0 km/h
3197 30-06-2009 15:43:39 21 C 15.39 g/m*3 21 C 0 km/h
3198 30-06-2009 15:55:39 20.2 C 15.04 g/m*3 20.2 C 0 km/h
3199 30-06-2009 16:07:39 19.7 C 14.77 g/m*3 19.7 C 0 km/h
3200 30-06-2009 16:19:38 20 C 15.04 g/m*3 20 C 0 km/h
Sensor: Nr:Datum:Temp:Abs-Feuchte:Windchill:Wind:
Aussen-T/F 3201 30-06-2009 16:31:39 20.5 C 15.84 g/m*3 20.5 C 0 km/h
3202 30-06-2009 16:43:39 19.3 C 14.6 g/m*3 19.3 C 0 km/h
3203 30-06-2009 16:55:38 19.3 C 14.6 g/m*3 19.3 C 0 km/h
3204 30-06-2009 17:07:38 19.7 C 15.11 g/m*3 19.7 C 0 km/h
3205 30-06-2009 17:19:39 20 C 15.38 g/m*3 20 C 0 km/h
3206 30-06-2009 17:31:38 20.1 C 15.47 g/m*3 20.1 C 0 km/h
3207 30-06-2009 17:43:38 20.3 C 15.65 g/m*3 20.3 C 0 km/h
3208 30-06-2009 17:55:38 20.6 C 16.11 g/m*3 20.6 C 0 km/h
3209 30-06-2009 18:07:38 20.8 C 16.3 g/m*3 20.8 C 0 km/h
3210 30-06-2009 18:19:38 21.1 C 16.4 g/m*3 21.1 C 0 km/h
3211 30-06-2009 18:31:37 21.3 C 16.4 g/m*3 21.3 C 0 km/h
3212 30-06-2009 18:43:37 21.7 C 16.41 g/m*3 21.7 C 0 km/h
3213 30-06-2009 18:55:38 22 C 16.3 g/m*3 22 C 0 km/h
3214 30-06-2009 19:07:37 22 C 15.72 g/m*3 22 C 0 km/h
3215 30-06-2009 19:19:37 22.3 C 15.99 g/m*3 22.3 C 0 km/h
3216 30-06-2009 19:31:37 22.6 C 16.27 g/m*3 22.6 C 0 km/h
3217 30-06-2009 19:43:37 22.8 C 16.05 g/m*3 22.8 C 0 km/h
3218 30-06-2009 19:55:37 23.1 C 15.92 g/m*3 23.1 C 0 km/h
3219 30-06-2009 20:07:37 23.3 C 16.31 g/m*3 23.3 C 0 km/h
3220 30-06-2009 20:19:36 23.2 C 16.22 g/m*3 23.2 C 0 km/h
3221 30-06-2009 20:31:37 22.8 C 15.85 g/m*3 22.8 C 0 km/h
3222 30-06-2009 20:43:37 22.2 C 15.31 g/m*3 22.2 C 0 km/h
3223 30-06-2009 20:55:36 21.6 C 14.79 g/m*3 21.6 C 0 km/h
3224 30-06-2009 21:07:37 21 C 14.47 g/m*3 21 C 0 km/h
3225 30-06-2009 21:19:36 20.5 C 14.06 g/m*3 20.5 C